<?xml version="1.0" encoding="UTF-8" standalone="no" ?>
<gpx xmlns="http://www.topografix.com/GPX/1/1" xmlns:xsi="http://www.w3.org/2001/XMLSchema-instance" xsi:schemaLocation="http://www.topografix.com/GPX/1/1 http://www.topografix.com/GPX/1/1/gpx.xsd" version="1.1" creator="VisuGPX - https://www.visugpx.com">
  <metadata>
    <name>Mont Julioz rando</name>
    <desc><![CDATA[Une belle ballade en Bauges]]></desc>
  </metadata>
  <trk>
    <name><![CDATA[ballade au mont Julioz]]></name>
    <trkseg>
      <trkpt lat="45.72217" lon="6.17803">
        <ele>1280.4</ele>
        <time>2014-11-11T13:22:41Z</time>
      </trkpt>
      <trkpt lat="45.72214" lon="6.17806">
        <ele>1281.3</ele>
        <time>2014-11-11T13:22:49Z</time>
      </trkpt>
      <trkpt lat="45.72211" lon="6.17808">
        <ele>1281.9</ele>
        <time>2014-11-11T13:22:59Z</time>
      </trkpt>
      <trkpt lat="45.72208" lon="6.1781">
        <ele>1282.5</ele>
        <time>2014-11-11T13:23:04Z</time>
      </trkpt>
      <trkpt lat="45.72204" lon="6.17812">
        <ele>1283</ele>
        <time>2014-11-11T13:23:10Z</time>
      </trkpt>
      <trkpt lat="45.72202" lon="6.17815">
        <ele>1283.5</ele>
        <time>2014-11-11T13:23:16Z</time>
      </trkpt>
      <trkpt lat="45.72197" lon="6.17813">
        <ele>1283.7</ele>
        <time>2014-11-11T13:23:22Z</time>
      </trkpt>
      <trkpt lat="45.72193" lon="6.17811">
        <ele>1283.9</ele>
        <time>2014-11-11T13:23:28Z</time>
      </trkpt>
      <trkpt lat="45.72187" lon="6.1781">
        <ele>1284.3</ele>
        <time>2014-11-11T13:23:34Z</time>
      </trkpt>
      <trkpt lat="45.72184" lon="6.1781">
        <ele>1284.5</ele>
        <time>2014-11-11T13:23:41Z</time>
      </trkpt>
      <trkpt lat="45.72183" lon="6.17814">
        <ele>1284.9</ele>
        <time>2014-11-11T13:23:48Z</time>
      </trkpt>
      <trkpt lat="45.72181" lon="6.17816">
        <ele>1285.2</ele>
        <time>2014-11-11T13:23:55Z</time>
      </trkpt>
      <trkpt lat="45.72177" lon="6.17814">
        <ele>1285.4</ele>
        <time>2014-11-11T13:24:00Z</time>
      </trkpt>
      <trkpt lat="45.72173" lon="6.17814">
        <ele>1285.7</ele>
        <time>2014-11-11T13:24:06Z</time>
      </trkpt>
      <trkpt lat="45.72171" lon="6.17819">
        <ele>1286.2</ele>
        <time>2014-11-11T13:24:11Z</time>
      </trkpt>
      <trkpt lat="45.72165" lon="6.17821">
        <ele>1286.7</ele>
        <time>2014-11-11T13:24:16Z</time>
      </trkpt>
      <trkpt lat="45.72159" lon="6.17822">
        <ele>1287.2</ele>
        <time>2014-11-11T13:24:21Z</time>
      </trkpt>
      <trkpt lat="45.72149" lon="6.17829">
        <ele>1288.2</ele>
        <time>2014-11-11T13:24:30Z</time>
      </trkpt>
      <trkpt lat="45.7214" lon="6.17837">
        <ele>1289.2</ele>
        <time>2014-11-11T13:24:37Z</time>
      </trkpt>
      <trkpt lat="45.72135" lon="6.17843">
        <ele>1289.6</ele>
        <time>2014-11-11T13:24:41Z</time>
      </trkpt>
      <trkpt lat="45.72129" lon="6.17847">
        <ele>1290.1</ele>
        <time>2014-11-11T13:24:46Z</time>
      </trkpt>
      <trkpt lat="45.72126" lon="6.17849">
        <ele>1290.3</ele>
        <time>2014-11-11T13:24:49Z</time>
      </trkpt>
      <trkpt lat="45.72123" lon="6.17852">
        <ele>1290.8</ele>
        <time>2014-11-11T13:24:52Z</time>
      </trkpt>
      <trkpt lat="45.72118" lon="6.17858">
        <ele>1291.5</ele>
        <time>2014-11-11T13:24:57Z</time>
      </trkpt>
      <trkpt lat="45.72115" lon="6.17861">
        <ele>1292</ele>
        <time>2014-11-11T13:25:00Z</time>
      </trkpt>
      <trkpt lat="45.72111" lon="6.17865">
        <ele>1292.7</ele>
        <time>2014-11-11T13:25:04Z</time>
      </trkpt>
      <trkpt lat="45.72104" lon="6.17868">
        <ele>1293.8</ele>
        <time>2014-11-11T13:25:10Z</time>
      </trkpt>
      <trkpt lat="45.72097" lon="6.17871">
        <ele>1294.9</ele>
        <time>2014-11-11T13:25:16Z</time>
      </trkpt>
      <trkpt lat="45.72092" lon="6.17875">
        <ele>1295.8</ele>
        <time>2014-11-11T13:25:22Z</time>
      </trkpt>
      <trkpt lat="45.72086" lon="6.17879">
        <ele>1297</ele>
        <time>2014-11-11T13:25:29Z</time>
      </trkpt>
      <trkpt lat="45.72079" lon="6.17877">
        <ele>1297.8</ele>
        <time>2014-11-11T13:25:35Z</time>
      </trkpt>
      <trkpt lat="45.72071" lon="6.17876">
        <ele>1298.8</ele>
        <time>2014-11-11T13:25:43Z</time>
      </trkpt>
      <trkpt lat="45.72065" lon="6.17879">
        <ele>1300.1</ele>
        <time>2014-11-11T13:25:50Z</time>
      </trkpt>
      <trkpt lat="45.72061" lon="6.17881">
        <ele>1300.8</ele>
        <time>2014-11-11T13:25:54Z</time>
      </trkpt>
      <trkpt lat="45.72057" lon="6.17883">
        <ele>1301.6</ele>
        <time>2014-11-11T13:25:58Z</time>
      </trkpt>
      <trkpt lat="45.72049" lon="6.17881">
        <ele>1302.5</ele>
        <time>2014-11-11T13:26:04Z</time>
      </trkpt>
      <trkpt lat="45.72044" lon="6.17871">
        <ele>1302.4</ele>
        <time>2014-11-11T13:26:13Z</time>
      </trkpt>
      <trkpt lat="45.72039" lon="6.17862">
        <ele>1302.6</ele>
        <time>2014-11-11T13:26:21Z</time>
      </trkpt>
      <trkpt lat="45.72033" lon="6.17853">
        <ele>1303</ele>
        <time>2014-11-11T13:26:28Z</time>
      </trkpt>
      <trkpt lat="45.72024" lon="6.17841">
        <ele>1303.7</ele>
        <time>2014-11-11T13:26:38Z</time>
      </trkpt>
      <trkpt lat="45.72016" lon="6.1783">
        <ele>1304.2</ele>
        <time>2014-11-11T13:26:47Z</time>
      </trkpt>
      <trkpt lat="45.72011" lon="6.17819">
        <ele>1304.4</ele>
        <time>2014-11-11T13:26:54Z</time>
      </trkpt>
      <trkpt lat="45.72008" lon="6.17811">
        <ele>1304.3</ele>
        <time>2014-11-11T13:27:00Z</time>
      </trkpt>
      <trkpt lat="45.72003" lon="6.17797">
        <ele>1304.3</ele>
        <time>2014-11-11T13:27:08Z</time>
      </trkpt>
      <trkpt lat="45.72" lon="6.17791">
        <ele>1304.5</ele>
        <time>2014-11-11T13:27:14Z</time>
      </trkpt>
      <trkpt lat="45.71997" lon="6.17782">
        <ele>1304.9</ele>
        <time>2014-11-11T13:27:21Z</time>
      </trkpt>
      <trkpt lat="45.71994" lon="6.17774">
        <ele>1305.4</ele>
        <time>2014-11-11T13:27:27Z</time>
      </trkpt>
      <trkpt lat="45.71992" lon="6.17768">
        <ele>1305.5</ele>
        <time>2014-11-11T13:27:33Z</time>
      </trkpt>
      <trkpt lat="45.71991" lon="6.17764">
        <ele>1305.7</ele>
        <time>2014-11-11T13:27:42Z</time>
      </trkpt>
      <trkpt lat="45.71988" lon="6.17761">
        <ele>1306</ele>
        <time>2014-11-11T13:27:47Z</time>
      </trkpt>
      <trkpt lat="45.71983" lon="6.17755">
        <ele>1306.7</ele>
        <time>2014-11-11T13:27:53Z</time>
      </trkpt>
      <trkpt lat="45.71981" lon="6.17753">
        <ele>1307.1</ele>
        <time>2014-11-11T13:27:55Z</time>
      </trkpt>
      <trkpt lat="45.71974" lon="6.17747">
        <ele>1307.9</ele>
        <time>2014-11-11T13:28:01Z</time>
      </trkpt>
      <trkpt lat="45.71971" lon="6.17744">
        <ele>1308.3</ele>
        <time>2014-11-11T13:28:04Z</time>
      </trkpt>
      <trkpt lat="45.71966" lon="6.17738">
        <ele>1308.9</ele>
        <time>2014-11-11T13:28:10Z</time>
      </trkpt>
      <trkpt lat="45.71961" lon="6.17733">
        <ele>1309.5</ele>
        <time>2014-11-11T13:28:16Z</time>
      </trkpt>
      <trkpt lat="45.71951" lon="6.17728">
        <ele>1311</ele>
        <time>2014-11-11T13:28:24Z</time>
      </trkpt>
      <trkpt lat="45.71943" lon="6.17728">
        <ele>1312.2</ele>
        <time>2014-11-11T13:28:31Z</time>
      </trkpt>
      <trkpt lat="45.7194" lon="6.17729">
        <ele>1312.7</ele>
        <time>2014-11-11T13:28:38Z</time>
      </trkpt>
      <trkpt lat="45.71939" lon="6.17729">
        <ele>1312.9</ele>
        <time>2014-11-11T13:28:43Z</time>
      </trkpt>
      <trkpt lat="45.71936" lon="6.1773">
        <ele>1313.4</ele>
        <time>2014-11-11T13:28:47Z</time>
      </trkpt>
      <trkpt lat="45.71928" lon="6.1773">
        <ele>1314.6</ele>
        <time>2014-11-11T13:28:54Z</time>
      </trkpt>
      <trkpt lat="45.71925" lon="6.17731">
        <ele>1315.1</ele>
        <time>2014-11-11T13:28:57Z</time>
      </trkpt>
      <trkpt lat="45.71922" lon="6.17738">
        <ele>1315.8</ele>
        <time>2014-11-11T13:29:05Z</time>
      </trkpt>
      <trkpt lat="45.71918" lon="6.17739">
        <ele>1316.5</ele>
        <time>2014-11-11T13:29:10Z</time>
      </trkpt>
      <trkpt lat="45.71915" lon="6.17737">
        <ele>1316.9</ele>
        <time>2014-11-11T13:29:13Z</time>
      </trkpt>
      <trkpt lat="45.71909" lon="6.17731">
        <ele>1317.8</ele>
        <time>2014-11-11T13:29:19Z</time>
      </trkpt>
      <trkpt lat="45.71908" lon="6.1773">
        <ele>1318</ele>
        <time>2014-11-11T13:29:21Z</time>
      </trkpt>
      <trkpt lat="45.71901" lon="6.17726">
        <ele>1319</ele>
        <time>2014-11-11T13:29:28Z</time>
      </trkpt>
      <trkpt lat="45.71898" lon="6.17725">
        <ele>1319.4</ele>
        <time>2014-11-11T13:29:31Z</time>
      </trkpt>
      <trkpt lat="45.71893" lon="6.17726">
        <ele>1320.3</ele>
        <time>2014-11-11T13:29:36Z</time>
      </trkpt>
      <trkpt lat="45.71885" lon="6.17729">
        <ele>1321.6</ele>
        <time>2014-11-11T13:29:44Z</time>
      </trkpt>
      <trkpt lat="45.71881" lon="6.1773">
        <ele>1322.3</ele>
        <time>2014-11-11T13:29:48Z</time>
      </trkpt>
      <trkpt lat="45.71877" lon="6.17732">
        <ele>1322.9</ele>
        <time>2014-11-11T13:29:53Z</time>
      </trkpt>
      <trkpt lat="45.71871" lon="6.17734">
        <ele>1323.8</ele>
        <time>2014-11-11T13:29:59Z</time>
      </trkpt>
      <trkpt lat="45.71864" lon="6.17735">
        <ele>1324.8</ele>
        <time>2014-11-11T13:30:06Z</time>
      </trkpt>
      <trkpt lat="45.71857" lon="6.17737">
        <ele>1325.7</ele>
        <time>2014-11-11T13:30:14Z</time>
      </trkpt>
      <trkpt lat="45.71851" lon="6.1774">
        <ele>1326.5</ele>
        <time>2014-11-11T13:30:21Z</time>
      </trkpt>
      <trkpt lat="45.71843" lon="6.1774">
        <ele>1327.5</ele>
        <time>2014-11-11T13:30:29Z</time>
      </trkpt>
      <trkpt lat="45.71835" lon="6.17738">
        <ele>1328.6</ele>
        <time>2014-11-11T13:30:37Z</time>
      </trkpt>
      <trkpt lat="45.71829" lon="6.17738">
        <ele>1329.3</ele>
        <time>2014-11-11T13:30:42Z</time>
      </trkpt>
      <trkpt lat="45.7182" lon="6.17738">
        <ele>1330.5</ele>
        <time>2014-11-11T13:30:49Z</time>
      </trkpt>
      <trkpt lat="45.71814" lon="6.17737">
        <ele>1331.4</ele>
        <time>2014-11-11T13:30:53Z</time>
      </trkpt>
      <trkpt lat="45.7181" lon="6.17737">
        <ele>1331.9</ele>
        <time>2014-11-11T13:30:56Z</time>
      </trkpt>
      <trkpt lat="45.71805" lon="6.17737">
        <ele>1332.5</ele>
        <time>2014-11-11T13:31:00Z</time>
      </trkpt>
      <trkpt lat="45.71802" lon="6.17737">
        <ele>1333</ele>
        <time>2014-11-11T13:31:03Z</time>
      </trkpt>
      <trkpt lat="45.71799" lon="6.17739">
        <ele>1333.3</ele>
        <time>2014-11-11T13:31:06Z</time>
      </trkpt>
      <trkpt lat="45.71793" lon="6.17739">
        <ele>1334.1</ele>
        <time>2014-11-11T13:31:13Z</time>
      </trkpt>
      <trkpt lat="45.71786" lon="6.17739">
        <ele>1334</ele>
        <time>2014-11-11T13:31:19Z</time>
      </trkpt>
      <trkpt lat="45.71781" lon="6.1774">
        <ele>1333.8</ele>
        <time>2014-11-11T13:31:25Z</time>
      </trkpt>
      <trkpt lat="45.71778" lon="6.1774">
        <ele>1333.8</ele>
        <time>2014-11-11T13:31:29Z</time>
      </trkpt>
      <trkpt lat="45.71774" lon="6.17738">
        <ele>1333.8</ele>
        <time>2014-11-11T13:31:33Z</time>
      </trkpt>
      <trkpt lat="45.71768" lon="6.17739">
        <ele>1333.6</ele>
        <time>2014-11-11T13:31:39Z</time>
      </trkpt>
      <trkpt lat="45.71766" lon="6.17739">
        <ele>1333.5</ele>
        <time>2014-11-11T13:31:41Z</time>
      </trkpt>
      <trkpt lat="45.71757" lon="6.17741">
        <ele>1333.2</ele>
        <time>2014-11-11T13:31:50Z</time>
      </trkpt>
      <trkpt lat="45.71755" lon="6.17741">
        <ele>1333.1</ele>
        <time>2014-11-11T13:31:52Z</time>
      </trkpt>
      <trkpt lat="45.7175" lon="6.17742">
        <ele>1332.9</ele>
        <time>2014-11-11T13:31:58Z</time>
      </trkpt>
      <trkpt lat="45.71747" lon="6.1774">
        <ele>1332.9</ele>
        <time>2014-11-11T13:32:06Z</time>
      </trkpt>
      <trkpt lat="45.71745" lon="6.17741">
        <ele>1332.8</ele>
        <time>2014-11-11T13:32:13Z</time>
      </trkpt>
      <trkpt lat="45.71745" lon="6.17741">
        <ele>1332.8</ele>
        <time>2014-11-11T13:32:27Z</time>
      </trkpt>
      <trkpt lat="45.71745" lon="6.17743">
        <ele>1332.7</ele>
        <time>2014-11-11T13:32:47Z</time>
      </trkpt>
      <trkpt lat="45.71745" lon="6.17744">
        <ele>1332.6</ele>
        <time>2014-11-11T13:32:57Z</time>
      </trkpt>
      <trkpt lat="45.71743" lon="6.17743">
        <ele>1332.6</ele>
        <time>2014-11-11T13:33:09Z</time>
      </trkpt>
      <trkpt lat="45.71738" lon="6.17739">
        <ele>1332.8</ele>
        <time>2014-11-11T13:33:15Z</time>
      </trkpt>
      <trkpt lat="45.71739" lon="6.1773">
        <ele>1333.6</ele>
        <time>2014-11-11T13:33:22Z</time>
      </trkpt>
      <trkpt lat="45.71739" lon="6.17723">
        <ele>1334.1</ele>
        <time>2014-11-11T13:33:27Z</time>
      </trkpt>
      <trkpt lat="45.71739" lon="6.17716">
        <ele>1334.8</ele>
        <time>2014-11-11T13:33:32Z</time>
      </trkpt>
      <trkpt lat="45.71739" lon="6.17708">
        <ele>1335.4</ele>
        <time>2014-11-11T13:33:40Z</time>
      </trkpt>
      <trkpt lat="45.71738" lon="6.17699">
        <ele>1335.8</ele>
        <time>2014-11-11T13:33:47Z</time>
      </trkpt>
      <trkpt lat="45.71736" lon="6.17691">
        <ele>1336.2</ele>
        <time>2014-11-11T13:33:53Z</time>
      </trkpt>
      <trkpt lat="45.71734" lon="6.17676">
        <ele>1336.8</ele>
        <time>2014-11-11T13:34:02Z</time>
      </trkpt>
      <trkpt lat="45.71734" lon="6.17657">
        <ele>1337.6</ele>
        <time>2014-11-11T13:34:12Z</time>
      </trkpt>
      <trkpt lat="45.71733" lon="6.17644">
        <ele>1338.1</ele>
        <time>2014-11-11T13:34:19Z</time>
      </trkpt>
      <trkpt lat="45.71737" lon="6.17634">
        <ele>1339</ele>
        <time>2014-11-11T13:34:25Z</time>
      </trkpt>
      <trkpt lat="45.71741" lon="6.17618">
        <ele>1340.8</ele>
        <time>2014-11-11T13:34:34Z</time>
      </trkpt>
      <trkpt lat="45.71742" lon="6.17615">
        <ele>1341.3</ele>
        <time>2014-11-11T13:34:36Z</time>
      </trkpt>
      <trkpt lat="45.71744" lon="6.1761">
        <ele>1342.1</ele>
        <time>2014-11-11T13:34:40Z</time>
      </trkpt>
      <trkpt lat="45.71747" lon="6.17602">
        <ele>1343.4</ele>
        <time>2014-11-11T13:34:46Z</time>
      </trkpt>
      <trkpt lat="45.71748" lon="6.17593">
        <ele>1344.8</ele>
        <time>2014-11-11T13:34:53Z</time>
      </trkpt>
      <trkpt lat="45.71747" lon="6.17585">
        <ele>1345.7</ele>
        <time>2014-11-11T13:34:59Z</time>
      </trkpt>
      <trkpt lat="45.7175" lon="6.17574">
        <ele>1347.4</ele>
        <time>2014-11-11T13:35:06Z</time>
      </trkpt>
      <trkpt lat="45.71751" lon="6.17568">
        <ele>1348.4</ele>
        <time>2014-11-11T13:35:11Z</time>
      </trkpt>
      <trkpt lat="45.71751" lon="6.17557">
        <ele>1349.7</ele>
        <time>2014-11-11T13:35:20Z</time>
      </trkpt>
      <trkpt lat="45.71752" lon="6.17551">
        <ele>1350.6</ele>
        <time>2014-11-11T13:35:26Z</time>
      </trkpt>
      <trkpt lat="45.71753" lon="6.17545">
        <ele>1351.6</ele>
        <time>2014-11-11T13:35:33Z</time>
      </trkpt>
      <trkpt lat="45.7175" lon="6.17539">
        <ele>1351.8</ele>
        <time>2014-11-11T13:35:39Z</time>
      </trkpt>
      <trkpt lat="45.7175" lon="6.17536">
        <ele>1352.2</ele>
        <time>2014-11-11T13:35:45Z</time>
      </trkpt>
      <trkpt lat="45.71748" lon="6.17532">
        <ele>1352.3</ele>
        <time>2014-11-11T13:35:51Z</time>
      </trkpt>
      <trkpt lat="45.71745" lon="6.17528">
        <ele>1352.3</ele>
        <time>2014-11-11T13:35:57Z</time>
      </trkpt>
      <trkpt lat="45.71743" lon="6.17523">
        <ele>1352.5</ele>
        <time>2014-11-11T13:36:03Z</time>
      </trkpt>
      <trkpt lat="45.71741" lon="6.17518">
        <ele>1352.7</ele>
        <time>2014-11-11T13:36:08Z</time>
      </trkpt>
      <trkpt lat="45.7174" lon="6.17514">
        <ele>1353</ele>
        <time>2014-11-11T13:36:13Z</time>
      </trkpt>
      <trkpt lat="45.71741" lon="6.1751">
        <ele>1353.5</ele>
        <time>2014-11-11T13:36:17Z</time>
      </trkpt>
      <trkpt lat="45.7174" lon="6.17507">
        <ele>1353.8</ele>
        <time>2014-11-11T13:36:20Z</time>
      </trkpt>
      <trkpt lat="45.7174" lon="6.17502">
        <ele>1354.2</ele>
        <time>2014-11-11T13:36:24Z</time>
      </trkpt>
      <trkpt lat="45.71741" lon="6.17496">
        <ele>1355</ele>
        <time>2014-11-11T13:36:29Z</time>
      </trkpt>
      <trkpt lat="45.71741" lon="6.17491">
        <ele>1355.6</ele>
        <time>2014-11-11T13:36:34Z</time>
      </trkpt>
      <trkpt lat="45.71742" lon="6.17485">
        <ele>1356.5</ele>
        <time>2014-11-11T13:36:39Z</time>
      </trkpt>
      <trkpt lat="45.71742" lon="6.17478">
        <ele>1357.3</ele>
        <time>2014-11-11T13:36:44Z</time>
      </trkpt>
      <trkpt lat="45.71743" lon="6.17472">
        <ele>1358.1</ele>
        <time>2014-11-11T13:36:48Z</time>
      </trkpt>
      <trkpt lat="45.71741" lon="6.17458">
        <ele>1359.2</ele>
        <time>2014-11-11T13:36:57Z</time>
      </trkpt>
      <trkpt lat="45.71738" lon="6.17454">
        <ele>1358.8</ele>
        <time>2014-11-11T13:37:03Z</time>
      </trkpt>
      <trkpt lat="45.71735" lon="6.17448">
        <ele>1358.8</ele>
        <time>2014-11-11T13:37:09Z</time>
      </trkpt>
      <trkpt lat="45.71731" lon="6.1744">
        <ele>1358.4</ele>
        <time>2014-11-11T13:37:16Z</time>
      </trkpt>
      <trkpt lat="45.71728" lon="6.17433">
        <ele>1358.3</ele>
        <time>2014-11-11T13:37:22Z</time>
      </trkpt>
      <trkpt lat="45.71726" lon="6.17426">
        <ele>1358.4</ele>
        <time>2014-11-11T13:37:26Z</time>
      </trkpt>
      <trkpt lat="45.71727" lon="6.17419">
        <ele>1359.4</ele>
        <time>2014-11-11T13:37:32Z</time>
      </trkpt>
      <trkpt lat="45.71728" lon="6.17411">
        <ele>1360.2</ele>
        <time>2014-11-11T13:37:40Z</time>
      </trkpt>
      <trkpt lat="45.71731" lon="6.17404">
        <ele>1362</ele>
        <time>2014-11-11T13:37:46Z</time>
      </trkpt>
      <trkpt lat="45.7173" lon="6.17397">
        <ele>1362.4</ele>
        <time>2014-11-11T13:37:53Z</time>
      </trkpt>
      <trkpt lat="45.7173" lon="6.17388">
        <ele>1363.2</ele>
        <time>2014-11-11T13:38:00Z</time>
      </trkpt>
      <trkpt lat="45.71731" lon="6.17383">
        <ele>1364.1</ele>
        <time>2014-11-11T13:38:05Z</time>
      </trkpt>
      <trkpt lat="45.71734" lon="6.17377">
        <ele>1365.9</ele>
        <time>2014-11-11T13:38:11Z</time>
      </trkpt>
      <trkpt lat="45.71738" lon="6.1737">
        <ele>1368.4</ele>
        <time>2014-11-11T13:38:19Z</time>
      </trkpt>
      <trkpt lat="45.71741" lon="6.17367">
        <ele>1369.9</ele>
        <time>2014-11-11T13:38:25Z</time>
      </trkpt>
      <trkpt lat="45.71742" lon="6.17368">
        <ele>1370.3</ele>
        <time>2014-11-11T13:38:31Z</time>
      </trkpt>
      <trkpt lat="45.71746" lon="6.17364">
        <ele>1372.3</ele>
        <time>2014-11-11T13:38:36Z</time>
      </trkpt>
      <trkpt lat="45.71748" lon="6.17364">
        <ele>1373.3</ele>
        <time>2014-11-11T13:38:41Z</time>
      </trkpt>
      <trkpt lat="45.71755" lon="6.17359">
        <ele>1376.4</ele>
        <time>2014-11-11T13:38:47Z</time>
      </trkpt>
      <trkpt lat="45.71755" lon="6.17357">
        <ele>1376.8</ele>
        <time>2014-11-11T13:38:48Z</time>
      </trkpt>
      <trkpt lat="45.71757" lon="6.17354">
        <ele>1378.2</ele>
        <time>2014-11-11T13:38:52Z</time>
      </trkpt>
      <trkpt lat="45.71762" lon="6.1735">
        <ele>1380.6</ele>
        <time>2014-11-11T13:38:58Z</time>
      </trkpt>
      <trkpt lat="45.71764" lon="6.17343">
        <ele>1382.5</ele>
        <time>2014-11-11T13:39:06Z</time>
      </trkpt>
      <trkpt lat="45.71766" lon="6.17337">
        <ele>1384.4</ele>
        <time>2014-11-11T13:39:13Z</time>
      </trkpt>
      <trkpt lat="45.7177" lon="6.17331">
        <ele>1387</ele>
        <time>2014-11-11T13:39:20Z</time>
      </trkpt>
      <trkpt lat="45.71776" lon="6.17323">
        <ele>1390.5</ele>
        <time>2014-11-11T13:39:30Z</time>
      </trkpt>
      <trkpt lat="45.7178" lon="6.17321">
        <ele>1393.1</ele>
        <time>2014-11-11T13:39:37Z</time>
      </trkpt>
      <trkpt lat="45.71784" lon="6.17317">
        <ele>1395.2</ele>
        <time>2014-11-11T13:39:42Z</time>
      </trkpt>
      <trkpt lat="45.71788" lon="6.17312">
        <ele>1397.8</ele>
        <time>2014-11-11T13:39:51Z</time>
      </trkpt>
      <trkpt lat="45.7179" lon="6.17309">
        <ele>1399.3</ele>
        <time>2014-11-11T13:40:01Z</time>
      </trkpt>
      <trkpt lat="45.7179" lon="6.17309">
        <ele>1399.3</ele>
        <time>2014-11-11T13:40:11Z</time>
      </trkpt>
      <trkpt lat="45.71791" lon="6.17307">
        <ele>1399.9</ele>
        <time>2014-11-11T13:40:25Z</time>
      </trkpt>
      <trkpt lat="45.7179" lon="6.17304">
        <ele>1400.1</ele>
        <time>2014-11-11T13:40:42Z</time>
      </trkpt>
      <trkpt lat="45.71792" lon="6.17305">
        <ele>1400.7</ele>
        <time>2014-11-11T13:40:46Z</time>
      </trkpt>
      <trkpt lat="45.71794" lon="6.17308">
        <ele>1400.8</ele>
        <time>2014-11-11T13:40:51Z</time>
      </trkpt>
      <trkpt lat="45.71798" lon="6.17307">
        <ele>1402</ele>
        <time>2014-11-11T13:40:56Z</time>
      </trkpt>
      <trkpt lat="45.71805" lon="6.17305">
        <ele>1404.1</ele>
        <time>2014-11-11T13:41:03Z</time>
      </trkpt>
      <trkpt lat="45.71809" lon="6.17304">
        <ele>1405.2</ele>
        <time>2014-11-11T13:41:08Z</time>
      </trkpt>
      <trkpt lat="45.71812" lon="6.173">
        <ele>1406.7</ele>
        <time>2014-11-11T13:41:13Z</time>
      </trkpt>
      <trkpt lat="45.71815" lon="6.17297">
        <ele>1408.3</ele>
        <time>2014-11-11T13:41:18Z</time>
      </trkpt>
      <trkpt lat="45.71816" lon="6.17294">
        <ele>1409.2</ele>
        <time>2014-11-11T13:41:22Z</time>
      </trkpt>
      <trkpt lat="45.71819" lon="6.17288">
        <ele>1411.5</ele>
        <time>2014-11-11T13:41:29Z</time>
      </trkpt>
      <trkpt lat="45.71816" lon="6.1728">
        <ele>1412</ele>
        <time>2014-11-11T13:41:37Z</time>
      </trkpt>
      <trkpt lat="45.7181" lon="6.17275">
        <ele>1411.5</ele>
        <time>2014-11-11T13:41:45Z</time>
      </trkpt>
      <trkpt lat="45.71806" lon="6.17272">
        <ele>1411</ele>
        <time>2014-11-11T13:41:50Z</time>
      </trkpt>
      <trkpt lat="45.71802" lon="6.17268">
        <ele>1410.6</ele>
        <time>2014-11-11T13:41:54Z</time>
      </trkpt>
      <trkpt lat="45.71796" lon="6.17262">
        <ele>1410</ele>
        <time>2014-11-11T13:42:03Z</time>
      </trkpt>
      <trkpt lat="45.71791" lon="6.17259">
        <ele>1408.8</ele>
        <time>2014-11-11T13:42:10Z</time>
      </trkpt>
      <trkpt lat="45.71787" lon="6.17255">
        <ele>1407.7</ele>
        <time>2014-11-11T13:42:16Z</time>
      </trkpt>
      <trkpt lat="45.71782" lon="6.17249">
        <ele>1407.1</ele>
        <time>2014-11-11T13:42:23Z</time>
      </trkpt>
      <trkpt lat="45.7178" lon="6.17243">
        <ele>1407.2</ele>
        <time>2014-11-11T13:42:30Z</time>
      </trkpt>
      <trkpt lat="45.71779" lon="6.17235">
        <ele>1408.3</ele>
        <time>2014-11-11T13:42:37Z</time>
      </trkpt>
      <trkpt lat="45.71778" lon="6.1723">
        <ele>1408.9</ele>
        <time>2014-11-11T13:42:42Z</time>
      </trkpt>
      <trkpt lat="45.7178" lon="6.17222">
        <ele>1411.3</ele>
        <time>2014-11-11T13:42:49Z</time>
      </trkpt>
      <trkpt lat="45.71784" lon="6.17218">
        <ele>1413.8</ele>
        <time>2014-11-11T13:42:55Z</time>
      </trkpt>
      <trkpt lat="45.71791" lon="6.17216">
        <ele>1417.1</ele>
        <time>2014-11-11T13:43:04Z</time>
      </trkpt>
      <trkpt lat="45.71798" lon="6.17214">
        <ele>1420.1</ele>
        <time>2014-11-11T13:43:13Z</time>
      </trkpt>
      <trkpt lat="45.71803" lon="6.17213">
        <ele>1422.1</ele>
        <time>2014-11-11T13:43:20Z</time>
      </trkpt>
      <trkpt lat="45.71807" lon="6.17212">
        <ele>1423.9</ele>
        <time>2014-11-11T13:43:27Z</time>
      </trkpt>
      <trkpt lat="45.71812" lon="6.1721">
        <ele>1426</ele>
        <time>2014-11-11T13:43:34Z</time>
      </trkpt>
      <trkpt lat="45.71817" lon="6.17209">
        <ele>1427.8</ele>
        <time>2014-11-11T13:43:41Z</time>
      </trkpt>
      <trkpt lat="45.7182" lon="6.17208">
        <ele>1429.3</ele>
        <time>2014-11-11T13:43:47Z</time>
      </trkpt>
      <trkpt lat="45.71824" lon="6.17208">
        <ele>1430.6</ele>
        <time>2014-11-11T13:43:52Z</time>
      </trkpt>
      <trkpt lat="45.71828" lon="6.17206">
        <ele>1432.7</ele>
        <time>2014-11-11T13:43:58Z</time>
      </trkpt>
      <trkpt lat="45.71832" lon="6.17202">
        <ele>1435.2</ele>
        <time>2014-11-11T13:44:04Z</time>
      </trkpt>
      <trkpt lat="45.71838" lon="6.17196">
        <ele>1439.1</ele>
        <time>2014-11-11T13:44:13Z</time>
      </trkpt>
      <trkpt lat="45.71841" lon="6.17189">
        <ele>1442.4</ele>
        <time>2014-11-11T13:44:20Z</time>
      </trkpt>
      <trkpt lat="45.71847" lon="6.17184">
        <ele>1445.9</ele>
        <time>2014-11-11T13:44:29Z</time>
      </trkpt>
      <trkpt lat="45.71851" lon="6.17177">
        <ele>1449.2</ele>
        <time>2014-11-11T13:44:37Z</time>
      </trkpt>
      <trkpt lat="45.71854" lon="6.17176">
        <ele>1450.9</ele>
        <time>2014-11-11T13:44:43Z</time>
      </trkpt>
      <trkpt lat="45.71858" lon="6.17174">
        <ele>1453.1</ele>
        <time>2014-11-11T13:44:50Z</time>
      </trkpt>
      <trkpt lat="45.71863" lon="6.17171">
        <ele>1455.6</ele>
        <time>2014-11-11T13:44:56Z</time>
      </trkpt>
      <trkpt lat="45.71868" lon="6.1717">
        <ele>1458</ele>
        <time>2014-11-11T13:45:02Z</time>
      </trkpt>
      <trkpt lat="45.71873" lon="6.17166">
        <ele>1461.2</ele>
        <time>2014-11-11T13:45:08Z</time>
      </trkpt>
      <trkpt lat="45.71879" lon="6.17162">
        <ele>1463.3</ele>
        <time>2014-11-11T13:45:16Z</time>
      </trkpt>
      <trkpt lat="45.71886" lon="6.17159">
        <ele>1464.8</ele>
        <time>2014-11-11T13:45:24Z</time>
      </trkpt>
      <trkpt lat="45.71891" lon="6.17158">
        <ele>1465.6</ele>
        <time>2014-11-11T13:45:30Z</time>
      </trkpt>
      <trkpt lat="45.71896" lon="6.17155">
        <ele>1466.8</ele>
        <time>2014-11-11T13:45:38Z</time>
      </trkpt>
      <trkpt lat="45.71903" lon="6.17152">
        <ele>1468.5</ele>
        <time>2014-11-11T13:45:47Z</time>
      </trkpt>
      <trkpt lat="45.71911" lon="6.17144">
        <ele>1471.5</ele>
        <time>2014-11-11T13:45:57Z</time>
      </trkpt>
      <trkpt lat="45.71913" lon="6.17139">
        <ele>1473.1</ele>
        <time>2014-11-11T13:46:02Z</time>
      </trkpt>
      <trkpt lat="45.71915" lon="6.17133">
        <ele>1474.9</ele>
        <time>2014-11-11T13:46:08Z</time>
      </trkpt>
      <trkpt lat="45.71916" lon="6.17128">
        <ele>1476.5</ele>
        <time>2014-11-11T13:46:15Z</time>
      </trkpt>
      <trkpt lat="45.71914" lon="6.17123">
        <ele>1478</ele>
        <time>2014-11-11T13:46:21Z</time>
      </trkpt>
      <trkpt lat="45.71911" lon="6.17121">
        <ele>1478.4</ele>
        <time>2014-11-11T13:46:25Z</time>
      </trkpt>
      <trkpt lat="45.7191" lon="6.17114">
        <ele>1480.7</ele>
        <time>2014-11-11T13:46:32Z</time>
      </trkpt>
      <trkpt lat="45.71908" lon="6.17108">
        <ele>1482.5</ele>
        <time>2014-11-11T13:46:38Z</time>
      </trkpt>
      <trkpt lat="45.71906" lon="6.17105">
        <ele>1483.6</ele>
        <time>2014-11-11T13:46:43Z</time>
      </trkpt>
      <trkpt lat="45.71904" lon="6.17099">
        <ele>1485.3</ele>
        <time>2014-11-11T13:46:50Z</time>
      </trkpt>
      <trkpt lat="45.71903" lon="6.17096">
        <ele>1486.2</ele>
        <time>2014-11-11T13:46:55Z</time>
      </trkpt>
      <trkpt lat="45.71904" lon="6.17096">
        <ele>1486.4</ele>
        <time>2014-11-11T13:47:00Z</time>
      </trkpt>
      <trkpt lat="45.71902" lon="6.17096">
        <ele>1486.2</ele>
        <time>2014-11-11T13:47:05Z</time>
      </trkpt>
      <trkpt lat="45.719" lon="6.17093">
        <ele>1486.9</ele>
        <time>2014-11-11T13:47:10Z</time>
      </trkpt>
      <trkpt lat="45.71898" lon="6.17091">
        <ele>1487.5</ele>
        <time>2014-11-11T13:47:15Z</time>
      </trkpt>
      <trkpt lat="45.71897" lon="6.17091">
        <ele>1487.6</ele>
        <time>2014-11-11T13:47:18Z</time>
      </trkpt>
      <trkpt lat="45.71893" lon="6.17086">
        <ele>1489</ele>
        <time>2014-11-11T13:47:24Z</time>
      </trkpt>
      <trkpt lat="45.71892" lon="6.17085">
        <ele>1489</ele>
        <time>2014-11-11T13:47:27Z</time>
      </trkpt>
      <trkpt lat="45.7189" lon="6.17082">
        <ele>1489.8</ele>
        <time>2014-11-11T13:47:33Z</time>
      </trkpt>
      <trkpt lat="45.71888" lon="6.17079">
        <ele>1490.7</ele>
        <time>2014-11-11T13:47:37Z</time>
      </trkpt>
      <trkpt lat="45.71885" lon="6.17077">
        <ele>1491</ele>
        <time>2014-11-11T13:47:42Z</time>
      </trkpt>
      <trkpt lat="45.7188" lon="6.17075">
        <ele>1491.4</ele>
        <time>2014-11-11T13:47:50Z</time>
      </trkpt>
      <trkpt lat="45.71878" lon="6.17074">
        <ele>1491.3</ele>
        <time>2014-11-11T13:47:55Z</time>
      </trkpt>
      <trkpt lat="45.71875" lon="6.17071">
        <ele>1492</ele>
        <time>2014-11-11T13:48:01Z</time>
      </trkpt>
      <trkpt lat="45.71874" lon="6.17068">
        <ele>1492.8</ele>
        <time>2014-11-11T13:48:06Z</time>
      </trkpt>
      <trkpt lat="45.71872" lon="6.17062">
        <ele>1494</ele>
        <time>2014-11-11T13:48:13Z</time>
      </trkpt>
      <trkpt lat="45.71869" lon="6.17059">
        <ele>1493.7</ele>
        <time>2014-11-11T13:48:18Z</time>
      </trkpt>
      <trkpt lat="45.71866" lon="6.17056">
        <ele>1493.5</ele>
        <time>2014-11-11T13:48:23Z</time>
      </trkpt>
      <trkpt lat="45.71862" lon="6.17051">
        <ele>1492.9</ele>
        <time>2014-11-11T13:48:31Z</time>
      </trkpt>
      <trkpt lat="45.71856" lon="6.17045">
        <ele>1492.1</ele>
        <time>2014-11-11T13:48:39Z</time>
      </trkpt>
      <trkpt lat="45.7185" lon="6.17043">
        <ele>1490.2</ele>
        <time>2014-11-11T13:48:46Z</time>
      </trkpt>
      <trkpt lat="45.71846" lon="6.17041">
        <ele>1489.1</ele>
        <time>2014-11-11T13:48:52Z</time>
      </trkpt>
      <trkpt lat="45.71843" lon="6.17038">
        <ele>1488.4</ele>
        <time>2014-11-11T13:48:57Z</time>
      </trkpt>
      <trkpt lat="45.7184" lon="6.17033">
        <ele>1488</ele>
        <time>2014-11-11T13:49:03Z</time>
      </trkpt>
      <trkpt lat="45.71836" lon="6.17026">
        <ele>1488.4</ele>
        <time>2014-11-11T13:49:11Z</time>
      </trkpt>
      <trkpt lat="45.71833" lon="6.17021">
        <ele>1488.3</ele>
        <time>2014-11-11T13:49:19Z</time>
      </trkpt>
      <trkpt lat="45.7183" lon="6.17017">
        <ele>1488.4</ele>
        <time>2014-11-11T13:49:25Z</time>
      </trkpt>
      <trkpt lat="45.71828" lon="6.17012">
        <ele>1488.9</ele>
        <time>2014-11-11T13:49:31Z</time>
      </trkpt>
      <trkpt lat="45.71826" lon="6.17004">
        <ele>1489.9</ele>
        <time>2014-11-11T13:49:39Z</time>
      </trkpt>
      <trkpt lat="45.71824" lon="6.16996">
        <ele>1491.5</ele>
        <time>2014-11-11T13:49:47Z</time>
      </trkpt>
      <trkpt lat="45.71821" lon="6.16987">
        <ele>1493.1</ele>
        <time>2014-11-11T13:49:56Z</time>
      </trkpt>
      <trkpt lat="45.71821" lon="6.16979">
        <ele>1495.5</ele>
        <time>2014-11-11T13:50:04Z</time>
      </trkpt>
      <trkpt lat="45.71823" lon="6.16972">
        <ele>1497.8</ele>
        <time>2014-11-11T13:50:12Z</time>
      </trkpt>
      <trkpt lat="45.71826" lon="6.1697">
        <ele>1499.3</ele>
        <time>2014-11-11T13:50:18Z</time>
      </trkpt>
      <trkpt lat="45.71828" lon="6.16969">
        <ele>1500.5</ele>
        <time>2014-11-11T13:50:24Z</time>
      </trkpt>
      <trkpt lat="45.71831" lon="6.16968">
        <ele>1501.8</ele>
        <time>2014-11-11T13:50:31Z</time>
      </trkpt>
      <trkpt lat="45.71835" lon="6.16969">
        <ele>1502.9</ele>
        <time>2014-11-11T13:50:38Z</time>
      </trkpt>
      <trkpt lat="45.7184" lon="6.16969">
        <ele>1504.2</ele>
        <time>2014-11-11T13:50:45Z</time>
      </trkpt>
      <trkpt lat="45.71844" lon="6.16967">
        <ele>1506</ele>
        <time>2014-11-11T13:50:51Z</time>
      </trkpt>
      <trkpt lat="45.71849" lon="6.16969">
        <ele>1507.2</ele>
        <time>2014-11-11T13:50:58Z</time>
      </trkpt>
      <trkpt lat="45.71851" lon="6.16968">
        <ele>1508.1</ele>
        <time>2014-11-11T13:51:02Z</time>
      </trkpt>
      <trkpt lat="45.71854" lon="6.16966">
        <ele>1509.7</ele>
        <time>2014-11-11T13:51:06Z</time>
      </trkpt>
      <trkpt lat="45.71858" lon="6.16962">
        <ele>1512</ele>
        <time>2014-11-11T13:51:13Z</time>
      </trkpt>
      <trkpt lat="45.71861" lon="6.16961">
        <ele>1512.9</ele>
        <time>2014-11-11T13:51:18Z</time>
      </trkpt>
      <trkpt lat="45.71864" lon="6.16961">
        <ele>1514.1</ele>
        <time>2014-11-11T13:51:24Z</time>
      </trkpt>
      <trkpt lat="45.71868" lon="6.16958">
        <ele>1515.7</ele>
        <time>2014-11-11T13:51:31Z</time>
      </trkpt>
      <trkpt lat="45.71871" lon="6.16956">
        <ele>1516.6</ele>
        <time>2014-11-11T13:51:36Z</time>
      </trkpt>
      <trkpt lat="45.71875" lon="6.16953">
        <ele>1517.5</ele>
        <time>2014-11-11T13:51:42Z</time>
      </trkpt>
      <trkpt lat="45.71879" lon="6.16953">
        <ele>1517.1</ele>
        <time>2014-11-11T13:51:48Z</time>
      </trkpt>
      <trkpt lat="45.71883" lon="6.16952">
        <ele>1516.7</ele>
        <time>2014-11-11T13:51:53Z</time>
      </trkpt>
      <trkpt lat="45.71889" lon="6.16949">
        <ele>1515.8</ele>
        <time>2014-11-11T13:52:00Z</time>
      </trkpt>
      <trkpt lat="45.71884" lon="6.16946">
        <ele>1515.8</ele>
        <time>2014-11-11T13:52:06Z</time>
      </trkpt>
      <trkpt lat="45.71879" lon="6.16944">
        <ele>1516.1</ele>
        <time>2014-11-11T13:52:11Z</time>
      </trkpt>
      <trkpt lat="45.71874" lon="6.16943">
        <ele>1516.2</ele>
        <time>2014-11-11T13:52:15Z</time>
      </trkpt>
      <trkpt lat="45.71867" lon="6.16939">
        <ele>1514.3</ele>
        <time>2014-11-11T13:52:21Z</time>
      </trkpt>
      <trkpt lat="45.71856" lon="6.16934">
        <ele>1511.7</ele>
        <time>2014-11-11T13:52:30Z</time>
      </trkpt>
      <trkpt lat="45.7185" lon="6.16929">
        <ele>1510.6</ele>
        <time>2014-11-11T13:52:36Z</time>
      </trkpt>
      <trkpt lat="45.71845" lon="6.16923">
        <ele>1509.8</ele>
        <time>2014-11-11T13:52:41Z</time>
      </trkpt>
      <trkpt lat="45.7184" lon="6.16917">
        <ele>1509.4</ele>
        <time>2014-11-11T13:52:46Z</time>
      </trkpt>
      <trkpt lat="45.71836" lon="6.1691">
        <ele>1509.4</ele>
        <time>2014-11-11T13:52:52Z</time>
      </trkpt>
      <trkpt lat="45.71829" lon="6.16901">
        <ele>1509.5</ele>
        <time>2014-11-11T13:53:00Z</time>
      </trkpt>
      <trkpt lat="45.71823" lon="6.16894">
        <ele>1510.1</ele>
        <time>2014-11-11T13:53:06Z</time>
      </trkpt>
      <trkpt lat="45.71821" lon="6.1689">
        <ele>1510.5</ele>
        <time>2014-11-11T13:53:09Z</time>
      </trkpt>
      <trkpt lat="45.71817" lon="6.16886">
        <ele>1511.1</ele>
        <time>2014-11-11T13:53:15Z</time>
      </trkpt>
      <trkpt lat="45.71816" lon="6.16885">
        <ele>1511.3</ele>
        <time>2014-11-11T13:53:16Z</time>
      </trkpt>
      <trkpt lat="45.7181" lon="6.16877">
        <ele>1512.8</ele>
        <time>2014-11-11T13:53:23Z</time>
      </trkpt>
      <trkpt lat="45.71807" lon="6.16873">
        <ele>1512.8</ele>
        <time>2014-11-11T13:53:26Z</time>
      </trkpt>
      <trkpt lat="45.71802" lon="6.1687">
        <ele>1512.5</ele>
        <time>2014-11-11T13:53:31Z</time>
      </trkpt>
      <trkpt lat="45.71797" lon="6.16863">
        <ele>1511.5</ele>
        <time>2014-11-11T13:53:36Z</time>
      </trkpt>
      <trkpt lat="45.71793" lon="6.1686">
        <ele>1511.4</ele>
        <time>2014-11-11T13:53:42Z</time>
      </trkpt>
      <trkpt lat="45.71787" lon="6.16853">
        <ele>1510.2</ele>
        <time>2014-11-11T13:53:47Z</time>
      </trkpt>
      <trkpt lat="45.71782" lon="6.16847">
        <ele>1509.3</ele>
        <time>2014-11-11T13:53:52Z</time>
      </trkpt>
      <trkpt lat="45.71778" lon="6.16843">
        <ele>1508.8</ele>
        <time>2014-11-11T13:53:57Z</time>
      </trkpt>
      <trkpt lat="45.71773" lon="6.16837">
        <ele>1508.3</ele>
        <time>2014-11-11T13:54:03Z</time>
      </trkpt>
      <trkpt lat="45.71767" lon="6.16833">
        <ele>1508.3</ele>
        <time>2014-11-11T13:54:08Z</time>
      </trkpt>
      <trkpt lat="45.71763" lon="6.1683">
        <ele>1508.4</ele>
        <time>2014-11-11T13:54:12Z</time>
      </trkpt>
      <trkpt lat="45.71756" lon="6.16826">
        <ele>1508.8</ele>
        <time>2014-11-11T13:54:20Z</time>
      </trkpt>
      <trkpt lat="45.71752" lon="6.16822">
        <ele>1509.1</ele>
        <time>2014-11-11T13:54:24Z</time>
      </trkpt>
      <trkpt lat="45.71746" lon="6.1682">
        <ele>1509.7</ele>
        <time>2014-11-11T13:54:31Z</time>
      </trkpt>
      <trkpt lat="45.71741" lon="6.16816">
        <ele>1510.5</ele>
        <time>2014-11-11T13:54:37Z</time>
      </trkpt>
      <trkpt lat="45.71736" lon="6.16813">
        <ele>1511.4</ele>
        <time>2014-11-11T13:54:43Z</time>
      </trkpt>
      <trkpt lat="45.71728" lon="6.16809">
        <ele>1512.9</ele>
        <time>2014-11-11T13:54:51Z</time>
      </trkpt>
      <trkpt lat="45.71724" lon="6.16804">
        <ele>1514.1</ele>
        <time>2014-11-11T13:54:58Z</time>
      </trkpt>
      <trkpt lat="45.71719" lon="6.16802">
        <ele>1515.3</ele>
        <time>2014-11-11T13:55:04Z</time>
      </trkpt>
      <trkpt lat="45.71714" lon="6.16798">
        <ele>1516.8</ele>
        <time>2014-11-11T13:55:09Z</time>
      </trkpt>
      <trkpt lat="45.71709" lon="6.16794">
        <ele>1518.5</ele>
        <time>2014-11-11T13:55:14Z</time>
      </trkpt>
      <trkpt lat="45.71703" lon="6.16791">
        <ele>1518.5</ele>
        <time>2014-11-11T13:55:20Z</time>
      </trkpt>
      <trkpt lat="45.71697" lon="6.1679">
        <ele>1517.9</ele>
        <time>2014-11-11T13:55:28Z</time>
      </trkpt>
      <trkpt lat="45.71693" lon="6.16789">
        <ele>1517.3</ele>
        <time>2014-11-11T13:55:36Z</time>
      </trkpt>
      <trkpt lat="45.71692" lon="6.16788">
        <ele>1516.9</ele>
        <time>2014-11-11T13:55:43Z</time>
      </trkpt>
      <trkpt lat="45.71687" lon="6.16785">
        <ele>1515.6</ele>
        <time>2014-11-11T13:55:51Z</time>
      </trkpt>
      <trkpt lat="45.71682" lon="6.16782">
        <ele>1514.6</ele>
        <time>2014-11-11T13:55:58Z</time>
      </trkpt>
      <trkpt lat="45.71677" lon="6.16777">
        <ele>1513.1</ele>
        <time>2014-11-11T13:56:05Z</time>
      </trkpt>
      <trkpt lat="45.71672" lon="6.16771">
        <ele>1511.4</ele>
        <time>2014-11-11T13:56:11Z</time>
      </trkpt>
      <trkpt lat="45.71664" lon="6.16767">
        <ele>1510.8</ele>
        <time>2014-11-11T13:56:17Z</time>
      </trkpt>
      <trkpt lat="45.71657" lon="6.16763">
        <ele>1510.1</ele>
        <time>2014-11-11T13:56:23Z</time>
      </trkpt>
      <trkpt lat="45.71653" lon="6.16759">
        <ele>1509.5</ele>
        <time>2014-11-11T13:56:27Z</time>
      </trkpt>
      <trkpt lat="45.71645" lon="6.16755">
        <ele>1509.4</ele>
        <time>2014-11-11T13:56:36Z</time>
      </trkpt>
      <trkpt lat="45.71641" lon="6.16754">
        <ele>1509.5</ele>
        <time>2014-11-11T13:56:41Z</time>
      </trkpt>
      <trkpt lat="45.71634" lon="6.16751">
        <ele>1509.8</ele>
        <time>2014-11-11T13:56:47Z</time>
      </trkpt>
      <trkpt lat="45.71627" lon="6.16748">
        <ele>1510.1</ele>
        <time>2014-11-11T13:56:52Z</time>
      </trkpt>
      <trkpt lat="45.71621" lon="6.16744">
        <ele>1508.7</ele>
        <time>2014-11-11T13:56:59Z</time>
      </trkpt>
      <trkpt lat="45.71614" lon="6.16744">
        <ele>1506.3</ele>
        <time>2014-11-11T13:57:09Z</time>
      </trkpt>
      <trkpt lat="45.71607" lon="6.16742">
        <ele>1504.2</ele>
        <time>2014-11-11T13:57:16Z</time>
      </trkpt>
      <trkpt lat="45.71601" lon="6.16737">
        <ele>1502.2</ele>
        <time>2014-11-11T13:57:22Z</time>
      </trkpt>
      <trkpt lat="45.71591" lon="6.16733">
        <ele>1499.6</ele>
        <time>2014-11-11T13:57:30Z</time>
      </trkpt>
      <trkpt lat="45.71581" lon="6.16728">
        <ele>1497.2</ele>
        <time>2014-11-11T13:57:38Z</time>
      </trkpt>
      <trkpt lat="45.71575" lon="6.16722">
        <ele>1496.3</ele>
        <time>2014-11-11T13:57:44Z</time>
      </trkpt>
      <trkpt lat="45.71569" lon="6.16715">
        <ele>1495.9</ele>
        <time>2014-11-11T13:57:50Z</time>
      </trkpt>
      <trkpt lat="45.71565" lon="6.1671">
        <ele>1496.1</ele>
        <time>2014-11-11T13:57:54Z</time>
      </trkpt>
      <trkpt lat="45.71562" lon="6.16703">
        <ele>1495</ele>
        <time>2014-11-11T13:57:59Z</time>
      </trkpt>
      <trkpt lat="45.71561" lon="6.16699">
        <ele>1494.2</ele>
        <time>2014-11-11T13:58:03Z</time>
      </trkpt>
      <trkpt lat="45.71555" lon="6.16692">
        <ele>1492.7</ele>
        <time>2014-11-11T13:58:11Z</time>
      </trkpt>
      <trkpt lat="45.7155" lon="6.16685">
        <ele>1491.6</ele>
        <time>2014-11-11T13:58:18Z</time>
      </trkpt>
      <trkpt lat="45.71544" lon="6.1668">
        <ele>1490.7</ele>
        <time>2014-11-11T13:58:24Z</time>
      </trkpt>
      <trkpt lat="45.71541" lon="6.16668">
        <ele>1489.9</ele>
        <time>2014-11-11T13:58:30Z</time>
      </trkpt>
      <trkpt lat="45.71541" lon="6.16661">
        <ele>1489.6</ele>
        <time>2014-11-11T13:58:34Z</time>
      </trkpt>
      <trkpt lat="45.71538" lon="6.16651">
        <ele>1488.8</ele>
        <time>2014-11-11T13:58:40Z</time>
      </trkpt>
      <trkpt lat="45.71538" lon="6.16647">
        <ele>1488.7</ele>
        <time>2014-11-11T13:58:42Z</time>
      </trkpt>
      <trkpt lat="45.71539" lon="6.16645">
        <ele>1488.7</ele>
        <time>2014-11-11T13:58:44Z</time>
      </trkpt>
      <trkpt lat="45.71538" lon="6.16643">
        <ele>1488.6</ele>
        <time>2014-11-11T13:58:47Z</time>
      </trkpt>
      <trkpt lat="45.71532" lon="6.16636">
        <ele>1488.2</ele>
        <time>2014-11-11T13:58:52Z</time>
      </trkpt>
      <trkpt lat="45.71528" lon="6.16636">
        <ele>1488</ele>
        <time>2014-11-11T13:58:55Z</time>
      </trkpt>
      <trkpt lat="45.71522" lon="6.16634">
        <ele>1487.9</ele>
        <time>2014-11-11T13:59:01Z</time>
      </trkpt>
      <trkpt lat="45.71515" lon="6.16631">
        <ele>1488.1</ele>
        <time>2014-11-11T13:59:06Z</time>
      </trkpt>
      <trkpt lat="45.71512" lon="6.16627">
        <ele>1488.5</ele>
        <time>2014-11-11T13:59:09Z</time>
      </trkpt>
      <trkpt lat="45.71504" lon="6.1662">
        <ele>1487.5</ele>
        <time>2014-11-11T13:59:16Z</time>
      </trkpt>
      <trkpt lat="45.71497" lon="6.16616">
        <ele>1486.8</ele>
        <time>2014-11-11T13:59:22Z</time>
      </trkpt>
      <trkpt lat="45.71495" lon="6.16615">
        <ele>1486.6</ele>
        <time>2014-11-11T13:59:24Z</time>
      </trkpt>
      <trkpt lat="45.7149" lon="6.1661">
        <ele>1485.7</ele>
        <time>2014-11-11T13:59:31Z</time>
      </trkpt>
      <trkpt lat="45.71486" lon="6.16604">
        <ele>1484.8</ele>
        <time>2014-11-11T13:59:36Z</time>
      </trkpt>
      <trkpt lat="45.71485" lon="6.16603">
        <ele>1484.6</ele>
        <time>2014-11-11T13:59:37Z</time>
      </trkpt>
      <trkpt lat="45.71478" lon="6.16597">
        <ele>1484.3</ele>
        <time>2014-11-11T13:59:45Z</time>
      </trkpt>
      <trkpt lat="45.71477" lon="6.16596">
        <ele>1484.1</ele>
        <time>2014-11-11T13:59:46Z</time>
      </trkpt>
      <trkpt lat="45.7147" lon="6.16586">
        <ele>1483.5</ele>
        <time>2014-11-11T13:59:53Z</time>
      </trkpt>
      <trkpt lat="45.71464" lon="6.16581">
        <ele>1483.7</ele>
        <time>2014-11-11T13:59:59Z</time>
      </trkpt>
      <trkpt lat="45.71465" lon="6.16579">
        <ele>1483.4</ele>
        <time>2014-11-11T14:00:05Z</time>
      </trkpt>
      <trkpt lat="45.71459" lon="6.16577">
        <ele>1484</ele>
        <time>2014-11-11T14:00:19Z</time>
      </trkpt>
      <trkpt lat="45.71453" lon="6.16573">
        <ele>1483.9</ele>
        <time>2014-11-11T14:00:25Z</time>
      </trkpt>
      <trkpt lat="45.7145" lon="6.16572">
        <ele>1483.9</ele>
        <time>2014-11-11T14:00:28Z</time>
      </trkpt>
      <trkpt lat="45.71442" lon="6.16572">
        <ele>1484.2</ele>
        <time>2014-11-11T14:00:33Z</time>
      </trkpt>
      <trkpt lat="45.71437" lon="6.16568">
        <ele>1484.4</ele>
        <time>2014-11-11T14:00:40Z</time>
      </trkpt>
      <trkpt lat="45.71429" lon="6.16569">
        <ele>1484.8</ele>
        <time>2014-11-11T14:00:46Z</time>
      </trkpt>
      <trkpt lat="45.71428" lon="6.16569">
        <ele>1484.8</ele>
        <time>2014-11-11T14:00:47Z</time>
      </trkpt>
      <trkpt lat="45.71421" lon="6.16564">
        <ele>1485.7</ele>
        <time>2014-11-11T14:00:53Z</time>
      </trkpt>
      <trkpt lat="45.71412" lon="6.16561">
        <ele>1486.9</ele>
        <time>2014-11-11T14:01:00Z</time>
      </trkpt>
      <trkpt lat="45.71404" lon="6.16561">
        <ele>1487.6</ele>
        <time>2014-11-11T14:01:07Z</time>
      </trkpt>
      <trkpt lat="45.714" lon="6.16557">
        <ele>1489</ele>
        <time>2014-11-11T14:01:12Z</time>
      </trkpt>
      <trkpt lat="45.71393" lon="6.16553">
        <ele>1491</ele>
        <time>2014-11-11T14:01:18Z</time>
      </trkpt>
      <trkpt lat="45.71386" lon="6.1655">
        <ele>1493.2</ele>
        <time>2014-11-11T14:01:24Z</time>
      </trkpt>
      <trkpt lat="45.71382" lon="6.16548">
        <ele>1494.5</ele>
        <time>2014-11-11T14:01:27Z</time>
      </trkpt>
      <trkpt lat="45.71376" lon="6.16541">
        <ele>1497.7</ele>
        <time>2014-11-11T14:01:35Z</time>
      </trkpt>
      <trkpt lat="45.71372" lon="6.16539">
        <ele>1497.6</ele>
        <time>2014-11-11T14:01:42Z</time>
      </trkpt>
      <trkpt lat="45.71369" lon="6.16535">
        <ele>1496.8</ele>
        <time>2014-11-11T14:01:49Z</time>
      </trkpt>
      <trkpt lat="45.71365" lon="6.16531">
        <ele>1496.5</ele>
        <time>2014-11-11T14:01:53Z</time>
      </trkpt>
      <trkpt lat="45.71361" lon="6.16528">
        <ele>1496.5</ele>
        <time>2014-11-11T14:01:59Z</time>
      </trkpt>
      <trkpt lat="45.71358" lon="6.16526">
        <ele>1496.6</ele>
        <time>2014-11-11T14:02:04Z</time>
      </trkpt>
      <trkpt lat="45.71354" lon="6.16523">
        <ele>1496.9</ele>
        <time>2014-11-11T14:02:10Z</time>
      </trkpt>
      <trkpt lat="45.71348" lon="6.1652">
        <ele>1497.4</ele>
        <time>2014-11-11T14:02:16Z</time>
      </trkpt>
      <trkpt lat="45.71346" lon="6.16515">
        <ele>1497.6</ele>
        <time>2014-11-11T14:02:21Z</time>
      </trkpt>
      <trkpt lat="45.71347" lon="6.16509">
        <ele>1497.3</ele>
        <time>2014-11-11T14:02:25Z</time>
      </trkpt>
      <trkpt lat="45.71343" lon="6.16506">
        <ele>1498.1</ele>
        <time>2014-11-11T14:02:29Z</time>
      </trkpt>
      <trkpt lat="45.71337" lon="6.16501">
        <ele>1499.8</ele>
        <time>2014-11-11T14:02:35Z</time>
      </trkpt>
      <trkpt lat="45.71334" lon="6.16497">
        <ele>1500.6</ele>
        <time>2014-11-11T14:02:40Z</time>
      </trkpt>
      <trkpt lat="45.71328" lon="6.16491">
        <ele>1503.1</ele>
        <time>2014-11-11T14:02:47Z</time>
      </trkpt>
      <trkpt lat="45.71325" lon="6.1649">
        <ele>1504.1</ele>
        <time>2014-11-11T14:02:54Z</time>
      </trkpt>
      <trkpt lat="45.71323" lon="6.16488">
        <ele>1505</ele>
        <time>2014-11-11T14:02:59Z</time>
      </trkpt>
      <trkpt lat="45.7132" lon="6.16489">
        <ele>1506.1</ele>
        <time>2014-11-11T14:03:05Z</time>
      </trkpt>
      <trkpt lat="45.71318" lon="6.16489">
        <ele>1506.8</ele>
        <time>2014-11-11T14:03:11Z</time>
      </trkpt>
      <trkpt lat="45.71313" lon="6.16485">
        <ele>1509.3</ele>
        <time>2014-11-11T14:03:17Z</time>
      </trkpt>
      <trkpt lat="45.71311" lon="6.16482">
        <ele>1510.9</ele>
        <time>2014-11-11T14:03:23Z</time>
      </trkpt>
      <trkpt lat="45.71308" lon="6.16481">
        <ele>1512.1</ele>
        <time>2014-11-11T14:03:28Z</time>
      </trkpt>
      <trkpt lat="45.71305" lon="6.16477">
        <ele>1514.3</ele>
        <time>2014-11-11T14:03:34Z</time>
      </trkpt>
      <trkpt lat="45.71302" lon="6.16474">
        <ele>1516.4</ele>
        <time>2014-11-11T14:03:41Z</time>
      </trkpt>
      <trkpt lat="45.71298" lon="6.16473">
        <ele>1518.5</ele>
        <time>2014-11-11T14:03:48Z</time>
      </trkpt>
      <trkpt lat="45.71293" lon="6.1647">
        <ele>1521.9</ele>
        <time>2014-11-11T14:03:56Z</time>
      </trkpt>
      <trkpt lat="45.71289" lon="6.16468">
        <ele>1522.9</ele>
        <time>2014-11-11T14:04:01Z</time>
      </trkpt>
      <trkpt lat="45.71285" lon="6.16464">
        <ele>1523.8</ele>
        <time>2014-11-11T14:04:08Z</time>
      </trkpt>
      <trkpt lat="45.71281" lon="6.1646">
        <ele>1525</ele>
        <time>2014-11-11T14:04:14Z</time>
      </trkpt>
      <trkpt lat="45.71277" lon="6.16454">
        <ele>1524.3</ele>
        <time>2014-11-11T14:04:20Z</time>
      </trkpt>
      <trkpt lat="45.71274" lon="6.16453">
        <ele>1523.7</ele>
        <time>2014-11-11T14:04:24Z</time>
      </trkpt>
      <trkpt lat="45.71272" lon="6.1645">
        <ele>1523</ele>
        <time>2014-11-11T14:04:27Z</time>
      </trkpt>
      <trkpt lat="45.7127" lon="6.16448">
        <ele>1522.6</ele>
        <time>2014-11-11T14:04:30Z</time>
      </trkpt>
      <trkpt lat="45.71267" lon="6.16447">
        <ele>1522.4</ele>
        <time>2014-11-11T14:04:35Z</time>
      </trkpt>
      <trkpt lat="45.71265" lon="6.16447">
        <ele>1522.5</ele>
        <time>2014-11-11T14:04:40Z</time>
      </trkpt>
      <trkpt lat="45.71262" lon="6.16447">
        <ele>1522.6</ele>
        <time>2014-11-11T14:04:46Z</time>
      </trkpt>
      <trkpt lat="45.7126" lon="6.16445">
        <ele>1522.4</ele>
        <time>2014-11-11T14:04:52Z</time>
      </trkpt>
      <trkpt lat="45.71256" lon="6.16444">
        <ele>1522.4</ele>
        <time>2014-11-11T14:04:58Z</time>
      </trkpt>
      <trkpt lat="45.71253" lon="6.16444">
        <ele>1522.4</ele>
        <time>2014-11-11T14:05:03Z</time>
      </trkpt>
      <trkpt lat="45.7125" lon="6.16443">
        <ele>1522.6</ele>
        <time>2014-11-11T14:05:09Z</time>
      </trkpt>
      <trkpt lat="45.71247" lon="6.16442">
        <ele>1522.6</ele>
        <time>2014-11-11T14:05:13Z</time>
      </trkpt>
      <trkpt lat="45.71246" lon="6.16441">
        <ele>1522.6</ele>
        <time>2014-11-11T14:05:17Z</time>
      </trkpt>
      <trkpt lat="45.71244" lon="6.1644">
        <ele>1522.7</ele>
        <time>2014-11-11T14:05:23Z</time>
      </trkpt>
      <trkpt lat="45.71242" lon="6.16436">
        <ele>1522.5</ele>
        <time>2014-11-11T14:05:28Z</time>
      </trkpt>
      <trkpt lat="45.71239" lon="6.16433">
        <ele>1522.7</ele>
        <time>2014-11-11T14:05:34Z</time>
      </trkpt>
      <trkpt lat="45.71235" lon="6.1643">
        <ele>1523.2</ele>
        <time>2014-11-11T14:05:42Z</time>
      </trkpt>
      <trkpt lat="45.71233" lon="6.16427">
        <ele>1523.4</ele>
        <time>2014-11-11T14:05:48Z</time>
      </trkpt>
      <trkpt lat="45.7123" lon="6.16422">
        <ele>1524</ele>
        <time>2014-11-11T14:05:54Z</time>
      </trkpt>
      <trkpt lat="45.71228" lon="6.16418">
        <ele>1524.4</ele>
        <time>2014-11-11T14:06:00Z</time>
      </trkpt>
      <trkpt lat="45.71225" lon="6.16415">
        <ele>1525.2</ele>
        <time>2014-11-11T14:06:06Z</time>
      </trkpt>
      <trkpt lat="45.7122" lon="6.16414">
        <ele>1526.3</ele>
        <time>2014-11-11T14:06:13Z</time>
      </trkpt>
      <trkpt lat="45.71217" lon="6.16413">
        <ele>1527.2</ele>
        <time>2014-11-11T14:06:19Z</time>
      </trkpt>
      <trkpt lat="45.71213" lon="6.16411">
        <ele>1528.6</ele>
        <time>2014-11-11T14:06:26Z</time>
      </trkpt>
      <trkpt lat="45.71212" lon="6.16407">
        <ele>1529.4</ele>
        <time>2014-11-11T14:06:32Z</time>
      </trkpt>
      <trkpt lat="45.7121" lon="6.16406">
        <ele>1530.1</ele>
        <time>2014-11-11T14:06:37Z</time>
      </trkpt>
      <trkpt lat="45.71207" lon="6.16402">
        <ele>1530.7</ele>
        <time>2014-11-11T14:06:42Z</time>
      </trkpt>
      <trkpt lat="45.71202" lon="6.164">
        <ele>1530.4</ele>
        <time>2014-11-11T14:06:47Z</time>
      </trkpt>
      <trkpt lat="45.71199" lon="6.16396">
        <ele>1530.5</ele>
        <time>2014-11-11T14:06:52Z</time>
      </trkpt>
      <trkpt lat="45.71198" lon="6.16394">
        <ele>1530.6</ele>
        <time>2014-11-11T14:06:56Z</time>
      </trkpt>
      <trkpt lat="45.71195" lon="6.16393">
        <ele>1530.6</ele>
        <time>2014-11-11T14:07:01Z</time>
      </trkpt>
      <trkpt lat="45.71193" lon="6.16391">
        <ele>1530.5</ele>
        <time>2014-11-11T14:07:06Z</time>
      </trkpt>
      <trkpt lat="45.71192" lon="6.16386">
        <ele>1531.5</ele>
        <time>2014-11-11T14:07:11Z</time>
      </trkpt>
      <trkpt lat="45.71189" lon="6.1638">
        <ele>1532.8</ele>
        <time>2014-11-11T14:07:17Z</time>
      </trkpt>
      <trkpt lat="45.71188" lon="6.16376">
        <ele>1533.6</ele>
        <time>2014-11-11T14:07:21Z</time>
      </trkpt>
      <trkpt lat="45.71188" lon="6.1637">
        <ele>1532</ele>
        <time>2014-11-11T14:07:27Z</time>
      </trkpt>
      <trkpt lat="45.71187" lon="6.16367">
        <ele>1530.9</ele>
        <time>2014-11-11T14:07:35Z</time>
      </trkpt>
      <trkpt lat="45.71187" lon="6.16365">
        <ele>1530.4</ele>
        <time>2014-11-11T14:08:02Z</time>
      </trkpt>
      <trkpt lat="45.71185" lon="6.16364">
        <ele>1530.1</ele>
        <time>2014-11-11T14:08:12Z</time>
      </trkpt>
      <trkpt lat="45.71183" lon="6.16361">
        <ele>1528.9</ele>
        <time>2014-11-11T14:08:18Z</time>
      </trkpt>
      <trkpt lat="45.71179" lon="6.16356">
        <ele>1527.7</ele>
        <time>2014-11-11T14:08:23Z</time>
      </trkpt>
      <trkpt lat="45.71174" lon="6.16353">
        <ele>1527.5</ele>
        <time>2014-11-11T14:08:28Z</time>
      </trkpt>
      <trkpt lat="45.71173" lon="6.16353">
        <ele>1527.5</ele>
        <time>2014-11-11T14:08:30Z</time>
      </trkpt>
      <trkpt lat="45.71171" lon="6.1635">
        <ele>1527.1</ele>
        <time>2014-11-11T14:08:32Z</time>
      </trkpt>
      <trkpt lat="45.71168" lon="6.16349">
        <ele>1527.2</ele>
        <time>2014-11-11T14:08:35Z</time>
      </trkpt>
      <trkpt lat="45.71165" lon="6.16345">
        <ele>1526.9</ele>
        <time>2014-11-11T14:08:40Z</time>
      </trkpt>
      <trkpt lat="45.7116" lon="6.1634">
        <ele>1527.1</ele>
        <time>2014-11-11T14:08:46Z</time>
      </trkpt>
      <trkpt lat="45.71158" lon="6.16333">
        <ele>1526.6</ele>
        <time>2014-11-11T14:08:51Z</time>
      </trkpt>
      <trkpt lat="45.71154" lon="6.16327">
        <ele>1527.1</ele>
        <time>2014-11-11T14:08:57Z</time>
      </trkpt>
      <trkpt lat="45.71151" lon="6.16323">
        <ele>1527.7</ele>
        <time>2014-11-11T14:09:02Z</time>
      </trkpt>
      <trkpt lat="45.7115" lon="6.16318">
        <ele>1527.9</ele>
        <time>2014-11-11T14:09:06Z</time>
      </trkpt>
      <trkpt lat="45.71146" lon="6.16317">
        <ele>1529.2</ele>
        <time>2014-11-11T14:09:11Z</time>
      </trkpt>
      <trkpt lat="45.71142" lon="6.16317">
        <ele>1530.5</ele>
        <time>2014-11-11T14:09:17Z</time>
      </trkpt>
      <trkpt lat="45.71137" lon="6.16318">
        <ele>1532.3</ele>
        <time>2014-11-11T14:09:20Z</time>
      </trkpt>
      <trkpt lat="45.71131" lon="6.16314">
        <ele>1534.9</ele>
        <time>2014-11-11T14:09:27Z</time>
      </trkpt>
      <trkpt lat="45.71123" lon="6.16312">
        <ele>1538.2</ele>
        <time>2014-11-11T14:09:34Z</time>
      </trkpt>
      <trkpt lat="45.7112" lon="6.16309">
        <ele>1539.3</ele>
        <time>2014-11-11T14:09:37Z</time>
      </trkpt>
      <trkpt lat="45.71113" lon="6.16303">
        <ele>1541.9</ele>
        <time>2014-11-11T14:09:45Z</time>
      </trkpt>
      <trkpt lat="45.71113" lon="6.16301">
        <ele>1542.5</ele>
        <time>2014-11-11T14:09:49Z</time>
      </trkpt>
      <trkpt lat="45.71109" lon="6.16298">
        <ele>1544.1</ele>
        <time>2014-11-11T14:09:55Z</time>
      </trkpt>
      <trkpt lat="45.71104" lon="6.16295">
        <ele>1546.3</ele>
        <time>2014-11-11T14:10:01Z</time>
      </trkpt>
      <trkpt lat="45.711" lon="6.16291">
        <ele>1548.1</ele>
        <time>2014-11-11T14:10:06Z</time>
      </trkpt>
      <trkpt lat="45.71094" lon="6.1629">
        <ele>1549.7</ele>
        <time>2014-11-11T14:10:13Z</time>
      </trkpt>
      <trkpt lat="45.71094" lon="6.16283">
        <ele>1547.4</ele>
        <time>2014-11-11T14:10:19Z</time>
      </trkpt>
      <trkpt lat="45.71093" lon="6.16281">
        <ele>1546.5</ele>
        <time>2014-11-11T14:10:20Z</time>
      </trkpt>
      <trkpt lat="45.71092" lon="6.16276">
        <ele>1544.9</ele>
        <time>2014-11-11T14:10:25Z</time>
      </trkpt>
      <trkpt lat="45.71089" lon="6.16275">
        <ele>1546.1</ele>
        <time>2014-11-11T14:10:32Z</time>
      </trkpt>
      <trkpt lat="45.71085" lon="6.16276">
        <ele>1547.6</ele>
        <time>2014-11-11T14:10:38Z</time>
      </trkpt>
      <trkpt lat="45.71084" lon="6.16273">
        <ele>1546.9</ele>
        <time>2014-11-11T14:10:42Z</time>
      </trkpt>
      <trkpt lat="45.71084" lon="6.1627">
        <ele>1546</ele>
        <time>2014-11-11T14:10:47Z</time>
      </trkpt>
      <trkpt lat="45.7108" lon="6.16269">
        <ele>1547.4</ele>
        <time>2014-11-11T14:10:53Z</time>
      </trkpt>
      <trkpt lat="45.71078" lon="6.1627">
        <ele>1548.5</ele>
        <time>2014-11-11T14:10:58Z</time>
      </trkpt>
      <trkpt lat="45.71076" lon="6.16275">
        <ele>1551.1</ele>
        <time>2014-11-11T14:11:04Z</time>
      </trkpt>
      <trkpt lat="45.71072" lon="6.16276">
        <ele>1552.8</ele>
        <time>2014-11-11T14:11:09Z</time>
      </trkpt>
      <trkpt lat="45.71069" lon="6.16277">
        <ele>1554.4</ele>
        <time>2014-11-11T14:11:14Z</time>
      </trkpt>
      <trkpt lat="45.71068" lon="6.16279">
        <ele>1555.3</ele>
        <time>2014-11-11T14:11:22Z</time>
      </trkpt>
      <trkpt lat="45.71065" lon="6.16278">
        <ele>1555.7</ele>
        <time>2014-11-11T14:11:34Z</time>
      </trkpt>
      <trkpt lat="45.71062" lon="6.16275">
        <ele>1556.2</ele>
        <time>2014-11-11T14:11:38Z</time>
      </trkpt>
      <trkpt lat="45.71058" lon="6.16272">
        <ele>1556.7</ele>
        <time>2014-11-11T14:11:45Z</time>
      </trkpt>
      <trkpt lat="45.71056" lon="6.16271">
        <ele>1557.5</ele>
        <time>2014-11-11T14:11:51Z</time>
      </trkpt>
      <trkpt lat="45.71052" lon="6.16267">
        <ele>1557.8</ele>
        <time>2014-11-11T14:11:56Z</time>
      </trkpt>
      <trkpt lat="45.71052" lon="6.16263">
        <ele>1556.9</ele>
        <time>2014-11-11T14:12:01Z</time>
      </trkpt>
      <trkpt lat="45.7105" lon="6.1626">
        <ele>1556.8</ele>
        <time>2014-11-11T14:12:07Z</time>
      </trkpt>
      <trkpt lat="45.71045" lon="6.16258">
        <ele>1558.6</ele>
        <time>2014-11-11T14:12:15Z</time>
      </trkpt>
      <trkpt lat="45.71042" lon="6.16259">
        <ele>1560</ele>
        <time>2014-11-11T14:12:21Z</time>
      </trkpt>
      <trkpt lat="45.7104" lon="6.1626">
        <ele>1560.7</ele>
        <time>2014-11-11T14:12:26Z</time>
      </trkpt>
      <trkpt lat="45.71038" lon="6.16259">
        <ele>1561.1</ele>
        <time>2014-11-11T14:12:31Z</time>
      </trkpt>
      <trkpt lat="45.71036" lon="6.16259">
        <ele>1561.3</ele>
        <time>2014-11-11T14:12:38Z</time>
      </trkpt>
      <trkpt lat="45.71036" lon="6.16259">
        <ele>1561.4</ele>
        <time>2014-11-11T14:12:44Z</time>
      </trkpt>
      <trkpt lat="45.71033" lon="6.16256">
        <ele>1561.5</ele>
        <time>2014-11-11T14:12:55Z</time>
      </trkpt>
      <trkpt lat="45.71029" lon="6.16255">
        <ele>1562.1</ele>
        <time>2014-11-11T14:13:01Z</time>
      </trkpt>
      <trkpt lat="45.71028" lon="6.16253">
        <ele>1562.1</ele>
        <time>2014-11-11T14:13:08Z</time>
      </trkpt>
      <trkpt lat="45.71028" lon="6.1625">
        <ele>1561.5</ele>
        <time>2014-11-11T14:13:14Z</time>
      </trkpt>
      <trkpt lat="45.71027" lon="6.16247">
        <ele>1561.3</ele>
        <time>2014-11-11T14:13:21Z</time>
      </trkpt>
      <trkpt lat="45.71025" lon="6.16245">
        <ele>1561.6</ele>
        <time>2014-11-11T14:13:29Z</time>
      </trkpt>
      <trkpt lat="45.71022" lon="6.16243">
        <ele>1562.2</ele>
        <time>2014-11-11T14:13:34Z</time>
      </trkpt>
      <trkpt lat="45.71018" lon="6.16239">
        <ele>1562.9</ele>
        <time>2014-11-11T14:13:41Z</time>
      </trkpt>
      <trkpt lat="45.71015" lon="6.16239">
        <ele>1563.7</ele>
        <time>2014-11-11T14:13:47Z</time>
      </trkpt>
      <trkpt lat="45.71014" lon="6.16237">
        <ele>1563.7</ele>
        <time>2014-11-11T14:13:51Z</time>
      </trkpt>
      <trkpt lat="45.71011" lon="6.16236">
        <ele>1564.6</ele>
        <time>2014-11-11T14:13:55Z</time>
      </trkpt>
      <trkpt lat="45.7101" lon="6.16236">
        <ele>1564.9</ele>
        <time>2014-11-11T14:14:00Z</time>
      </trkpt>
      <trkpt lat="45.71007" lon="6.16233">
        <ele>1565.6</ele>
        <time>2014-11-11T14:14:06Z</time>
      </trkpt>
      <trkpt lat="45.71003" lon="6.1623">
        <ele>1566.8</ele>
        <time>2014-11-11T14:14:13Z</time>
      </trkpt>
      <trkpt lat="45.70999" lon="6.16225">
        <ele>1567.9</ele>
        <time>2014-11-11T14:14:19Z</time>
      </trkpt>
      <trkpt lat="45.70997" lon="6.16222">
        <ele>1568.6</ele>
        <time>2014-11-11T14:14:23Z</time>
      </trkpt>
      <trkpt lat="45.70996" lon="6.16218">
        <ele>1569.2</ele>
        <time>2014-11-11T14:14:27Z</time>
      </trkpt>
      <trkpt lat="45.70993" lon="6.16216">
        <ele>1570.2</ele>
        <time>2014-11-11T14:14:32Z</time>
      </trkpt>
      <trkpt lat="45.70991" lon="6.16216">
        <ele>1571.1</ele>
        <time>2014-11-11T14:14:38Z</time>
      </trkpt>
      <trkpt lat="45.70989" lon="6.16212">
        <ele>1571.8</ele>
        <time>2014-11-11T14:14:44Z</time>
      </trkpt>
      <trkpt lat="45.70986" lon="6.1621">
        <ele>1573.3</ele>
        <time>2014-11-11T14:14:50Z</time>
      </trkpt>
      <trkpt lat="45.70986" lon="6.16207">
        <ele>1572.1</ele>
        <time>2014-11-11T14:14:55Z</time>
      </trkpt>
      <trkpt lat="45.70985" lon="6.16204">
        <ele>1571.5</ele>
        <time>2014-11-11T14:14:59Z</time>
      </trkpt>
      <trkpt lat="45.70982" lon="6.16201">
        <ele>1570.7</ele>
        <time>2014-11-11T14:15:05Z</time>
      </trkpt>
      <trkpt lat="45.70978" lon="6.162">
        <ele>1571.9</ele>
        <time>2014-11-11T14:15:10Z</time>
      </trkpt>
      <trkpt lat="45.70977" lon="6.16197">
        <ele>1570.8</ele>
        <time>2014-11-11T14:15:14Z</time>
      </trkpt>
      <trkpt lat="45.70975" lon="6.16195">
        <ele>1570.3</ele>
        <time>2014-11-11T14:15:19Z</time>
      </trkpt>
      <trkpt lat="45.70974" lon="6.16192">
        <ele>1568.7</ele>
        <time>2014-11-11T14:15:23Z</time>
      </trkpt>
      <trkpt lat="45.70974" lon="6.16189">
        <ele>1567.5</ele>
        <time>2014-11-11T14:15:27Z</time>
      </trkpt>
      <trkpt lat="45.7097" lon="6.16187">
        <ele>1567.7</ele>
        <time>2014-11-11T14:15:31Z</time>
      </trkpt>
      <trkpt lat="45.70967" lon="6.16186">
        <ele>1569.1</ele>
        <time>2014-11-11T14:15:37Z</time>
      </trkpt>
      <trkpt lat="45.70964" lon="6.16184">
        <ele>1569.3</ele>
        <time>2014-11-11T14:15:41Z</time>
      </trkpt>
      <trkpt lat="45.70961" lon="6.16181">
        <ele>1569.1</ele>
        <time>2014-11-11T14:15:45Z</time>
      </trkpt>
      <trkpt lat="45.70959" lon="6.16179">
        <ele>1569.1</ele>
        <time>2014-11-11T14:15:51Z</time>
      </trkpt>
      <trkpt lat="45.70956" lon="6.16175">
        <ele>1567.8</ele>
        <time>2014-11-11T14:15:57Z</time>
      </trkpt>
      <trkpt lat="45.70953" lon="6.16174">
        <ele>1568.3</ele>
        <time>2014-11-11T14:16:03Z</time>
      </trkpt>
      <trkpt lat="45.70951" lon="6.1617">
        <ele>1567.1</ele>
        <time>2014-11-11T14:16:08Z</time>
      </trkpt>
      <trkpt lat="45.70949" lon="6.1617">
        <ele>1567.7</ele>
        <time>2014-11-11T14:16:12Z</time>
      </trkpt>
      <trkpt lat="45.70948" lon="6.16172">
        <ele>1569.4</ele>
        <time>2014-11-11T14:16:18Z</time>
      </trkpt>
      <trkpt lat="45.70945" lon="6.16173">
        <ele>1571.2</ele>
        <time>2014-11-11T14:16:22Z</time>
      </trkpt>
      <trkpt lat="45.70942" lon="6.16176">
        <ele>1573.9</ele>
        <time>2014-11-11T14:16:27Z</time>
      </trkpt>
      <trkpt lat="45.70939" lon="6.16174">
        <ele>1574.5</ele>
        <time>2014-11-11T14:16:31Z</time>
      </trkpt>
      <trkpt lat="45.70934" lon="6.16172">
        <ele>1575.3</ele>
        <time>2014-11-11T14:16:37Z</time>
      </trkpt>
      <trkpt lat="45.70931" lon="6.16168">
        <ele>1574.4</ele>
        <time>2014-11-11T14:16:42Z</time>
      </trkpt>
      <trkpt lat="45.70929" lon="6.16165">
        <ele>1574.2</ele>
        <time>2014-11-11T14:16:46Z</time>
      </trkpt>
      <trkpt lat="45.70927" lon="6.16164">
        <ele>1574.5</ele>
        <time>2014-11-11T14:16:50Z</time>
      </trkpt>
      <trkpt lat="45.70925" lon="6.16162">
        <ele>1574.7</ele>
        <time>2014-11-11T14:16:56Z</time>
      </trkpt>
      <trkpt lat="45.70924" lon="6.16164">
        <ele>1575.9</ele>
        <time>2014-11-11T14:17:19Z</time>
      </trkpt>
      <trkpt lat="45.70924" lon="6.16166">
        <ele>1577</ele>
        <time>2014-11-11T14:17:31Z</time>
      </trkpt>
      <trkpt lat="45.70924" lon="6.16166">
        <ele>1576.7</ele>
        <time>2014-11-11T14:17:36Z</time>
      </trkpt>
      <trkpt lat="45.70924" lon="6.16165">
        <ele>1576.4</ele>
        <time>2014-11-11T14:17:47Z</time>
      </trkpt>
      <trkpt lat="45.70923" lon="6.16164">
        <ele>1576.3</ele>
        <time>2014-11-11T14:17:53Z</time>
      </trkpt>
      <trkpt lat="45.70922" lon="6.16158">
        <ele>1574.4</ele>
        <time>2014-11-11T14:17:59Z</time>
      </trkpt>
      <trkpt lat="45.7092" lon="6.16156">
        <ele>1574.7</ele>
        <time>2014-11-11T14:18:02Z</time>
      </trkpt>
      <trkpt lat="45.70915" lon="6.16156">
        <ele>1577</ele>
        <time>2014-11-11T14:18:08Z</time>
      </trkpt>
      <trkpt lat="45.70911" lon="6.16154">
        <ele>1578.4</ele>
        <time>2014-11-11T14:18:14Z</time>
      </trkpt>
      <trkpt lat="45.70907" lon="6.16153">
        <ele>1580.1</ele>
        <time>2014-11-11T14:18:20Z</time>
      </trkpt>
      <trkpt lat="45.70904" lon="6.16155">
        <ele>1581.9</ele>
        <time>2014-11-11T14:18:25Z</time>
      </trkpt>
      <trkpt lat="45.70902" lon="6.16158">
        <ele>1584.4</ele>
        <time>2014-11-11T14:18:30Z</time>
      </trkpt>
      <trkpt lat="45.70898" lon="6.16159">
        <ele>1586.1</ele>
        <time>2014-11-11T14:18:35Z</time>
      </trkpt>
      <trkpt lat="45.70896" lon="6.16159">
        <ele>1587.2</ele>
        <time>2014-11-11T14:18:38Z</time>
      </trkpt>
      <trkpt lat="45.70894" lon="6.16157">
        <ele>1587.9</ele>
        <time>2014-11-11T14:18:43Z</time>
      </trkpt>
      <trkpt lat="45.70891" lon="6.16157">
        <ele>1589.1</ele>
        <time>2014-11-11T14:18:49Z</time>
      </trkpt>
      <trkpt lat="45.70886" lon="6.16155">
        <ele>1590.8</ele>
        <time>2014-11-11T14:18:56Z</time>
      </trkpt>
      <trkpt lat="45.70883" lon="6.16152">
        <ele>1591.9</ele>
        <time>2014-11-11T14:19:02Z</time>
      </trkpt>
      <trkpt lat="45.7088" lon="6.16151">
        <ele>1593.2</ele>
        <time>2014-11-11T14:19:08Z</time>
      </trkpt>
      <trkpt lat="45.70879" lon="6.16149">
        <ele>1593.5</ele>
        <time>2014-11-11T14:19:14Z</time>
      </trkpt>
      <trkpt lat="45.70877" lon="6.16145">
        <ele>1593.5</ele>
        <time>2014-11-11T14:19:20Z</time>
      </trkpt>
      <trkpt lat="45.70873" lon="6.16144">
        <ele>1594.5</ele>
        <time>2014-11-11T14:19:25Z</time>
      </trkpt>
      <trkpt lat="45.7087" lon="6.16145">
        <ele>1595.6</ele>
        <time>2014-11-11T14:19:31Z</time>
      </trkpt>
      <trkpt lat="45.70866" lon="6.16142">
        <ele>1596.3</ele>
        <time>2014-11-11T14:19:36Z</time>
      </trkpt>
      <trkpt lat="45.70864" lon="6.16139">
        <ele>1596.3</ele>
        <time>2014-11-11T14:19:41Z</time>
      </trkpt>
      <trkpt lat="45.70862" lon="6.16136">
        <ele>1596.5</ele>
        <time>2014-11-11T14:19:47Z</time>
      </trkpt>
      <trkpt lat="45.70862" lon="6.16131">
        <ele>1595.9</ele>
        <time>2014-11-11T14:19:54Z</time>
      </trkpt>
      <trkpt lat="45.7086" lon="6.16127">
        <ele>1596.3</ele>
        <time>2014-11-11T14:19:59Z</time>
      </trkpt>
      <trkpt lat="45.70858" lon="6.16125">
        <ele>1597</ele>
        <time>2014-11-11T14:20:05Z</time>
      </trkpt>
      <trkpt lat="45.70853" lon="6.16126">
        <ele>1598.8</ele>
        <time>2014-11-11T14:20:13Z</time>
      </trkpt>
      <trkpt lat="45.70851" lon="6.16125">
        <ele>1599.2</ele>
        <time>2014-11-11T14:20:18Z</time>
      </trkpt>
      <trkpt lat="45.70849" lon="6.16121">
        <ele>1597.9</ele>
        <time>2014-11-11T14:20:26Z</time>
      </trkpt>
      <trkpt lat="45.70848" lon="6.16118">
        <ele>1596</ele>
        <time>2014-11-11T14:20:32Z</time>
      </trkpt>
      <trkpt lat="45.70847" lon="6.16114">
        <ele>1594</ele>
        <time>2014-11-11T14:20:38Z</time>
      </trkpt>
      <trkpt lat="45.70847" lon="6.16111">
        <ele>1592</ele>
        <time>2014-11-11T14:20:42Z</time>
      </trkpt>
      <trkpt lat="45.70846" lon="6.16107">
        <ele>1589.5</ele>
        <time>2014-11-11T14:20:48Z</time>
      </trkpt>
      <trkpt lat="45.70845" lon="6.16104">
        <ele>1587.9</ele>
        <time>2014-11-11T14:20:53Z</time>
      </trkpt>
      <trkpt lat="45.70843" lon="6.16103">
        <ele>1588.2</ele>
        <time>2014-11-11T14:20:58Z</time>
      </trkpt>
      <trkpt lat="45.70842" lon="6.161">
        <ele>1587.3</ele>
        <time>2014-11-11T14:21:04Z</time>
      </trkpt>
      <trkpt lat="45.7084" lon="6.16099">
        <ele>1587.2</ele>
        <time>2014-11-11T14:21:10Z</time>
      </trkpt>
      <trkpt lat="45.70838" lon="6.16098">
        <ele>1587.2</ele>
        <time>2014-11-11T14:21:16Z</time>
      </trkpt>
      <trkpt lat="45.70835" lon="6.16098">
        <ele>1588.7</ele>
        <time>2014-11-11T14:21:22Z</time>
      </trkpt>
      <trkpt lat="45.70832" lon="6.16095">
        <ele>1587.9</ele>
        <time>2014-11-11T14:21:27Z</time>
      </trkpt>
      <trkpt lat="45.70828" lon="6.16092">
        <ele>1588.1</ele>
        <time>2014-11-11T14:21:34Z</time>
      </trkpt>
      <trkpt lat="45.70826" lon="6.16091">
        <ele>1588.4</ele>
        <time>2014-11-11T14:21:39Z</time>
      </trkpt>
      <trkpt lat="45.70824" lon="6.16091">
        <ele>1589.6</ele>
        <time>2014-11-11T14:21:44Z</time>
      </trkpt>
      <trkpt lat="45.70819" lon="6.16091">
        <ele>1591.3</ele>
        <time>2014-11-11T14:21:51Z</time>
      </trkpt>
      <trkpt lat="45.70816" lon="6.16092">
        <ele>1593.5</ele>
        <time>2014-11-11T14:21:56Z</time>
      </trkpt>
      <trkpt lat="45.70813" lon="6.16092">
        <ele>1594.9</ele>
        <time>2014-11-11T14:22:01Z</time>
      </trkpt>
      <trkpt lat="45.7081" lon="6.16089">
        <ele>1594.9</ele>
        <time>2014-11-11T14:22:07Z</time>
      </trkpt>
      <trkpt lat="45.70808" lon="6.16085">
        <ele>1593.4</ele>
        <time>2014-11-11T14:22:14Z</time>
      </trkpt>
      <trkpt lat="45.70805" lon="6.16084">
        <ele>1594.1</ele>
        <time>2014-11-11T14:22:20Z</time>
      </trkpt>
      <trkpt lat="45.70802" lon="6.16085">
        <ele>1596.4</ele>
        <time>2014-11-11T14:22:25Z</time>
      </trkpt>
      <trkpt lat="45.70798" lon="6.16086">
        <ele>1598.7</ele>
        <time>2014-11-11T14:22:33Z</time>
      </trkpt>
      <trkpt lat="45.70793" lon="6.16084">
        <ele>1600.5</ele>
        <time>2014-11-11T14:22:39Z</time>
      </trkpt>
      <trkpt lat="45.70787" lon="6.16082">
        <ele>1600.7</ele>
        <time>2014-11-11T14:22:46Z</time>
      </trkpt>
      <trkpt lat="45.70784" lon="6.16082">
        <ele>1601.2</ele>
        <time>2014-11-11T14:22:50Z</time>
      </trkpt>
      <trkpt lat="45.70784" lon="6.16082">
        <ele>1601.2</ele>
        <time>2014-11-11T14:22:51Z</time>
      </trkpt>
      <trkpt lat="45.70784" lon="6.16082">
        <ele>1601.2</ele>
        <time>2014-11-11T14:22:52Z</time>
      </trkpt>
      <trkpt lat="45.70783" lon="6.16082">
        <ele>1601.3</ele>
        <time>2014-11-11T14:22:53Z</time>
      </trkpt>
      <trkpt lat="45.70783" lon="6.16081">
        <ele>1601.3</ele>
        <time>2014-11-11T14:22:54Z</time>
      </trkpt>
      <trkpt lat="45.70779" lon="6.1608">
        <ele>1601.6</ele>
        <time>2014-11-11T14:22:57Z</time>
      </trkpt>
      <trkpt lat="45.70776" lon="6.16078">
        <ele>1600.9</ele>
        <time>2014-11-11T14:23:02Z</time>
      </trkpt>
      <trkpt lat="45.70774" lon="6.16076">
        <ele>1600.7</ele>
        <time>2014-11-11T14:23:06Z</time>
      </trkpt>
      <trkpt lat="45.70771" lon="6.16073">
        <ele>1600.2</ele>
        <time>2014-11-11T14:23:11Z</time>
      </trkpt>
      <trkpt lat="45.7077" lon="6.16073">
        <ele>1600.2</ele>
        <time>2014-11-11T14:23:16Z</time>
      </trkpt>
      <trkpt lat="45.70769" lon="6.16073">
        <ele>1600.6</ele>
        <time>2014-11-11T14:23:22Z</time>
      </trkpt>
      <trkpt lat="45.70768" lon="6.16075">
        <ele>1601.6</ele>
        <time>2014-11-11T14:23:27Z</time>
      </trkpt>
      <trkpt lat="45.70764" lon="6.16074">
        <ele>1602.3</ele>
        <time>2014-11-11T14:23:34Z</time>
      </trkpt>
      <trkpt lat="45.7076" lon="6.16074">
        <ele>1603.1</ele>
        <time>2014-11-11T14:23:39Z</time>
      </trkpt>
      <trkpt lat="45.70755" lon="6.16073">
        <ele>1603.8</ele>
        <time>2014-11-11T14:23:46Z</time>
      </trkpt>
      <trkpt lat="45.70753" lon="6.16071">
        <ele>1603.7</ele>
        <time>2014-11-11T14:23:51Z</time>
      </trkpt>
      <trkpt lat="45.70749" lon="6.16069">
        <ele>1604.1</ele>
        <time>2014-11-11T14:23:58Z</time>
      </trkpt>
      <trkpt lat="45.70747" lon="6.16068">
        <ele>1604.2</ele>
        <time>2014-11-11T14:24:02Z</time>
      </trkpt>
      <trkpt lat="45.70746" lon="6.16067">
        <ele>1604.2</ele>
        <time>2014-11-11T14:24:07Z</time>
      </trkpt>
      <trkpt lat="45.70743" lon="6.16064">
        <ele>1604.4</ele>
        <time>2014-11-11T14:24:14Z</time>
      </trkpt>
      <trkpt lat="45.70738" lon="6.16061">
        <ele>1604.7</ele>
        <time>2014-11-11T14:24:21Z</time>
      </trkpt>
      <trkpt lat="45.70734" lon="6.16058">
        <ele>1605.4</ele>
        <time>2014-11-11T14:24:28Z</time>
      </trkpt>
      <trkpt lat="45.70731" lon="6.16058">
        <ele>1606.2</ele>
        <time>2014-11-11T14:24:33Z</time>
      </trkpt>
      <trkpt lat="45.70726" lon="6.16058">
        <ele>1607.8</ele>
        <time>2014-11-11T14:24:42Z</time>
      </trkpt>
      <trkpt lat="45.7072" lon="6.16058">
        <ele>1609.5</ele>
        <time>2014-11-11T14:24:47Z</time>
      </trkpt>
      <trkpt lat="45.70718" lon="6.16058">
        <ele>1610.2</ele>
        <time>2014-11-11T14:24:49Z</time>
      </trkpt>
      <trkpt lat="45.70712" lon="6.16056">
        <ele>1611.9</ele>
        <time>2014-11-11T14:24:55Z</time>
      </trkpt>
      <trkpt lat="45.70711" lon="6.16056">
        <ele>1612.4</ele>
        <time>2014-11-11T14:24:57Z</time>
      </trkpt>
      <trkpt lat="45.70704" lon="6.1606">
        <ele>1614.6</ele>
        <time>2014-11-11T14:25:04Z</time>
      </trkpt>
      <trkpt lat="45.70701" lon="6.1606">
        <ele>1615.3</ele>
        <time>2014-11-11T14:25:08Z</time>
      </trkpt>
      <trkpt lat="45.70698" lon="6.16059">
        <ele>1615.9</ele>
        <time>2014-11-11T14:25:12Z</time>
      </trkpt>
      <trkpt lat="45.70696" lon="6.16058">
        <ele>1616.4</ele>
        <time>2014-11-11T14:25:18Z</time>
      </trkpt>
      <trkpt lat="45.70689" lon="6.16056">
        <ele>1617.9</ele>
        <time>2014-11-11T14:25:25Z</time>
      </trkpt>
      <trkpt lat="45.70685" lon="6.16057">
        <ele>1618.9</ele>
        <time>2014-11-11T14:25:31Z</time>
      </trkpt>
      <trkpt lat="45.7068" lon="6.16058">
        <ele>1620</ele>
        <time>2014-11-11T14:25:37Z</time>
      </trkpt>
      <trkpt lat="45.70675" lon="6.16056">
        <ele>1621.4</ele>
        <time>2014-11-11T14:25:43Z</time>
      </trkpt>
      <trkpt lat="45.70669" lon="6.16054">
        <ele>1622.9</ele>
        <time>2014-11-11T14:25:50Z</time>
      </trkpt>
      <trkpt lat="45.70666" lon="6.16053">
        <ele>1623.7</ele>
        <time>2014-11-11T14:25:55Z</time>
      </trkpt>
      <trkpt lat="45.70664" lon="6.16053">
        <ele>1624.5</ele>
        <time>2014-11-11T14:26:01Z</time>
      </trkpt>
      <trkpt lat="45.70661" lon="6.1605">
        <ele>1625.4</ele>
        <time>2014-11-11T14:26:07Z</time>
      </trkpt>
      <trkpt lat="45.70659" lon="6.1605">
        <ele>1626</ele>
        <time>2014-11-11T14:26:13Z</time>
      </trkpt>
      <trkpt lat="45.70655" lon="6.16048">
        <ele>1627.5</ele>
        <time>2014-11-11T14:26:19Z</time>
      </trkpt>
      <trkpt lat="45.7065" lon="6.16045">
        <ele>1629.3</ele>
        <time>2014-11-11T14:26:26Z</time>
      </trkpt>
      <trkpt lat="45.70649" lon="6.16043">
        <ele>1629.9</ele>
        <time>2014-11-11T14:26:32Z</time>
      </trkpt>
      <trkpt lat="45.70648" lon="6.16043">
        <ele>1630.2</ele>
        <time>2014-11-11T14:26:38Z</time>
      </trkpt>
      <trkpt lat="45.70648" lon="6.16042">
        <ele>1630.7</ele>
        <time>2014-11-11T14:26:43Z</time>
      </trkpt>
      <trkpt lat="45.70647" lon="6.16042">
        <ele>1630.9</ele>
        <time>2014-11-11T14:26:49Z</time>
      </trkpt>
      <trkpt lat="45.70646" lon="6.16042">
        <ele>1631.3</ele>
        <time>2014-11-11T14:26:57Z</time>
      </trkpt>
      <trkpt lat="45.70644" lon="6.16042">
        <ele>1631.7</ele>
        <time>2014-11-11T14:27:03Z</time>
      </trkpt>
      <trkpt lat="45.70644" lon="6.16043">
        <ele>1631.4</ele>
        <time>2014-11-11T14:27:14Z</time>
      </trkpt>
      <trkpt lat="45.70644" lon="6.16045">
        <ele>1631.1</ele>
        <time>2014-11-11T14:27:20Z</time>
      </trkpt>
      <trkpt lat="45.70644" lon="6.16043">
        <ele>1631.6</ele>
        <time>2014-11-11T14:27:27Z</time>
      </trkpt>
      <trkpt lat="45.70643" lon="6.16043">
        <ele>1631.8</ele>
        <time>2014-11-11T14:27:33Z</time>
      </trkpt>
      <trkpt lat="45.70644" lon="6.16041">
        <ele>1631.7</ele>
        <time>2014-11-11T14:27:38Z</time>
      </trkpt>
      <trkpt lat="45.70645" lon="6.16043">
        <ele>1631.5</ele>
        <time>2014-11-11T14:27:47Z</time>
      </trkpt>
      <trkpt lat="45.70643" lon="6.16044">
        <ele>1631.9</ele>
        <time>2014-11-11T14:27:53Z</time>
      </trkpt>
      <trkpt lat="45.70639" lon="6.16044">
        <ele>1633</ele>
        <time>2014-11-11T14:27:57Z</time>
      </trkpt>
      <trkpt lat="45.70637" lon="6.16043">
        <ele>1633.7</ele>
        <time>2014-11-11T14:28:02Z</time>
      </trkpt>
      <trkpt lat="45.70635" lon="6.16043">
        <ele>1634.4</ele>
        <time>2014-11-11T14:28:08Z</time>
      </trkpt>
      <trkpt lat="45.70634" lon="6.16043">
        <ele>1635</ele>
        <time>2014-11-11T14:28:12Z</time>
      </trkpt>
      <trkpt lat="45.70634" lon="6.16043">
        <ele>1635</ele>
        <time>2014-11-11T14:28:12Z</time>
      </trkpt>
      <trkpt lat="45.70633" lon="6.16043">
        <ele>1635.2</ele>
        <time>2014-11-11T14:28:14Z</time>
      </trkpt>
      <trkpt lat="45.70633" lon="6.16043">
        <ele>1635.2</ele>
        <time>2014-11-11T14:28:15Z</time>
      </trkpt>
      <trkpt lat="45.70633" lon="6.16043">
        <ele>1635.2</ele>
        <time>2014-11-11T14:28:16Z</time>
      </trkpt>
      <trkpt lat="45.70633" lon="6.16043">
        <ele>1635.2</ele>
        <time>2014-11-11T14:28:17Z</time>
      </trkpt>
      <trkpt lat="45.70633" lon="6.16043">
        <ele>1635.3</ele>
        <time>2014-11-11T14:28:18Z</time>
      </trkpt>
      <trkpt lat="45.70629" lon="6.16041">
        <ele>1636.4</ele>
        <time>2014-11-11T14:28:23Z</time>
      </trkpt>
      <trkpt lat="45.70626" lon="6.16041">
        <ele>1637.4</ele>
        <time>2014-11-11T14:28:29Z</time>
      </trkpt>
      <trkpt lat="45.70624" lon="6.16043">
        <ele>1637.7</ele>
        <time>2014-11-11T14:28:35Z</time>
      </trkpt>
      <trkpt lat="45.7062" lon="6.16044">
        <ele>1637.2</ele>
        <time>2014-11-11T14:28:42Z</time>
      </trkpt>
      <trkpt lat="45.70619" lon="6.16043">
        <ele>1637.5</ele>
        <time>2014-11-11T14:28:47Z</time>
      </trkpt>
      <trkpt lat="45.70619" lon="6.16042">
        <ele>1637.5</ele>
        <time>2014-11-11T14:28:50Z</time>
      </trkpt>
      <trkpt lat="45.70619" lon="6.16042">
        <ele>1637.5</ele>
        <time>2014-11-11T14:28:51Z</time>
      </trkpt>
      <trkpt lat="45.70619" lon="6.16042">
        <ele>1637.5</ele>
        <time>2014-11-11T14:29:56Z</time>
      </trkpt>
      <trkpt lat="45.70612" lon="6.16029">
        <ele>1632.8</ele>
        <time>2014-11-11T14:29:57Z</time>
      </trkpt>
      <trkpt lat="45.70612" lon="6.16029">
        <ele>1632.7</ele>
        <time>2014-11-11T14:29:58Z</time>
      </trkpt>
      <trkpt lat="45.7061" lon="6.16026">
        <ele>1631.7</ele>
        <time>2014-11-11T14:30:08Z</time>
      </trkpt>
      <trkpt lat="45.70611" lon="6.16026">
        <ele>1631.7</ele>
        <time>2014-11-11T14:30:13Z</time>
      </trkpt>
      <trkpt lat="45.70612" lon="6.16021">
        <ele>1630.1</ele>
        <time>2014-11-11T14:30:25Z</time>
      </trkpt>
      <trkpt lat="45.70608" lon="6.16023">
        <ele>1630.7</ele>
        <time>2014-11-11T14:30:31Z</time>
      </trkpt>
      <trkpt lat="45.70606" lon="6.16025">
        <ele>1631.2</ele>
        <time>2014-11-11T14:30:36Z</time>
      </trkpt>
      <trkpt lat="45.70603" lon="6.16025">
        <ele>1631.1</ele>
        <time>2014-11-11T14:30:40Z</time>
      </trkpt>
      <trkpt lat="45.70604" lon="6.16024">
        <ele>1630.8</ele>
        <time>2014-11-11T14:30:42Z</time>
      </trkpt>
      <trkpt lat="45.70603" lon="6.16026">
        <ele>1631.7</ele>
        <time>2014-11-11T14:30:46Z</time>
      </trkpt>
      <trkpt lat="45.70602" lon="6.16025">
        <ele>1631.1</ele>
        <time>2014-11-11T14:30:52Z</time>
      </trkpt>
      <trkpt lat="45.70601" lon="6.16024">
        <ele>1630.9</ele>
        <time>2014-11-11T14:30:57Z</time>
      </trkpt>
      <trkpt lat="45.70596" lon="6.16023">
        <ele>1630.2</ele>
        <time>2014-11-11T14:31:04Z</time>
      </trkpt>
      <trkpt lat="45.70592" lon="6.16021">
        <ele>1629.5</ele>
        <time>2014-11-11T14:31:11Z</time>
      </trkpt>
      <trkpt lat="45.70589" lon="6.1602">
        <ele>1628.8</ele>
        <time>2014-11-11T14:31:16Z</time>
      </trkpt>
      <trkpt lat="45.70589" lon="6.16017">
        <ele>1627.9</ele>
        <time>2014-11-11T14:31:20Z</time>
      </trkpt>
      <trkpt lat="45.70589" lon="6.16016">
        <ele>1627.4</ele>
        <time>2014-11-11T14:31:27Z</time>
      </trkpt>
      <trkpt lat="45.70588" lon="6.16014">
        <ele>1626.8</ele>
        <time>2014-11-11T14:31:34Z</time>
      </trkpt>
      <trkpt lat="45.70587" lon="6.16011">
        <ele>1625.9</ele>
        <time>2014-11-11T14:31:42Z</time>
      </trkpt>
      <trkpt lat="45.70585" lon="6.1601">
        <ele>1625.2</ele>
        <time>2014-11-11T14:31:50Z</time>
      </trkpt>
      <trkpt lat="45.70583" lon="6.1601">
        <ele>1625.3</ele>
        <time>2014-11-11T14:31:59Z</time>
      </trkpt>
      <trkpt lat="45.70582" lon="6.1601">
        <ele>1625.4</ele>
        <time>2014-11-11T14:32:07Z</time>
      </trkpt>
      <trkpt lat="45.70581" lon="6.1601">
        <ele>1625.2</ele>
        <time>2014-11-11T14:32:16Z</time>
      </trkpt>
      <trkpt lat="45.7058" lon="6.1601">
        <ele>1625.1</ele>
        <time>2014-11-11T14:32:23Z</time>
      </trkpt>
      <trkpt lat="45.7058" lon="6.16008">
        <ele>1624.6</ele>
        <time>2014-11-11T14:32:29Z</time>
      </trkpt>
      <trkpt lat="45.70579" lon="6.16005">
        <ele>1623.6</ele>
        <time>2014-11-11T14:32:37Z</time>
      </trkpt>
      <trkpt lat="45.70577" lon="6.16005">
        <ele>1623.4</ele>
        <time>2014-11-11T14:32:44Z</time>
      </trkpt>
      <trkpt lat="45.70576" lon="6.16003">
        <ele>1622.6</ele>
        <time>2014-11-11T14:32:52Z</time>
      </trkpt>
      <trkpt lat="45.70574" lon="6.16002">
        <ele>1622.3</ele>
        <time>2014-11-11T14:33:00Z</time>
      </trkpt>
      <trkpt lat="45.7057" lon="6.15999">
        <ele>1621.1</ele>
        <time>2014-11-11T14:33:08Z</time>
      </trkpt>
      <trkpt lat="45.70567" lon="6.15999">
        <ele>1621</ele>
        <time>2014-11-11T14:33:15Z</time>
      </trkpt>
      <trkpt lat="45.70565" lon="6.15998">
        <ele>1620.8</ele>
        <time>2014-11-11T14:33:22Z</time>
      </trkpt>
      <trkpt lat="45.70564" lon="6.15998">
        <ele>1620.7</ele>
        <time>2014-11-11T14:33:28Z</time>
      </trkpt>
      <trkpt lat="45.70565" lon="6.15998">
        <ele>1620.7</ele>
        <time>2014-11-11T14:33:43Z</time>
      </trkpt>
      <trkpt lat="45.70566" lon="6.15997">
        <ele>1620.4</ele>
        <time>2014-11-11T14:34:07Z</time>
      </trkpt>
      <trkpt lat="45.70566" lon="6.15997">
        <ele>1620.3</ele>
        <time>2014-11-11T14:34:17Z</time>
      </trkpt>
      <trkpt lat="45.70566" lon="6.15997">
        <ele>1620.3</ele>
        <time>2014-11-11T14:34:24Z</time>
      </trkpt>
      <trkpt lat="45.70566" lon="6.15996">
        <ele>1620.1</ele>
        <time>2014-11-11T14:34:32Z</time>
      </trkpt>
      <trkpt lat="45.70565" lon="6.15995">
        <ele>1619.8</ele>
        <time>2014-11-11T14:34:44Z</time>
      </trkpt>
      <trkpt lat="45.70565" lon="6.15996">
        <ele>1620.1</ele>
        <time>2014-11-11T14:34:51Z</time>
      </trkpt>
      <trkpt lat="45.70566" lon="6.15996">
        <ele>1619.9</ele>
        <time>2014-11-11T14:35:01Z</time>
      </trkpt>
      <trkpt lat="45.70566" lon="6.15996">
        <ele>1619.9</ele>
        <time>2014-11-11T14:35:08Z</time>
      </trkpt>
      <trkpt lat="45.70565" lon="6.15995">
        <ele>1619.7</ele>
        <time>2014-11-11T14:35:15Z</time>
      </trkpt>
      <trkpt lat="45.70565" lon="6.15995">
        <ele>1619.7</ele>
        <time>2014-11-11T14:35:20Z</time>
      </trkpt>
      <trkpt lat="45.70565" lon="6.15996">
        <ele>1619.9</ele>
        <time>2014-11-11T14:35:26Z</time>
      </trkpt>
      <trkpt lat="45.70565" lon="6.15997">
        <ele>1620.2</ele>
        <time>2014-11-11T14:35:35Z</time>
      </trkpt>
      <trkpt lat="45.70564" lon="6.15997">
        <ele>1620.4</ele>
        <time>2014-11-11T14:35:42Z</time>
      </trkpt>
      <trkpt lat="45.70565" lon="6.15999">
        <ele>1620.9</ele>
        <time>2014-11-11T14:36:08Z</time>
      </trkpt>
      <trkpt lat="45.70564" lon="6.16">
        <ele>1621.4</ele>
        <time>2014-11-11T14:36:18Z</time>
      </trkpt>
      <trkpt lat="45.70565" lon="6.15999">
        <ele>1621.1</ele>
        <time>2014-11-11T14:36:23Z</time>
      </trkpt>
      <trkpt lat="45.70564" lon="6.16">
        <ele>1621.3</ele>
        <time>2014-11-11T14:36:37Z</time>
      </trkpt>
      <trkpt lat="45.70564" lon="6.16">
        <ele>1621.4</ele>
        <time>2014-11-11T14:36:50Z</time>
      </trkpt>
      <trkpt lat="45.70565" lon="6.15998">
        <ele>1620.8</ele>
        <time>2014-11-11T14:37:02Z</time>
      </trkpt>
      <trkpt lat="45.70565" lon="6.15997">
        <ele>1620.3</ele>
        <time>2014-11-11T14:37:24Z</time>
      </trkpt>
      <trkpt lat="45.70566" lon="6.15997">
        <ele>1620.3</ele>
        <time>2014-11-11T14:37:32Z</time>
      </trkpt>
      <trkpt lat="45.70565" lon="6.15996">
        <ele>1620.2</ele>
        <time>2014-11-11T14:37:43Z</time>
      </trkpt>
      <trkpt lat="45.70566" lon="6.15996">
        <ele>1620.1</ele>
        <time>2014-11-11T14:37:51Z</time>
      </trkpt>
      <trkpt lat="45.70566" lon="6.15996">
        <ele>1619.9</ele>
        <time>2014-11-11T14:38:02Z</time>
      </trkpt>
      <trkpt lat="45.70566" lon="6.15996">
        <ele>1619.9</ele>
        <time>2014-11-11T14:38:14Z</time>
      </trkpt>
      <trkpt lat="45.70566" lon="6.15995">
        <ele>1619.8</ele>
        <time>2014-11-11T14:38:24Z</time>
      </trkpt>
      <trkpt lat="45.70566" lon="6.15995">
        <ele>1619.9</ele>
        <time>2014-11-11T14:38:36Z</time>
      </trkpt>
      <trkpt lat="45.70566" lon="6.15995">
        <ele>1619.8</ele>
        <time>2014-11-11T14:38:52Z</time>
      </trkpt>
      <trkpt lat="45.70567" lon="6.15996">
        <ele>1620.2</ele>
        <time>2014-11-11T14:38:58Z</time>
      </trkpt>
      <trkpt lat="45.70565" lon="6.15997">
        <ele>1620.4</ele>
        <time>2014-11-11T14:39:09Z</time>
      </trkpt>
      <trkpt lat="45.70565" lon="6.15996">
        <ele>1620</ele>
        <time>2014-11-11T14:39:29Z</time>
      </trkpt>
      <trkpt lat="45.70565" lon="6.15996">
        <ele>1620.2</ele>
        <time>2014-11-11T14:39:45Z</time>
      </trkpt>
      <trkpt lat="45.70565" lon="6.15997">
        <ele>1620.5</ele>
        <time>2014-11-11T14:39:54Z</time>
      </trkpt>
      <trkpt lat="45.70563" lon="6.15999">
        <ele>1621</ele>
        <time>2014-11-11T14:39:59Z</time>
      </trkpt>
      <trkpt lat="45.70563" lon="6.15999">
        <ele>1621.1</ele>
        <time>2014-11-11T14:40:08Z</time>
      </trkpt>
      <trkpt lat="45.70563" lon="6.15999">
        <ele>1621.1</ele>
        <time>2014-11-11T14:40:18Z</time>
      </trkpt>
      <trkpt lat="45.70564" lon="6.15998">
        <ele>1620.5</ele>
        <time>2014-11-11T14:40:27Z</time>
      </trkpt>
      <trkpt lat="45.70565" lon="6.15997">
        <ele>1620.2</ele>
        <time>2014-11-11T14:40:32Z</time>
      </trkpt>
      <trkpt lat="45.70564" lon="6.15997">
        <ele>1620.4</ele>
        <time>2014-11-11T14:40:36Z</time>
      </trkpt>
      <trkpt lat="45.70563" lon="6.15996">
        <ele>1620.1</ele>
        <time>2014-11-11T14:40:41Z</time>
      </trkpt>
      <trkpt lat="45.70563" lon="6.15996">
        <ele>1619.9</ele>
        <time>2014-11-11T14:40:51Z</time>
      </trkpt>
      <trkpt lat="45.70564" lon="6.15995">
        <ele>1619.7</ele>
        <time>2014-11-11T14:41:04Z</time>
      </trkpt>
      <trkpt lat="45.70564" lon="6.15995">
        <ele>1619.8</ele>
        <time>2014-11-11T14:41:09Z</time>
      </trkpt>
      <trkpt lat="45.70564" lon="6.15996">
        <ele>1619.8</ele>
        <time>2014-11-11T14:41:22Z</time>
      </trkpt>
      <trkpt lat="45.70564" lon="6.15997">
        <ele>1620.2</ele>
        <time>2014-11-11T14:41:31Z</time>
      </trkpt>
      <trkpt lat="45.70565" lon="6.15998">
        <ele>1620.6</ele>
        <time>2014-11-11T14:41:37Z</time>
      </trkpt>
      <trkpt lat="45.70565" lon="6.15998">
        <ele>1620.7</ele>
        <time>2014-11-11T14:41:43Z</time>
      </trkpt>
      <trkpt lat="45.70565" lon="6.15998">
        <ele>1620.6</ele>
        <time>2014-11-11T14:41:48Z</time>
      </trkpt>
      <trkpt lat="45.70566" lon="6.15999">
        <ele>1621.1</ele>
        <time>2014-11-11T14:41:54Z</time>
      </trkpt>
      <trkpt lat="45.70566" lon="6.16">
        <ele>1621.4</ele>
        <time>2014-11-11T14:41:57Z</time>
      </trkpt>
      <trkpt lat="45.70566" lon="6.15999">
        <ele>1621.1</ele>
        <time>2014-11-11T14:42:02Z</time>
      </trkpt>
      <trkpt lat="45.70566" lon="6.15997">
        <ele>1620.4</ele>
        <time>2014-11-11T14:42:13Z</time>
      </trkpt>
      <trkpt lat="45.70566" lon="6.15997">
        <ele>1620.3</ele>
        <time>2014-11-11T14:42:21Z</time>
      </trkpt>
      <trkpt lat="45.70566" lon="6.15998">
        <ele>1620.6</ele>
        <time>2014-11-11T14:42:31Z</time>
      </trkpt>
      <trkpt lat="45.70566" lon="6.15998">
        <ele>1620.8</ele>
        <time>2014-11-11T14:42:43Z</time>
      </trkpt>
      <trkpt lat="45.70567" lon="6.15998">
        <ele>1620.7</ele>
        <time>2014-11-11T14:42:45Z</time>
      </trkpt>
      <trkpt lat="45.70567" lon="6.15998">
        <ele>1620.7</ele>
        <time>2014-11-11T14:42:46Z</time>
      </trkpt>
      <trkpt lat="45.70567" lon="6.15998">
        <ele>1620.7</ele>
        <time>2014-11-11T14:42:48Z</time>
      </trkpt>
      <trkpt lat="45.70568" lon="6.15998">
        <ele>1620.6</ele>
        <time>2014-11-11T14:42:49Z</time>
      </trkpt>
      <trkpt lat="45.70568" lon="6.15998">
        <ele>1620.6</ele>
        <time>2014-11-11T14:42:49Z</time>
      </trkpt>
      <trkpt lat="45.70567" lon="6.15998">
        <ele>1620.6</ele>
        <time>2014-11-11T14:42:53Z</time>
      </trkpt>
      <trkpt lat="45.70567" lon="6.15998">
        <ele>1620.6</ele>
        <time>2014-11-11T14:42:54Z</time>
      </trkpt>
      <trkpt lat="45.70567" lon="6.15998">
        <ele>1620.6</ele>
        <time>2014-11-11T14:42:55Z</time>
      </trkpt>
      <trkpt lat="45.70567" lon="6.15998">
        <ele>1620.6</ele>
        <time>2014-11-11T14:42:56Z</time>
      </trkpt>
      <trkpt lat="45.70569" lon="6.15996">
        <ele>1620</ele>
        <time>2014-11-11T14:43:02Z</time>
      </trkpt>
      <trkpt lat="45.70571" lon="6.15998">
        <ele>1620.8</ele>
        <time>2014-11-11T14:43:07Z</time>
      </trkpt>
      <trkpt lat="45.70573" lon="6.15999">
        <ele>1621.4</ele>
        <time>2014-11-11T14:43:13Z</time>
      </trkpt>
      <trkpt lat="45.70574" lon="6.16">
        <ele>1621.4</ele>
        <time>2014-11-11T14:43:20Z</time>
      </trkpt>
      <trkpt lat="45.70575" lon="6.16002">
        <ele>1622.3</ele>
        <time>2014-11-11T14:43:28Z</time>
      </trkpt>
      <trkpt lat="45.70575" lon="6.16003">
        <ele>1622.7</ele>
        <time>2014-11-11T14:43:33Z</time>
      </trkpt>
      <trkpt lat="45.70576" lon="6.16004">
        <ele>1623</ele>
        <time>2014-11-11T14:43:39Z</time>
      </trkpt>
      <trkpt lat="45.70578" lon="6.16005">
        <ele>1623.5</ele>
        <time>2014-11-11T14:43:47Z</time>
      </trkpt>
      <trkpt lat="45.70579" lon="6.16005">
        <ele>1623.4</ele>
        <time>2014-11-11T14:43:54Z</time>
      </trkpt>
      <trkpt lat="45.70579" lon="6.16007">
        <ele>1624.2</ele>
        <time>2014-11-11T14:44:05Z</time>
      </trkpt>
      <trkpt lat="45.70581" lon="6.16008">
        <ele>1624.7</ele>
        <time>2014-11-11T14:44:13Z</time>
      </trkpt>
      <trkpt lat="45.70581" lon="6.16011">
        <ele>1625.6</ele>
        <time>2014-11-11T14:44:25Z</time>
      </trkpt>
      <trkpt lat="45.70583" lon="6.16012">
        <ele>1626.1</ele>
        <time>2014-11-11T14:44:32Z</time>
      </trkpt>
      <trkpt lat="45.70582" lon="6.16014">
        <ele>1626.6</ele>
        <time>2014-11-11T14:44:38Z</time>
      </trkpt>
      <trkpt lat="45.70584" lon="6.16014">
        <ele>1626.6</ele>
        <time>2014-11-11T14:44:43Z</time>
      </trkpt>
      <trkpt lat="45.70586" lon="6.16013">
        <ele>1626.4</ele>
        <time>2014-11-11T14:44:49Z</time>
      </trkpt>
      <trkpt lat="45.70586" lon="6.16014">
        <ele>1626.8</ele>
        <time>2014-11-11T14:44:54Z</time>
      </trkpt>
      <trkpt lat="45.70586" lon="6.16017">
        <ele>1627.8</ele>
        <time>2014-11-11T14:45:00Z</time>
      </trkpt>
      <trkpt lat="45.70586" lon="6.16017">
        <ele>1627.8</ele>
        <time>2014-11-11T14:45:01Z</time>
      </trkpt>
      <trkpt lat="45.70586" lon="6.16017">
        <ele>1627.8</ele>
        <time>2014-11-11T14:45:02Z</time>
      </trkpt>
      <trkpt lat="45.70586" lon="6.16017">
        <ele>1627.8</ele>
        <time>2014-11-11T14:45:03Z</time>
      </trkpt>
      <trkpt lat="45.70585" lon="6.16017">
        <ele>1627.9</ele>
        <time>2014-11-11T14:45:04Z</time>
      </trkpt>
      <trkpt lat="45.70585" lon="6.16017">
        <ele>1627.9</ele>
        <time>2014-11-11T14:45:05Z</time>
      </trkpt>
      <trkpt lat="45.70585" lon="6.16017">
        <ele>1627.9</ele>
        <time>2014-11-11T14:45:06Z</time>
      </trkpt>
      <trkpt lat="45.70585" lon="6.16018">
        <ele>1628</ele>
        <time>2014-11-11T14:45:07Z</time>
      </trkpt>
      <trkpt lat="45.70587" lon="6.16017">
        <ele>1627.9</ele>
        <time>2014-11-11T14:45:08Z</time>
      </trkpt>
      <trkpt lat="45.70589" lon="6.16019">
        <ele>1628.7</ele>
        <time>2014-11-11T14:45:13Z</time>
      </trkpt>
      <trkpt lat="45.70588" lon="6.1602">
        <ele>1629</ele>
        <time>2014-11-11T14:45:17Z</time>
      </trkpt>
      <trkpt lat="45.70591" lon="6.1602">
        <ele>1629.1</ele>
        <time>2014-11-11T14:45:25Z</time>
      </trkpt>
      <trkpt lat="45.70594" lon="6.16021">
        <ele>1629.6</ele>
        <time>2014-11-11T14:45:29Z</time>
      </trkpt>
      <trkpt lat="45.70597" lon="6.16023">
        <ele>1630.3</ele>
        <time>2014-11-11T14:45:34Z</time>
      </trkpt>
      <trkpt lat="45.70601" lon="6.16024">
        <ele>1630.6</ele>
        <time>2014-11-11T14:45:39Z</time>
      </trkpt>
      <trkpt lat="45.70602" lon="6.16026">
        <ele>1631.4</ele>
        <time>2014-11-11T14:45:45Z</time>
      </trkpt>
      <trkpt lat="45.70603" lon="6.16027">
        <ele>1631.8</ele>
        <time>2014-11-11T14:45:52Z</time>
      </trkpt>
      <trkpt lat="45.70605" lon="6.16028">
        <ele>1632.5</ele>
        <time>2014-11-11T14:46:01Z</time>
      </trkpt>
      <trkpt lat="45.70608" lon="6.16026">
        <ele>1631.7</ele>
        <time>2014-11-11T14:46:09Z</time>
      </trkpt>
      <trkpt lat="45.70609" lon="6.16026">
        <ele>1631.8</ele>
        <time>2014-11-11T14:46:14Z</time>
      </trkpt>
      <trkpt lat="45.70607" lon="6.16027">
        <ele>1631.9</ele>
        <time>2014-11-11T14:46:21Z</time>
      </trkpt>
      <trkpt lat="45.70611" lon="6.16029">
        <ele>1632.8</ele>
        <time>2014-11-11T14:46:29Z</time>
      </trkpt>
      <trkpt lat="45.70612" lon="6.16031">
        <ele>1633.5</ele>
        <time>2014-11-11T14:46:34Z</time>
      </trkpt>
      <trkpt lat="45.70612" lon="6.16032">
        <ele>1633.9</ele>
        <time>2014-11-11T14:46:43Z</time>
      </trkpt>
      <trkpt lat="45.70613" lon="6.16031">
        <ele>1633.8</ele>
        <time>2014-11-11T14:46:53Z</time>
      </trkpt>
      <trkpt lat="45.70614" lon="6.1603">
        <ele>1633.3</ele>
        <time>2014-11-11T14:47:13Z</time>
      </trkpt>
      <trkpt lat="45.70616" lon="6.16032">
        <ele>1634</ele>
        <time>2014-11-11T14:47:25Z</time>
      </trkpt>
      <trkpt lat="45.70615" lon="6.16035">
        <ele>1635.1</ele>
        <time>2014-11-11T14:47:31Z</time>
      </trkpt>
      <trkpt lat="45.70615" lon="6.16035">
        <ele>1635.1</ele>
        <time>2014-11-11T14:47:32Z</time>
      </trkpt>
      <trkpt lat="45.70615" lon="6.16035">
        <ele>1635.1</ele>
        <time>2014-11-11T14:48:02Z</time>
      </trkpt>
      <trkpt lat="45.7062" lon="6.1604">
        <ele>1637.1</ele>
        <time>2014-11-11T14:48:03Z</time>
      </trkpt>
      <trkpt lat="45.70622" lon="6.16038">
        <ele>1636.7</ele>
        <time>2014-11-11T14:48:09Z</time>
      </trkpt>
      <trkpt lat="45.70625" lon="6.16038">
        <ele>1636.7</ele>
        <time>2014-11-11T14:48:15Z</time>
      </trkpt>
      <trkpt lat="45.70627" lon="6.16037">
        <ele>1635.3</ele>
        <time>2014-11-11T14:48:21Z</time>
      </trkpt>
      <trkpt lat="45.7063" lon="6.16039">
        <ele>1635.3</ele>
        <time>2014-11-11T14:48:27Z</time>
      </trkpt>
      <trkpt lat="45.70632" lon="6.16041">
        <ele>1635.4</ele>
        <time>2014-11-11T14:48:33Z</time>
      </trkpt>
      <trkpt lat="45.70635" lon="6.1604">
        <ele>1634.2</ele>
        <time>2014-11-11T14:48:41Z</time>
      </trkpt>
      <trkpt lat="45.70637" lon="6.16042">
        <ele>1634</ele>
        <time>2014-11-11T14:48:47Z</time>
      </trkpt>
      <trkpt lat="45.7064" lon="6.16043">
        <ele>1632.9</ele>
        <time>2014-11-11T14:48:52Z</time>
      </trkpt>
      <trkpt lat="45.70642" lon="6.16042">
        <ele>1632.4</ele>
        <time>2014-11-11T14:48:58Z</time>
      </trkpt>
      <trkpt lat="45.70644" lon="6.16042">
        <ele>1631.6</ele>
        <time>2014-11-11T14:49:04Z</time>
      </trkpt>
      <trkpt lat="45.70647" lon="6.16041">
        <ele>1630.5</ele>
        <time>2014-11-11T14:49:12Z</time>
      </trkpt>
      <trkpt lat="45.70648" lon="6.16041">
        <ele>1630.3</ele>
        <time>2014-11-11T14:49:18Z</time>
      </trkpt>
      <trkpt lat="45.70648" lon="6.16042">
        <ele>1630.4</ele>
        <time>2014-11-11T14:49:26Z</time>
      </trkpt>
      <trkpt lat="45.70648" lon="6.16042">
        <ele>1630.6</ele>
        <time>2014-11-11T14:49:35Z</time>
      </trkpt>
      <trkpt lat="45.70647" lon="6.1604">
        <ele>1630.4</ele>
        <time>2014-11-11T14:49:43Z</time>
      </trkpt>
      <trkpt lat="45.70648" lon="6.1604">
        <ele>1630</ele>
        <time>2014-11-11T14:49:54Z</time>
      </trkpt>
      <trkpt lat="45.70648" lon="6.1604">
        <ele>1630.1</ele>
        <time>2014-11-11T14:50:02Z</time>
      </trkpt>
      <trkpt lat="45.70649" lon="6.1604">
        <ele>1629.8</ele>
        <time>2014-11-11T14:50:09Z</time>
      </trkpt>
      <trkpt lat="45.7065" lon="6.16041">
        <ele>1629.5</ele>
        <time>2014-11-11T14:50:14Z</time>
      </trkpt>
      <trkpt lat="45.70653" lon="6.16042">
        <ele>1628.9</ele>
        <time>2014-11-11T14:50:19Z</time>
      </trkpt>
      <trkpt lat="45.70658" lon="6.16045">
        <ele>1626.8</ele>
        <time>2014-11-11T14:50:25Z</time>
      </trkpt>
      <trkpt lat="45.7066" lon="6.16047">
        <ele>1626</ele>
        <time>2014-11-11T14:50:30Z</time>
      </trkpt>
      <trkpt lat="45.70663" lon="6.16051">
        <ele>1624.8</ele>
        <time>2014-11-11T14:50:37Z</time>
      </trkpt>
      <trkpt lat="45.70667" lon="6.16053">
        <ele>1623.5</ele>
        <time>2014-11-11T14:50:42Z</time>
      </trkpt>
      <trkpt lat="45.70674" lon="6.16053">
        <ele>1621.7</ele>
        <time>2014-11-11T14:50:48Z</time>
      </trkpt>
      <trkpt lat="45.70678" lon="6.16055">
        <ele>1620.6</ele>
        <time>2014-11-11T14:50:52Z</time>
      </trkpt>
      <trkpt lat="45.70685" lon="6.16056">
        <ele>1618.8</ele>
        <time>2014-11-11T14:50:59Z</time>
      </trkpt>
      <trkpt lat="45.7069" lon="6.16059">
        <ele>1617.7</ele>
        <time>2014-11-11T14:51:03Z</time>
      </trkpt>
      <trkpt lat="45.70693" lon="6.16059">
        <ele>1617</ele>
        <time>2014-11-11T14:51:06Z</time>
      </trkpt>
      <trkpt lat="45.70698" lon="6.16058">
        <ele>1615.9</ele>
        <time>2014-11-11T14:51:12Z</time>
      </trkpt>
      <trkpt lat="45.70702" lon="6.16059">
        <ele>1615</ele>
        <time>2014-11-11T14:51:18Z</time>
      </trkpt>
      <trkpt lat="45.70707" lon="6.16058">
        <ele>1613.8</ele>
        <time>2014-11-11T14:51:24Z</time>
      </trkpt>
      <trkpt lat="45.70711" lon="6.16056">
        <ele>1612.1</ele>
        <time>2014-11-11T14:51:29Z</time>
      </trkpt>
      <trkpt lat="45.70716" lon="6.16056">
        <ele>1610.5</ele>
        <time>2014-11-11T14:51:34Z</time>
      </trkpt>
      <trkpt lat="45.70721" lon="6.16057">
        <ele>1609.1</ele>
        <time>2014-11-11T14:51:39Z</time>
      </trkpt>
      <trkpt lat="45.70726" lon="6.16056">
        <ele>1607.3</ele>
        <time>2014-11-11T14:51:46Z</time>
      </trkpt>
      <trkpt lat="45.70729" lon="6.16057">
        <ele>1606.4</ele>
        <time>2014-11-11T14:51:52Z</time>
      </trkpt>
      <trkpt lat="45.70732" lon="6.16058">
        <ele>1605.8</ele>
        <time>2014-11-11T14:51:57Z</time>
      </trkpt>
      <trkpt lat="45.70735" lon="6.16059">
        <ele>1605.3</ele>
        <time>2014-11-11T14:52:03Z</time>
      </trkpt>
      <trkpt lat="45.70737" lon="6.1606">
        <ele>1604.9</ele>
        <time>2014-11-11T14:52:09Z</time>
      </trkpt>
      <trkpt lat="45.70741" lon="6.16061">
        <ele>1604.1</ele>
        <time>2014-11-11T14:52:15Z</time>
      </trkpt>
      <trkpt lat="45.70745" lon="6.16065">
        <ele>1603.8</ele>
        <time>2014-11-11T14:52:21Z</time>
      </trkpt>
      <trkpt lat="45.70747" lon="6.16067">
        <ele>1604.1</ele>
        <time>2014-11-11T14:52:27Z</time>
      </trkpt>
      <trkpt lat="45.70748" lon="6.16068">
        <ele>1604.1</ele>
        <time>2014-11-11T14:52:32Z</time>
      </trkpt>
      <trkpt lat="45.70752" lon="6.16068">
        <ele>1603</ele>
        <time>2014-11-11T14:52:36Z</time>
      </trkpt>
      <trkpt lat="45.70755" lon="6.16071">
        <ele>1603.2</ele>
        <time>2014-11-11T14:52:42Z</time>
      </trkpt>
      <trkpt lat="45.70759" lon="6.16071">
        <ele>1602.5</ele>
        <time>2014-11-11T14:52:48Z</time>
      </trkpt>
      <trkpt lat="45.70764" lon="6.16073">
        <ele>1601.5</ele>
        <time>2014-11-11T14:52:55Z</time>
      </trkpt>
      <trkpt lat="45.7077" lon="6.16074">
        <ele>1600.7</ele>
        <time>2014-11-11T14:53:02Z</time>
      </trkpt>
      <trkpt lat="45.70772" lon="6.16074">
        <ele>1600.2</ele>
        <time>2014-11-11T14:53:07Z</time>
      </trkpt>
      <trkpt lat="45.70774" lon="6.16076">
        <ele>1600.5</ele>
        <time>2014-11-11T14:53:13Z</time>
      </trkpt>
      <trkpt lat="45.70778" lon="6.16078">
        <ele>1600.8</ele>
        <time>2014-11-11T14:53:19Z</time>
      </trkpt>
      <trkpt lat="45.70781" lon="6.1608">
        <ele>1601.1</ele>
        <time>2014-11-11T14:53:24Z</time>
      </trkpt>
      <trkpt lat="45.70785" lon="6.16081">
        <ele>1600.7</ele>
        <time>2014-11-11T14:53:29Z</time>
      </trkpt>
      <trkpt lat="45.70789" lon="6.16085">
        <ele>1601.7</ele>
        <time>2014-11-11T14:53:34Z</time>
      </trkpt>
      <trkpt lat="45.70793" lon="6.16085">
        <ele>1600.5</ele>
        <time>2014-11-11T14:53:39Z</time>
      </trkpt>
      <trkpt lat="45.70797" lon="6.16084">
        <ele>1598.3</ele>
        <time>2014-11-11T14:53:44Z</time>
      </trkpt>
      <trkpt lat="45.70801" lon="6.16084">
        <ele>1596.5</ele>
        <time>2014-11-11T14:53:50Z</time>
      </trkpt>
      <trkpt lat="45.70805" lon="6.16083">
        <ele>1593.9</ele>
        <time>2014-11-11T14:53:56Z</time>
      </trkpt>
      <trkpt lat="45.70807" lon="6.16087">
        <ele>1594.8</ele>
        <time>2014-11-11T14:54:02Z</time>
      </trkpt>
      <trkpt lat="45.70808" lon="6.1609">
        <ele>1596.4</ele>
        <time>2014-11-11T14:54:07Z</time>
      </trkpt>
      <trkpt lat="45.7081" lon="6.1609">
        <ele>1595.8</ele>
        <time>2014-11-11T14:54:12Z</time>
      </trkpt>
      <trkpt lat="45.70812" lon="6.16091">
        <ele>1595.2</ele>
        <time>2014-11-11T14:54:18Z</time>
      </trkpt>
      <trkpt lat="45.70815" lon="6.1609">
        <ele>1593.5</ele>
        <time>2014-11-11T14:54:24Z</time>
      </trkpt>
      <trkpt lat="45.70818" lon="6.16091">
        <ele>1592.2</ele>
        <time>2014-11-11T14:54:29Z</time>
      </trkpt>
      <trkpt lat="45.7082" lon="6.16091">
        <ele>1591.3</ele>
        <time>2014-11-11T14:54:34Z</time>
      </trkpt>
      <trkpt lat="45.70821" lon="6.16091">
        <ele>1591.3</ele>
        <time>2014-11-11T14:54:39Z</time>
      </trkpt>
      <trkpt lat="45.70824" lon="6.16092">
        <ele>1590</ele>
        <time>2014-11-11T14:54:44Z</time>
      </trkpt>
      <trkpt lat="45.70826" lon="6.16092">
        <ele>1589.1</ele>
        <time>2014-11-11T14:54:49Z</time>
      </trkpt>
      <trkpt lat="45.70829" lon="6.16094">
        <ele>1589.1</ele>
        <time>2014-11-11T14:54:54Z</time>
      </trkpt>
      <trkpt lat="45.70832" lon="6.16096">
        <ele>1588.8</ele>
        <time>2014-11-11T14:55:02Z</time>
      </trkpt>
      <trkpt lat="45.70834" lon="6.16096">
        <ele>1588</ele>
        <time>2014-11-11T14:55:06Z</time>
      </trkpt>
      <trkpt lat="45.70837" lon="6.16099">
        <ele>1588.8</ele>
        <time>2014-11-11T14:55:13Z</time>
      </trkpt>
      <trkpt lat="45.70838" lon="6.16102">
        <ele>1589.8</ele>
        <time>2014-11-11T14:55:18Z</time>
      </trkpt>
      <trkpt lat="45.7084" lon="6.16105">
        <ele>1590.6</ele>
        <time>2014-11-11T14:55:24Z</time>
      </trkpt>
      <trkpt lat="45.70843" lon="6.16107">
        <ele>1591</ele>
        <time>2014-11-11T14:55:29Z</time>
      </trkpt>
      <trkpt lat="45.70844" lon="6.1611">
        <ele>1592.6</ele>
        <time>2014-11-11T14:55:34Z</time>
      </trkpt>
      <trkpt lat="45.70846" lon="6.16113">
        <ele>1593.7</ele>
        <time>2014-11-11T14:55:40Z</time>
      </trkpt>
      <trkpt lat="45.70848" lon="6.16117">
        <ele>1595.5</ele>
        <time>2014-11-11T14:55:45Z</time>
      </trkpt>
      <trkpt lat="45.70849" lon="6.1612">
        <ele>1597.2</ele>
        <time>2014-11-11T14:55:47Z</time>
      </trkpt>
      <trkpt lat="45.70856" lon="6.16125">
        <ele>1597.7</ele>
        <time>2014-11-11T14:55:52Z</time>
      </trkpt>
      <trkpt lat="45.7086" lon="6.1613">
        <ele>1596.6</ele>
        <time>2014-11-11T14:55:55Z</time>
      </trkpt>
      <trkpt lat="45.70862" lon="6.16142">
        <ele>1597.5</ele>
        <time>2014-11-11T14:55:59Z</time>
      </trkpt>
      <trkpt lat="45.70869" lon="6.16146">
        <ele>1596.2</ele>
        <time>2014-11-11T14:56:03Z</time>
      </trkpt>
      <trkpt lat="45.70871" lon="6.16148">
        <ele>1596.1</ele>
        <time>2014-11-11T14:56:05Z</time>
      </trkpt>
      <trkpt lat="45.70871" lon="6.16153">
        <ele>1596.9</ele>
        <time>2014-11-11T14:56:13Z</time>
      </trkpt>
      <trkpt lat="45.70871" lon="6.16152">
        <ele>1596.9</ele>
        <time>2014-11-11T14:56:24Z</time>
      </trkpt>
      <trkpt lat="45.70867" lon="6.16155">
        <ele>1598</ele>
        <time>2014-11-11T14:56:31Z</time>
      </trkpt>
      <trkpt lat="45.70865" lon="6.16159">
        <ele>1599</ele>
        <time>2014-11-11T14:56:36Z</time>
      </trkpt>
      <trkpt lat="45.70864" lon="6.16165">
        <ele>1600.1</ele>
        <time>2014-11-11T14:56:47Z</time>
      </trkpt>
      <trkpt lat="45.70864" lon="6.16166">
        <ele>1600.3</ele>
        <time>2014-11-11T14:56:50Z</time>
      </trkpt>
      <trkpt lat="45.70865" lon="6.16168">
        <ele>1600.4</ele>
        <time>2014-11-11T14:56:54Z</time>
      </trkpt>
      <trkpt lat="45.70867" lon="6.1617">
        <ele>1600.5</ele>
        <time>2014-11-11T14:57:00Z</time>
      </trkpt>
      <trkpt lat="45.70868" lon="6.16175">
        <ele>1601.3</ele>
        <time>2014-11-11T14:57:06Z</time>
      </trkpt>
      <trkpt lat="45.70867" lon="6.16177">
        <ele>1601.6</ele>
        <time>2014-11-11T14:57:17Z</time>
      </trkpt>
      <trkpt lat="45.70864" lon="6.16179">
        <ele>1602.1</ele>
        <time>2014-11-11T14:57:21Z</time>
      </trkpt>
      <trkpt lat="45.70857" lon="6.16182">
        <ele>1602.8</ele>
        <time>2014-11-11T14:57:28Z</time>
      </trkpt>
      <trkpt lat="45.70856" lon="6.16179">
        <ele>1602.6</ele>
        <time>2014-11-11T14:57:32Z</time>
      </trkpt>
      <trkpt lat="45.70854" lon="6.16176">
        <ele>1602.4</ele>
        <time>2014-11-11T14:57:35Z</time>
      </trkpt>
      <trkpt lat="45.70848" lon="6.16175">
        <ele>1602.7</ele>
        <time>2014-11-11T14:57:41Z</time>
      </trkpt>
      <trkpt lat="45.70845" lon="6.16178">
        <ele>1603</ele>
        <time>2014-11-11T14:57:46Z</time>
      </trkpt>
      <trkpt lat="45.70836" lon="6.16176">
        <ele>1603.6</ele>
        <time>2014-11-11T14:57:52Z</time>
      </trkpt>
      <trkpt lat="45.70834" lon="6.16173">
        <ele>1603.9</ele>
        <time>2014-11-11T14:57:57Z</time>
      </trkpt>
      <trkpt lat="45.70833" lon="6.16173">
        <ele>1604</ele>
        <time>2014-11-11T14:57:58Z</time>
      </trkpt>
      <trkpt lat="45.70827" lon="6.16173">
        <ele>1604.5</ele>
        <time>2014-11-11T14:58:05Z</time>
      </trkpt>
      <trkpt lat="45.70821" lon="6.16176">
        <ele>1604.6</ele>
        <time>2014-11-11T14:58:38Z</time>
      </trkpt>
      <trkpt lat="45.70819" lon="6.16177">
        <ele>1604.5</ele>
        <time>2014-11-11T14:58:43Z</time>
      </trkpt>
      <trkpt lat="45.7082" lon="6.16178">
        <ele>1604.4</ele>
        <time>2014-11-11T14:58:55Z</time>
      </trkpt>
      <trkpt lat="45.7082" lon="6.16177">
        <ele>1604.5</ele>
        <time>2014-11-11T14:59:06Z</time>
      </trkpt>
      <trkpt lat="45.7082" lon="6.16172">
        <ele>1605.2</ele>
        <time>2014-11-11T14:59:28Z</time>
      </trkpt>
      <trkpt lat="45.70817" lon="6.16168">
        <ele>1606.1</ele>
        <time>2014-11-11T14:59:34Z</time>
      </trkpt>
      <trkpt lat="45.70814" lon="6.16168">
        <ele>1606.5</ele>
        <time>2014-11-11T14:59:38Z</time>
      </trkpt>
      <trkpt lat="45.70811" lon="6.16165">
        <ele>1607.4</ele>
        <time>2014-11-11T14:59:42Z</time>
      </trkpt>
      <trkpt lat="45.70808" lon="6.16164">
        <ele>1608.2</ele>
        <time>2014-11-11T14:59:46Z</time>
      </trkpt>
      <trkpt lat="45.70803" lon="6.1616">
        <ele>1609.6</ele>
        <time>2014-11-11T14:59:51Z</time>
      </trkpt>
      <trkpt lat="45.70801" lon="6.16158">
        <ele>1610.8</ele>
        <time>2014-11-11T14:59:58Z</time>
      </trkpt>
      <trkpt lat="45.70799" lon="6.16158">
        <ele>1610.9</ele>
        <time>2014-11-11T15:00:02Z</time>
      </trkpt>
      <trkpt lat="45.70797" lon="6.16156">
        <ele>1612</ele>
        <time>2014-11-11T15:00:09Z</time>
      </trkpt>
      <trkpt lat="45.70795" lon="6.16155">
        <ele>1612.7</ele>
        <time>2014-11-11T15:00:13Z</time>
      </trkpt>
      <trkpt lat="45.70792" lon="6.16159">
        <ele>1611.8</ele>
        <time>2014-11-11T15:00:28Z</time>
      </trkpt>
      <trkpt lat="45.70791" lon="6.1616">
        <ele>1611.5</ele>
        <time>2014-11-11T15:00:31Z</time>
      </trkpt>
      <trkpt lat="45.70789" lon="6.16162">
        <ele>1610.7</ele>
        <time>2014-11-11T15:00:37Z</time>
      </trkpt>
      <trkpt lat="45.70788" lon="6.16163">
        <ele>1610.1</ele>
        <time>2014-11-11T15:00:42Z</time>
      </trkpt>
      <trkpt lat="45.70789" lon="6.16166">
        <ele>1609.1</ele>
        <time>2014-11-11T15:00:47Z</time>
      </trkpt>
      <trkpt lat="45.70786" lon="6.16166">
        <ele>1608.8</ele>
        <time>2014-11-11T15:00:51Z</time>
      </trkpt>
      <trkpt lat="45.70784" lon="6.1617">
        <ele>1607.2</ele>
        <time>2014-11-11T15:00:55Z</time>
      </trkpt>
      <trkpt lat="45.70782" lon="6.16174">
        <ele>1605.1</ele>
        <time>2014-11-11T15:01:04Z</time>
      </trkpt>
      <trkpt lat="45.70779" lon="6.16177">
        <ele>1603.7</ele>
        <time>2014-11-11T15:01:07Z</time>
      </trkpt>
      <trkpt lat="45.70776" lon="6.16177">
        <ele>1603.2</ele>
        <time>2014-11-11T15:01:17Z</time>
      </trkpt>
      <trkpt lat="45.70773" lon="6.16174">
        <ele>1603.4</ele>
        <time>2014-11-11T15:01:23Z</time>
      </trkpt>
      <trkpt lat="45.7077" lon="6.16172">
        <ele>1603.9</ele>
        <time>2014-11-11T15:01:28Z</time>
      </trkpt>
      <trkpt lat="45.70766" lon="6.16173">
        <ele>1602.7</ele>
        <time>2014-11-11T15:01:33Z</time>
      </trkpt>
      <trkpt lat="45.70764" lon="6.1618">
        <ele>1599.4</ele>
        <time>2014-11-11T15:01:39Z</time>
      </trkpt>
      <trkpt lat="45.7076" lon="6.16183">
        <ele>1597</ele>
        <time>2014-11-11T15:01:52Z</time>
      </trkpt>
      <trkpt lat="45.70759" lon="6.16186">
        <ele>1595.7</ele>
        <time>2014-11-11T15:01:57Z</time>
      </trkpt>
      <trkpt lat="45.7076" lon="6.16189">
        <ele>1594.6</ele>
        <time>2014-11-11T15:02:02Z</time>
      </trkpt>
      <trkpt lat="45.7076" lon="6.1619">
        <ele>1593.8</ele>
        <time>2014-11-11T15:02:05Z</time>
      </trkpt>
      <trkpt lat="45.70758" lon="6.16192">
        <ele>1592.5</ele>
        <time>2014-11-11T15:02:11Z</time>
      </trkpt>
      <trkpt lat="45.70756" lon="6.16196">
        <ele>1590.1</ele>
        <time>2014-11-11T15:02:19Z</time>
      </trkpt>
      <trkpt lat="45.70758" lon="6.162">
        <ele>1589</ele>
        <time>2014-11-11T15:02:23Z</time>
      </trkpt>
      <trkpt lat="45.70756" lon="6.16201">
        <ele>1587.6</ele>
        <time>2014-11-11T15:02:27Z</time>
      </trkpt>
      <trkpt lat="45.70755" lon="6.16203">
        <ele>1586.3</ele>
        <time>2014-11-11T15:02:31Z</time>
      </trkpt>
      <trkpt lat="45.70753" lon="6.16206">
        <ele>1584.5</ele>
        <time>2014-11-11T15:02:35Z</time>
      </trkpt>
      <trkpt lat="45.70751" lon="6.16206">
        <ele>1583.9</ele>
        <time>2014-11-11T15:02:40Z</time>
      </trkpt>
      <trkpt lat="45.70749" lon="6.16209">
        <ele>1581.3</ele>
        <time>2014-11-11T15:02:46Z</time>
      </trkpt>
      <trkpt lat="45.70747" lon="6.1621">
        <ele>1580.4</ele>
        <time>2014-11-11T15:02:51Z</time>
      </trkpt>
      <trkpt lat="45.70744" lon="6.16211">
        <ele>1578.9</ele>
        <time>2014-11-11T15:02:55Z</time>
      </trkpt>
      <trkpt lat="45.70743" lon="6.16211">
        <ele>1578.4</ele>
        <time>2014-11-11T15:03:00Z</time>
      </trkpt>
      <trkpt lat="45.70743" lon="6.16214">
        <ele>1576.3</ele>
        <time>2014-11-11T15:03:07Z</time>
      </trkpt>
      <trkpt lat="45.70742" lon="6.16214">
        <ele>1575.6</ele>
        <time>2014-11-11T15:03:17Z</time>
      </trkpt>
      <trkpt lat="45.70741" lon="6.16215">
        <ele>1574.9</ele>
        <time>2014-11-11T15:03:22Z</time>
      </trkpt>
      <trkpt lat="45.70739" lon="6.16216">
        <ele>1573.3</ele>
        <time>2014-11-11T15:03:28Z</time>
      </trkpt>
      <trkpt lat="45.70736" lon="6.16216">
        <ele>1572</ele>
        <time>2014-11-11T15:03:33Z</time>
      </trkpt>
      <trkpt lat="45.70733" lon="6.16217">
        <ele>1570.4</ele>
        <time>2014-11-11T15:03:36Z</time>
      </trkpt>
      <trkpt lat="45.70731" lon="6.16218">
        <ele>1569.2</ele>
        <time>2014-11-11T15:03:40Z</time>
      </trkpt>
      <trkpt lat="45.70731" lon="6.16218">
        <ele>1569.2</ele>
        <time>2014-11-11T15:03:50Z</time>
      </trkpt>
      <trkpt lat="45.70729" lon="6.16218">
        <ele>1568.6</ele>
        <time>2014-11-11T15:03:54Z</time>
      </trkpt>
      <trkpt lat="45.7073" lon="6.16218">
        <ele>1569.1</ele>
        <time>2014-11-11T15:04:00Z</time>
      </trkpt>
      <trkpt lat="45.70731" lon="6.16218">
        <ele>1569.1</ele>
        <time>2014-11-11T15:04:09Z</time>
      </trkpt>
      <trkpt lat="45.70733" lon="6.1622">
        <ele>1568.7</ele>
        <time>2014-11-11T15:04:13Z</time>
      </trkpt>
      <trkpt lat="45.70737" lon="6.1622">
        <ele>1569.5</ele>
        <time>2014-11-11T15:04:22Z</time>
      </trkpt>
      <trkpt lat="45.70738" lon="6.16222">
        <ele>1568.5</ele>
        <time>2014-11-11T15:04:26Z</time>
      </trkpt>
      <trkpt lat="45.70737" lon="6.16225">
        <ele>1566.2</ele>
        <time>2014-11-11T15:04:31Z</time>
      </trkpt>
      <trkpt lat="45.70736" lon="6.16226">
        <ele>1564.8</ele>
        <time>2014-11-11T15:04:37Z</time>
      </trkpt>
      <trkpt lat="45.70734" lon="6.16226">
        <ele>1564.1</ele>
        <time>2014-11-11T15:04:43Z</time>
      </trkpt>
      <trkpt lat="45.70732" lon="6.16225">
        <ele>1564.3</ele>
        <time>2014-11-11T15:04:47Z</time>
      </trkpt>
      <trkpt lat="45.70732" lon="6.16226">
        <ele>1564</ele>
        <time>2014-11-11T15:04:52Z</time>
      </trkpt>
      <trkpt lat="45.70732" lon="6.16226">
        <ele>1563.8</ele>
        <time>2014-11-11T15:04:56Z</time>
      </trkpt>
      <trkpt lat="45.70724" lon="6.16221">
        <ele>1565</ele>
        <time>2014-11-11T15:05:00Z</time>
      </trkpt>
      <trkpt lat="45.7072" lon="6.16222">
        <ele>1563</ele>
        <time>2014-11-11T15:05:07Z</time>
      </trkpt>
      <trkpt lat="45.7072" lon="6.16227">
        <ele>1559.8</ele>
        <time>2014-11-11T15:05:19Z</time>
      </trkpt>
      <trkpt lat="45.70721" lon="6.16232">
        <ele>1556.4</ele>
        <time>2014-11-11T15:05:29Z</time>
      </trkpt>
      <trkpt lat="45.70721" lon="6.16231">
        <ele>1557.2</ele>
        <time>2014-11-11T15:05:40Z</time>
      </trkpt>
      <trkpt lat="45.70721" lon="6.16229">
        <ele>1558.1</ele>
        <time>2014-11-11T15:05:52Z</time>
      </trkpt>
      <trkpt lat="45.7072" lon="6.16233">
        <ele>1555.3</ele>
        <time>2014-11-11T15:06:00Z</time>
      </trkpt>
      <trkpt lat="45.70721" lon="6.16238">
        <ele>1552</ele>
        <time>2014-11-11T15:06:05Z</time>
      </trkpt>
      <trkpt lat="45.70721" lon="6.16241">
        <ele>1549.8</ele>
        <time>2014-11-11T15:06:11Z</time>
      </trkpt>
      <trkpt lat="45.70721" lon="6.16246">
        <ele>1546.4</ele>
        <time>2014-11-11T15:06:18Z</time>
      </trkpt>
      <trkpt lat="45.70723" lon="6.16244">
        <ele>1547.7</ele>
        <time>2014-11-11T15:06:21Z</time>
      </trkpt>
      <trkpt lat="45.70722" lon="6.1625">
        <ele>1543.5</ele>
        <time>2014-11-11T15:06:27Z</time>
      </trkpt>
      <trkpt lat="45.70725" lon="6.16252">
        <ele>1542.4</ele>
        <time>2014-11-11T15:06:35Z</time>
      </trkpt>
      <trkpt lat="45.70727" lon="6.16254">
        <ele>1542.1</ele>
        <time>2014-11-11T15:06:40Z</time>
      </trkpt>
      <trkpt lat="45.70727" lon="6.16259">
        <ele>1538.1</ele>
        <time>2014-11-11T15:06:48Z</time>
      </trkpt>
      <trkpt lat="45.70723" lon="6.16266">
        <ele>1532.3</ele>
        <time>2014-11-11T15:06:56Z</time>
      </trkpt>
      <trkpt lat="45.70721" lon="6.16269">
        <ele>1529.7</ele>
        <time>2014-11-11T15:07:46Z</time>
      </trkpt>
      <trkpt lat="45.70722" lon="6.16275">
        <ele>1525.1</ele>
        <time>2014-11-11T15:07:58Z</time>
      </trkpt>
      <trkpt lat="45.70724" lon="6.16279">
        <ele>1522.8</ele>
        <time>2014-11-11T15:08:02Z</time>
      </trkpt>
      <trkpt lat="45.70725" lon="6.16285">
        <ele>1519</ele>
        <time>2014-11-11T15:08:12Z</time>
      </trkpt>
      <trkpt lat="45.70723" lon="6.16293">
        <ele>1512.7</ele>
        <time>2014-11-11T15:08:37Z</time>
      </trkpt>
      <trkpt lat="45.70722" lon="6.16295">
        <ele>1510.2</ele>
        <time>2014-11-11T15:08:42Z</time>
      </trkpt>
      <trkpt lat="45.70719" lon="6.16295">
        <ele>1509.9</ele>
        <time>2014-11-11T15:08:47Z</time>
      </trkpt>
      <trkpt lat="45.70716" lon="6.16292">
        <ele>1511.2</ele>
        <time>2014-11-11T15:08:51Z</time>
      </trkpt>
      <trkpt lat="45.70714" lon="6.16291">
        <ele>1512.1</ele>
        <time>2014-11-11T15:08:56Z</time>
      </trkpt>
      <trkpt lat="45.7071" lon="6.16291">
        <ele>1511.2</ele>
        <time>2014-11-11T15:09:01Z</time>
      </trkpt>
      <trkpt lat="45.70708" lon="6.16291">
        <ele>1510</ele>
        <time>2014-11-11T15:09:05Z</time>
      </trkpt>
      <trkpt lat="45.70707" lon="6.16292">
        <ele>1509.3</ele>
        <time>2014-11-11T15:09:06Z</time>
      </trkpt>
      <trkpt lat="45.70705" lon="6.16296">
        <ele>1505.2</ele>
        <time>2014-11-11T15:09:12Z</time>
      </trkpt>
      <trkpt lat="45.70706" lon="6.16301">
        <ele>1501.7</ele>
        <time>2014-11-11T15:09:40Z</time>
      </trkpt>
      <trkpt lat="45.70707" lon="6.16299">
        <ele>1503.8</ele>
        <time>2014-11-11T15:10:11Z</time>
      </trkpt>
      <trkpt lat="45.70706" lon="6.16298">
        <ele>1504.1</ele>
        <time>2014-11-11T15:10:19Z</time>
      </trkpt>
      <trkpt lat="45.70706" lon="6.16298">
        <ele>1503.8</ele>
        <time>2014-11-11T15:10:24Z</time>
      </trkpt>
      <trkpt lat="45.70703" lon="6.16303">
        <ele>1499.2</ele>
        <time>2014-11-11T15:10:29Z</time>
      </trkpt>
      <trkpt lat="45.70699" lon="6.16305">
        <ele>1496.6</ele>
        <time>2014-11-11T15:10:33Z</time>
      </trkpt>
      <trkpt lat="45.707" lon="6.16308">
        <ele>1494.1</ele>
        <time>2014-11-11T15:10:38Z</time>
      </trkpt>
      <trkpt lat="45.70699" lon="6.16312">
        <ele>1490.7</ele>
        <time>2014-11-11T15:10:43Z</time>
      </trkpt>
      <trkpt lat="45.70696" lon="6.16315">
        <ele>1487.7</ele>
        <time>2014-11-11T15:10:47Z</time>
      </trkpt>
      <trkpt lat="45.70693" lon="6.16318">
        <ele>1484.4</ele>
        <time>2014-11-11T15:10:53Z</time>
      </trkpt>
      <trkpt lat="45.70695" lon="6.16316">
        <ele>1486.1</ele>
        <time>2014-11-11T15:10:58Z</time>
      </trkpt>
      <trkpt lat="45.70695" lon="6.1632">
        <ele>1482.5</ele>
        <time>2014-11-11T15:11:16Z</time>
      </trkpt>
      <trkpt lat="45.70693" lon="6.16315">
        <ele>1486.6</ele>
        <time>2014-11-11T15:12:06Z</time>
      </trkpt>
      <trkpt lat="45.70692" lon="6.16321">
        <ele>1481.4</ele>
        <time>2014-11-11T15:12:45Z</time>
      </trkpt>
      <trkpt lat="45.70688" lon="6.16317">
        <ele>1483.5</ele>
        <time>2014-11-11T15:12:49Z</time>
      </trkpt>
      <trkpt lat="45.70686" lon="6.16315">
        <ele>1484.4</ele>
        <time>2014-11-11T15:12:53Z</time>
      </trkpt>
      <trkpt lat="45.70684" lon="6.16315">
        <ele>1483.4</ele>
        <time>2014-11-11T15:12:58Z</time>
      </trkpt>
      <trkpt lat="45.70682" lon="6.16314">
        <ele>1483.8</ele>
        <time>2014-11-11T15:13:02Z</time>
      </trkpt>
      <trkpt lat="45.7068" lon="6.16316">
        <ele>1482.2</ele>
        <time>2014-11-11T15:13:07Z</time>
      </trkpt>
      <trkpt lat="45.70678" lon="6.16318">
        <ele>1479.6</ele>
        <time>2014-11-11T15:13:13Z</time>
      </trkpt>
      <trkpt lat="45.70677" lon="6.16316">
        <ele>1480.7</ele>
        <time>2014-11-11T15:13:17Z</time>
      </trkpt>
      <trkpt lat="45.70674" lon="6.16314">
        <ele>1482.2</ele>
        <time>2014-11-11T15:13:23Z</time>
      </trkpt>
      <trkpt lat="45.70673" lon="6.16313">
        <ele>1482.2</ele>
        <time>2014-11-11T15:13:28Z</time>
      </trkpt>
      <trkpt lat="45.70671" lon="6.16314">
        <ele>1481.2</ele>
        <time>2014-11-11T15:13:33Z</time>
      </trkpt>
      <trkpt lat="45.70674" lon="6.1632">
        <ele>1477</ele>
        <time>2014-11-11T15:13:44Z</time>
      </trkpt>
      <trkpt lat="45.70674" lon="6.16315">
        <ele>1480.8</ele>
        <time>2014-11-11T15:13:49Z</time>
      </trkpt>
      <trkpt lat="45.70673" lon="6.16315">
        <ele>1481.1</ele>
        <time>2014-11-11T15:13:59Z</time>
      </trkpt>
      <trkpt lat="45.70672" lon="6.16315">
        <ele>1480.3</ele>
        <time>2014-11-11T15:14:05Z</time>
      </trkpt>
      <trkpt lat="45.70671" lon="6.16317">
        <ele>1479.1</ele>
        <time>2014-11-11T15:14:21Z</time>
      </trkpt>
      <trkpt lat="45.70672" lon="6.16316">
        <ele>1479.6</ele>
        <time>2014-11-11T15:14:46Z</time>
      </trkpt>
      <trkpt lat="45.70671" lon="6.16317">
        <ele>1478.8</ele>
        <time>2014-11-11T15:15:04Z</time>
      </trkpt>
      <trkpt lat="45.70672" lon="6.16317">
        <ele>1478.8</ele>
        <time>2014-11-11T15:15:14Z</time>
      </trkpt>
      <trkpt lat="45.70671" lon="6.16317">
        <ele>1478.7</ele>
        <time>2014-11-11T15:15:24Z</time>
      </trkpt>
      <trkpt lat="45.70668" lon="6.16321">
        <ele>1474.5</ele>
        <time>2014-11-11T15:16:13Z</time>
      </trkpt>
      <trkpt lat="45.7067" lon="6.16319">
        <ele>1476.4</ele>
        <time>2014-11-11T15:16:23Z</time>
      </trkpt>
      <trkpt lat="45.70672" lon="6.1632">
        <ele>1476.4</ele>
        <time>2014-11-11T15:16:32Z</time>
      </trkpt>
      <trkpt lat="45.70675" lon="6.1632">
        <ele>1477.4</ele>
        <time>2014-11-11T15:16:39Z</time>
      </trkpt>
      <trkpt lat="45.70678" lon="6.16319">
        <ele>1478.8</ele>
        <time>2014-11-11T15:16:43Z</time>
      </trkpt>
      <trkpt lat="45.70677" lon="6.16321">
        <ele>1477.4</ele>
        <time>2014-11-11T15:16:47Z</time>
      </trkpt>
      <trkpt lat="45.70679" lon="6.16321">
        <ele>1477.2</ele>
        <time>2014-11-11T15:16:53Z</time>
      </trkpt>
      <trkpt lat="45.70679" lon="6.16321">
        <ele>1477.7</ele>
        <time>2014-11-11T15:17:03Z</time>
      </trkpt>
      <trkpt lat="45.7068" lon="6.16318">
        <ele>1480.2</ele>
        <time>2014-11-11T15:17:07Z</time>
      </trkpt>
      <trkpt lat="45.70686" lon="6.16316">
        <ele>1483.6</ele>
        <time>2014-11-11T15:17:17Z</time>
      </trkpt>
      <trkpt lat="45.70688" lon="6.16318">
        <ele>1482.5</ele>
        <time>2014-11-11T15:17:22Z</time>
      </trkpt>
      <trkpt lat="45.70692" lon="6.16318">
        <ele>1483.7</ele>
        <time>2014-11-11T15:17:28Z</time>
      </trkpt>
      <trkpt lat="45.70694" lon="6.16317">
        <ele>1485.2</ele>
        <time>2014-11-11T15:17:33Z</time>
      </trkpt>
      <trkpt lat="45.70696" lon="6.16316">
        <ele>1486.5</ele>
        <time>2014-11-11T15:17:38Z</time>
      </trkpt>
      <trkpt lat="45.70699" lon="6.16317">
        <ele>1486.2</ele>
        <time>2014-11-11T15:17:42Z</time>
      </trkpt>
      <trkpt lat="45.70701" lon="6.16318">
        <ele>1486.5</ele>
        <time>2014-11-11T15:17:46Z</time>
      </trkpt>
      <trkpt lat="45.70706" lon="6.16318">
        <ele>1487.7</ele>
        <time>2014-11-11T15:17:57Z</time>
      </trkpt>
      <trkpt lat="45.70709" lon="6.16321">
        <ele>1486.3</ele>
        <time>2014-11-11T15:18:09Z</time>
      </trkpt>
      <trkpt lat="45.7071" lon="6.16322">
        <ele>1485.1</ele>
        <time>2014-11-11T15:18:15Z</time>
      </trkpt>
      <trkpt lat="45.70713" lon="6.1633">
        <ele>1479.9</ele>
        <time>2014-11-11T15:18:26Z</time>
      </trkpt>
      <trkpt lat="45.70714" lon="6.16331">
        <ele>1479.6</ele>
        <time>2014-11-11T15:18:32Z</time>
      </trkpt>
      <trkpt lat="45.70713" lon="6.16332">
        <ele>1477.8</ele>
        <time>2014-11-11T15:18:40Z</time>
      </trkpt>
      <trkpt lat="45.70713" lon="6.16333">
        <ele>1476.9</ele>
        <time>2014-11-11T15:18:49Z</time>
      </trkpt>
      <trkpt lat="45.70714" lon="6.16334">
        <ele>1476.7</ele>
        <time>2014-11-11T15:18:53Z</time>
      </trkpt>
      <trkpt lat="45.70716" lon="6.16336">
        <ele>1475.7</ele>
        <time>2014-11-11T15:18:58Z</time>
      </trkpt>
      <trkpt lat="45.70716" lon="6.16332">
        <ele>1479.1</ele>
        <time>2014-11-11T15:19:19Z</time>
      </trkpt>
      <trkpt lat="45.7072" lon="6.16332">
        <ele>1480.1</ele>
        <time>2014-11-11T15:19:28Z</time>
      </trkpt>
      <trkpt lat="45.7072" lon="6.16333">
        <ele>1479.6</ele>
        <time>2014-11-11T15:19:34Z</time>
      </trkpt>
      <trkpt lat="45.70721" lon="6.16336">
        <ele>1477</ele>
        <time>2014-11-11T15:19:43Z</time>
      </trkpt>
      <trkpt lat="45.70724" lon="6.16335">
        <ele>1478.8</ele>
        <time>2014-11-11T15:19:49Z</time>
      </trkpt>
      <trkpt lat="45.70726" lon="6.16335">
        <ele>1479.8</ele>
        <time>2014-11-11T15:19:54Z</time>
      </trkpt>
      <trkpt lat="45.7073" lon="6.16336">
        <ele>1480.5</ele>
        <time>2014-11-11T15:20:02Z</time>
      </trkpt>
      <trkpt lat="45.70732" lon="6.16338">
        <ele>1479.3</ele>
        <time>2014-11-11T15:20:10Z</time>
      </trkpt>
      <trkpt lat="45.70734" lon="6.1634">
        <ele>1478.3</ele>
        <time>2014-11-11T15:20:18Z</time>
      </trkpt>
      <trkpt lat="45.70735" lon="6.16346">
        <ele>1473.6</ele>
        <time>2014-11-11T15:20:42Z</time>
      </trkpt>
      <trkpt lat="45.70734" lon="6.16341">
        <ele>1477.4</ele>
        <time>2014-11-11T15:20:49Z</time>
      </trkpt>
      <trkpt lat="45.70733" lon="6.16335">
        <ele>1481.8</ele>
        <time>2014-11-11T15:20:59Z</time>
      </trkpt>
      <trkpt lat="45.70733" lon="6.16332">
        <ele>1484.4</ele>
        <time>2014-11-11T15:21:05Z</time>
      </trkpt>
      <trkpt lat="45.70736" lon="6.16325">
        <ele>1490.6</ele>
        <time>2014-11-11T15:21:19Z</time>
      </trkpt>
      <trkpt lat="45.70733" lon="6.16327">
        <ele>1488.1</ele>
        <time>2014-11-11T15:21:26Z</time>
      </trkpt>
      <trkpt lat="45.70736" lon="6.16327">
        <ele>1489.2</ele>
        <time>2014-11-11T15:21:36Z</time>
      </trkpt>
      <trkpt lat="45.70739" lon="6.16325">
        <ele>1491.4</ele>
        <time>2014-11-11T15:21:43Z</time>
      </trkpt>
      <trkpt lat="45.70741" lon="6.1632">
        <ele>1495.7</ele>
        <time>2014-11-11T15:21:53Z</time>
      </trkpt>
      <trkpt lat="45.70741" lon="6.16321">
        <ele>1495</ele>
        <time>2014-11-11T15:21:58Z</time>
      </trkpt>
      <trkpt lat="45.7074" lon="6.16319">
        <ele>1496.9</ele>
        <time>2014-11-11T15:22:03Z</time>
      </trkpt>
      <trkpt lat="45.70739" lon="6.16316">
        <ele>1498.6</ele>
        <time>2014-11-11T15:22:12Z</time>
      </trkpt>
      <trkpt lat="45.7074" lon="6.16314">
        <ele>1500</ele>
        <time>2014-11-11T15:22:18Z</time>
      </trkpt>
      <trkpt lat="45.7074" lon="6.16314">
        <ele>1500.1</ele>
        <time>2014-11-11T15:22:23Z</time>
      </trkpt>
      <trkpt lat="45.70738" lon="6.16316">
        <ele>1498.3</ele>
        <time>2014-11-11T15:22:32Z</time>
      </trkpt>
      <trkpt lat="45.70741" lon="6.16313">
        <ele>1501.2</ele>
        <time>2014-11-11T15:22:40Z</time>
      </trkpt>
      <trkpt lat="45.70743" lon="6.16314">
        <ele>1501.4</ele>
        <time>2014-11-11T15:22:47Z</time>
      </trkpt>
      <trkpt lat="45.70746" lon="6.16314">
        <ele>1502</ele>
        <time>2014-11-11T15:22:52Z</time>
      </trkpt>
      <trkpt lat="45.70749" lon="6.16312">
        <ele>1504.2</ele>
        <time>2014-11-11T15:22:57Z</time>
      </trkpt>
      <trkpt lat="45.70751" lon="6.16311">
        <ele>1505.3</ele>
        <time>2014-11-11T15:23:02Z</time>
      </trkpt>
      <trkpt lat="45.70755" lon="6.16308">
        <ele>1508.6</ele>
        <time>2014-11-11T15:23:08Z</time>
      </trkpt>
      <trkpt lat="45.70756" lon="6.16307">
        <ele>1510.4</ele>
        <time>2014-11-11T15:23:12Z</time>
      </trkpt>
      <trkpt lat="45.70758" lon="6.16305">
        <ele>1512</ele>
        <time>2014-11-11T15:23:18Z</time>
      </trkpt>
      <trkpt lat="45.70759" lon="6.16303">
        <ele>1513.9</ele>
        <time>2014-11-11T15:23:27Z</time>
      </trkpt>
      <trkpt lat="45.70762" lon="6.16301">
        <ele>1515.9</ele>
        <time>2014-11-11T15:23:30Z</time>
      </trkpt>
      <trkpt lat="45.70767" lon="6.16295">
        <ele>1521.7</ele>
        <time>2014-11-11T15:23:36Z</time>
      </trkpt>
      <trkpt lat="45.70768" lon="6.16293">
        <ele>1523.6</ele>
        <time>2014-11-11T15:23:38Z</time>
      </trkpt>
      <trkpt lat="45.70768" lon="6.16292">
        <ele>1524.5</ele>
        <time>2014-11-11T15:23:49Z</time>
      </trkpt>
      <trkpt lat="45.70768" lon="6.16295">
        <ele>1522.1</ele>
        <time>2014-11-11T15:23:56Z</time>
      </trkpt>
      <trkpt lat="45.7077" lon="6.16296">
        <ele>1521.4</ele>
        <time>2014-11-11T15:24:04Z</time>
      </trkpt>
      <trkpt lat="45.7077" lon="6.16294">
        <ele>1523</ele>
        <time>2014-11-11T15:24:13Z</time>
      </trkpt>
      <trkpt lat="45.70773" lon="6.16292">
        <ele>1525.3</ele>
        <time>2014-11-11T15:24:18Z</time>
      </trkpt>
      <trkpt lat="45.70778" lon="6.1629">
        <ele>1527.7</ele>
        <time>2014-11-11T15:24:30Z</time>
      </trkpt>
      <trkpt lat="45.7078" lon="6.16294">
        <ele>1525.7</ele>
        <time>2014-11-11T15:24:39Z</time>
      </trkpt>
      <trkpt lat="45.70783" lon="6.16293">
        <ele>1527.1</ele>
        <time>2014-11-11T15:24:49Z</time>
      </trkpt>
      <trkpt lat="45.7079" lon="6.16285">
        <ele>1534.5</ele>
        <time>2014-11-11T15:25:01Z</time>
      </trkpt>
      <trkpt lat="45.70792" lon="6.16282">
        <ele>1537.4</ele>
        <time>2014-11-11T15:25:05Z</time>
      </trkpt>
      <trkpt lat="45.70792" lon="6.16277">
        <ele>1541.9</ele>
        <time>2014-11-11T15:25:15Z</time>
      </trkpt>
      <trkpt lat="45.70789" lon="6.16276">
        <ele>1541.8</ele>
        <time>2014-11-11T15:25:22Z</time>
      </trkpt>
      <trkpt lat="45.70791" lon="6.1627">
        <ele>1546.9</ele>
        <time>2014-11-11T15:25:34Z</time>
      </trkpt>
      <trkpt lat="45.70789" lon="6.16268">
        <ele>1548</ele>
        <time>2014-11-11T15:25:41Z</time>
      </trkpt>
      <trkpt lat="45.70791" lon="6.16268">
        <ele>1548.6</ele>
        <time>2014-11-11T15:25:47Z</time>
      </trkpt>
      <trkpt lat="45.70792" lon="6.16267">
        <ele>1549.6</ele>
        <time>2014-11-11T15:25:55Z</time>
      </trkpt>
      <trkpt lat="45.70788" lon="6.16266">
        <ele>1549.1</ele>
        <time>2014-11-11T15:26:02Z</time>
      </trkpt>
      <trkpt lat="45.70786" lon="6.16267">
        <ele>1548.2</ele>
        <time>2014-11-11T15:26:06Z</time>
      </trkpt>
      <trkpt lat="45.70785" lon="6.16266">
        <ele>1548.7</ele>
        <time>2014-11-11T15:26:10Z</time>
      </trkpt>
      <trkpt lat="45.70785" lon="6.16266">
        <ele>1548.6</ele>
        <time>2014-11-11T15:26:20Z</time>
      </trkpt>
      <trkpt lat="45.70783" lon="6.16264">
        <ele>1549.4</ele>
        <time>2014-11-11T15:26:29Z</time>
      </trkpt>
      <trkpt lat="45.70784" lon="6.16262">
        <ele>1551.2</ele>
        <time>2014-11-11T15:26:33Z</time>
      </trkpt>
      <trkpt lat="45.70785" lon="6.16261">
        <ele>1552.2</ele>
        <time>2014-11-11T15:26:39Z</time>
      </trkpt>
      <trkpt lat="45.70787" lon="6.16261">
        <ele>1552.7</ele>
        <time>2014-11-11T15:26:47Z</time>
      </trkpt>
      <trkpt lat="45.70789" lon="6.16258">
        <ele>1555.7</ele>
        <time>2014-11-11T15:26:53Z</time>
      </trkpt>
      <trkpt lat="45.70791" lon="6.1626">
        <ele>1555</ele>
        <time>2014-11-11T15:27:00Z</time>
      </trkpt>
      <trkpt lat="45.70793" lon="6.1626">
        <ele>1555.2</ele>
        <time>2014-11-11T15:27:05Z</time>
      </trkpt>
      <trkpt lat="45.70796" lon="6.1626">
        <ele>1556.1</ele>
        <time>2014-11-11T15:27:12Z</time>
      </trkpt>
      <trkpt lat="45.70798" lon="6.1626">
        <ele>1556.3</ele>
        <time>2014-11-11T15:27:19Z</time>
      </trkpt>
      <trkpt lat="45.708" lon="6.16262">
        <ele>1555.7</ele>
        <time>2014-11-11T15:27:25Z</time>
      </trkpt>
      <trkpt lat="45.70803" lon="6.16261">
        <ele>1557</ele>
        <time>2014-11-11T15:27:31Z</time>
      </trkpt>
      <trkpt lat="45.70805" lon="6.16261">
        <ele>1557.2</ele>
        <time>2014-11-11T15:27:36Z</time>
      </trkpt>
      <trkpt lat="45.70806" lon="6.16259">
        <ele>1559.1</ele>
        <time>2014-11-11T15:27:41Z</time>
      </trkpt>
      <trkpt lat="45.70808" lon="6.16258">
        <ele>1560.5</ele>
        <time>2014-11-11T15:27:47Z</time>
      </trkpt>
      <trkpt lat="45.70807" lon="6.16255">
        <ele>1562.7</ele>
        <time>2014-11-11T15:28:04Z</time>
      </trkpt>
      <trkpt lat="45.70808" lon="6.16254">
        <ele>1563.5</ele>
        <time>2014-11-11T15:28:13Z</time>
      </trkpt>
      <trkpt lat="45.70807" lon="6.16253">
        <ele>1564</ele>
        <time>2014-11-11T15:28:20Z</time>
      </trkpt>
      <trkpt lat="45.70809" lon="6.16252">
        <ele>1565</ele>
        <time>2014-11-11T15:28:31Z</time>
      </trkpt>
      <trkpt lat="45.7081" lon="6.1625">
        <ele>1566.9</ele>
        <time>2014-11-11T15:28:39Z</time>
      </trkpt>
      <trkpt lat="45.7081" lon="6.16249">
        <ele>1567.7</ele>
        <time>2014-11-11T15:28:46Z</time>
      </trkpt>
      <trkpt lat="45.7081" lon="6.16247">
        <ele>1569.2</ele>
        <time>2014-11-11T15:28:52Z</time>
      </trkpt>
      <trkpt lat="45.7081" lon="6.16248">
        <ele>1568.2</ele>
        <time>2014-11-11T15:28:59Z</time>
      </trkpt>
      <trkpt lat="45.70811" lon="6.16248">
        <ele>1568.4</ele>
        <time>2014-11-11T15:29:09Z</time>
      </trkpt>
      <trkpt lat="45.70812" lon="6.16248">
        <ele>1569.1</ele>
        <time>2014-11-11T15:29:14Z</time>
      </trkpt>
      <trkpt lat="45.70814" lon="6.16248">
        <ele>1569.3</ele>
        <time>2014-11-11T15:29:20Z</time>
      </trkpt>
      <trkpt lat="45.70814" lon="6.16247">
        <ele>1569.7</ele>
        <time>2014-11-11T15:29:25Z</time>
      </trkpt>
      <trkpt lat="45.70814" lon="6.16248">
        <ele>1569.5</ele>
        <time>2014-11-11T15:29:34Z</time>
      </trkpt>
      <trkpt lat="45.70817" lon="6.16247">
        <ele>1570.8</ele>
        <time>2014-11-11T15:29:43Z</time>
      </trkpt>
      <trkpt lat="45.70818" lon="6.16246">
        <ele>1571.6</ele>
        <time>2014-11-11T15:29:50Z</time>
      </trkpt>
      <trkpt lat="45.70819" lon="6.16246">
        <ele>1571.7</ele>
        <time>2014-11-11T15:29:55Z</time>
      </trkpt>
      <trkpt lat="45.7082" lon="6.16246">
        <ele>1571.9</ele>
        <time>2014-11-11T15:30:03Z</time>
      </trkpt>
      <trkpt lat="45.70821" lon="6.16247">
        <ele>1571.3</ele>
        <time>2014-11-11T15:30:08Z</time>
      </trkpt>
      <trkpt lat="45.70821" lon="6.16247">
        <ele>1571.6</ele>
        <time>2014-11-11T15:30:15Z</time>
      </trkpt>
      <trkpt lat="45.70823" lon="6.16246">
        <ele>1572.8</ele>
        <time>2014-11-11T15:30:22Z</time>
      </trkpt>
      <trkpt lat="45.70824" lon="6.16246">
        <ele>1572.6</ele>
        <time>2014-11-11T15:30:28Z</time>
      </trkpt>
      <trkpt lat="45.70825" lon="6.16246">
        <ele>1573.1</ele>
        <time>2014-11-11T15:30:41Z</time>
      </trkpt>
      <trkpt lat="45.70827" lon="6.16244">
        <ele>1574.5</ele>
        <time>2014-11-11T15:30:54Z</time>
      </trkpt>
      <trkpt lat="45.70829" lon="6.16243">
        <ele>1575.9</ele>
        <time>2014-11-11T15:31:02Z</time>
      </trkpt>
      <trkpt lat="45.70832" lon="6.16242">
        <ele>1576.9</ele>
        <time>2014-11-11T15:31:06Z</time>
      </trkpt>
      <trkpt lat="45.70831" lon="6.16242">
        <ele>1577</ele>
        <time>2014-11-11T15:31:12Z</time>
      </trkpt>
      <trkpt lat="45.70834" lon="6.1624">
        <ele>1579</ele>
        <time>2014-11-11T15:31:18Z</time>
      </trkpt>
      <trkpt lat="45.70836" lon="6.16241">
        <ele>1579</ele>
        <time>2014-11-11T15:31:24Z</time>
      </trkpt>
      <trkpt lat="45.70838" lon="6.16241">
        <ele>1579.5</ele>
        <time>2014-11-11T15:31:29Z</time>
      </trkpt>
      <trkpt lat="45.70843" lon="6.16236">
        <ele>1583.9</ele>
        <time>2014-11-11T15:31:35Z</time>
      </trkpt>
      <trkpt lat="45.70844" lon="6.16233">
        <ele>1586</ele>
        <time>2014-11-11T15:31:41Z</time>
      </trkpt>
      <trkpt lat="45.70843" lon="6.16236">
        <ele>1584</ele>
        <time>2014-11-11T15:31:46Z</time>
      </trkpt>
      <trkpt lat="45.70846" lon="6.1624">
        <ele>1581.3</ele>
        <time>2014-11-11T15:31:52Z</time>
      </trkpt>
      <trkpt lat="45.70849" lon="6.16238">
        <ele>1583.4</ele>
        <time>2014-11-11T15:32:00Z</time>
      </trkpt>
      <trkpt lat="45.7085" lon="6.16236">
        <ele>1584.8</ele>
        <time>2014-11-11T15:32:07Z</time>
      </trkpt>
      <trkpt lat="45.70854" lon="6.16235">
        <ele>1586.5</ele>
        <time>2014-11-11T15:32:10Z</time>
      </trkpt>
      <trkpt lat="45.70854" lon="6.16238">
        <ele>1584.4</ele>
        <time>2014-11-11T15:32:17Z</time>
      </trkpt>
      <trkpt lat="45.70858" lon="6.16236">
        <ele>1586.5</ele>
        <time>2014-11-11T15:32:35Z</time>
      </trkpt>
      <trkpt lat="45.70862" lon="6.16234">
        <ele>1588.7</ele>
        <time>2014-11-11T15:32:40Z</time>
      </trkpt>
      <trkpt lat="45.70864" lon="6.16234">
        <ele>1588.9</ele>
        <time>2014-11-11T15:32:45Z</time>
      </trkpt>
      <trkpt lat="45.70865" lon="6.16235">
        <ele>1588.3</ele>
        <time>2014-11-11T15:32:50Z</time>
      </trkpt>
      <trkpt lat="45.70867" lon="6.16237">
        <ele>1587.9</ele>
        <time>2014-11-11T15:32:56Z</time>
      </trkpt>
      <trkpt lat="45.70871" lon="6.16235">
        <ele>1589.9</ele>
        <time>2014-11-11T15:33:03Z</time>
      </trkpt>
      <trkpt lat="45.70874" lon="6.16234">
        <ele>1591.1</ele>
        <time>2014-11-11T15:33:08Z</time>
      </trkpt>
      <trkpt lat="45.70876" lon="6.16234">
        <ele>1591.2</ele>
        <time>2014-11-11T15:33:12Z</time>
      </trkpt>
      <trkpt lat="45.7088" lon="6.16233">
        <ele>1591.1</ele>
        <time>2014-11-11T15:33:20Z</time>
      </trkpt>
      <trkpt lat="45.70882" lon="6.16233">
        <ele>1591.2</ele>
        <time>2014-11-11T15:33:24Z</time>
      </trkpt>
      <trkpt lat="45.70883" lon="6.16232">
        <ele>1591.3</ele>
        <time>2014-11-11T15:33:29Z</time>
      </trkpt>
      <trkpt lat="45.70887" lon="6.16229">
        <ele>1592.6</ele>
        <time>2014-11-11T15:33:47Z</time>
      </trkpt>
      <trkpt lat="45.7089" lon="6.16227">
        <ele>1593.5</ele>
        <time>2014-11-11T15:33:57Z</time>
      </trkpt>
      <trkpt lat="45.70892" lon="6.16227">
        <ele>1593</ele>
        <time>2014-11-11T15:34:02Z</time>
      </trkpt>
      <trkpt lat="45.70894" lon="6.16226">
        <ele>1593.6</ele>
        <time>2014-11-11T15:34:08Z</time>
      </trkpt>
      <trkpt lat="45.70894" lon="6.16222">
        <ele>1595.7</ele>
        <time>2014-11-11T15:34:15Z</time>
      </trkpt>
      <trkpt lat="45.70895" lon="6.16219">
        <ele>1597</ele>
        <time>2014-11-11T15:34:20Z</time>
      </trkpt>
      <trkpt lat="45.70898" lon="6.16217">
        <ele>1597.5</ele>
        <time>2014-11-11T15:34:28Z</time>
      </trkpt>
      <trkpt lat="45.70899" lon="6.16214">
        <ele>1599</ele>
        <time>2014-11-11T15:34:33Z</time>
      </trkpt>
      <trkpt lat="45.70901" lon="6.16212">
        <ele>1599.1</ele>
        <time>2014-11-11T15:34:40Z</time>
      </trkpt>
      <trkpt lat="45.70904" lon="6.16211">
        <ele>1599.3</ele>
        <time>2014-11-11T15:34:44Z</time>
      </trkpt>
      <trkpt lat="45.70904" lon="6.16208">
        <ele>1600</ele>
        <time>2014-11-11T15:34:48Z</time>
      </trkpt>
      <trkpt lat="45.70904" lon="6.16204">
        <ele>1598.9</ele>
        <time>2014-11-11T15:34:53Z</time>
      </trkpt>
      <trkpt lat="45.70907" lon="6.16204">
        <ele>1597.8</ele>
        <time>2014-11-11T15:34:58Z</time>
      </trkpt>
      <trkpt lat="45.70912" lon="6.16201">
        <ele>1595.7</ele>
        <time>2014-11-11T15:35:04Z</time>
      </trkpt>
      <trkpt lat="45.70913" lon="6.16201">
        <ele>1594.9</ele>
        <time>2014-11-11T15:35:09Z</time>
      </trkpt>
      <trkpt lat="45.70916" lon="6.16197">
        <ele>1592.8</ele>
        <time>2014-11-11T15:35:14Z</time>
      </trkpt>
      <trkpt lat="45.70919" lon="6.16194">
        <ele>1590.4</ele>
        <time>2014-11-11T15:35:19Z</time>
      </trkpt>
      <trkpt lat="45.70921" lon="6.16191">
        <ele>1588.4</ele>
        <time>2014-11-11T15:35:25Z</time>
      </trkpt>
      <trkpt lat="45.70924" lon="6.16187">
        <ele>1585.8</ele>
        <time>2014-11-11T15:35:33Z</time>
      </trkpt>
      <trkpt lat="45.70925" lon="6.16185">
        <ele>1584.7</ele>
        <time>2014-11-11T15:35:39Z</time>
      </trkpt>
      <trkpt lat="45.70927" lon="6.16181">
        <ele>1582.4</ele>
        <time>2014-11-11T15:35:47Z</time>
      </trkpt>
      <trkpt lat="45.7093" lon="6.16179">
        <ele>1580.2</ele>
        <time>2014-11-11T15:35:55Z</time>
      </trkpt>
      <trkpt lat="45.70932" lon="6.16178">
        <ele>1579.2</ele>
        <time>2014-11-11T15:36:01Z</time>
      </trkpt>
      <trkpt lat="45.70935" lon="6.16174">
        <ele>1575.9</ele>
        <time>2014-11-11T15:36:08Z</time>
      </trkpt>
      <trkpt lat="45.70936" lon="6.16172">
        <ele>1574.4</ele>
        <time>2014-11-11T15:36:14Z</time>
      </trkpt>
      <trkpt lat="45.70941" lon="6.16174">
        <ele>1573.3</ele>
        <time>2014-11-11T15:36:21Z</time>
      </trkpt>
      <trkpt lat="45.70943" lon="6.16174">
        <ele>1572.5</ele>
        <time>2014-11-11T15:36:25Z</time>
      </trkpt>
      <trkpt lat="45.70945" lon="6.16173">
        <ele>1571.2</ele>
        <time>2014-11-11T15:36:31Z</time>
      </trkpt>
      <trkpt lat="45.70948" lon="6.16175">
        <ele>1570.8</ele>
        <time>2014-11-11T15:36:39Z</time>
      </trkpt>
      <trkpt lat="45.70949" lon="6.16175">
        <ele>1570.5</ele>
        <time>2014-11-11T15:36:48Z</time>
      </trkpt>
      <trkpt lat="45.7095" lon="6.16175">
        <ele>1570.5</ele>
        <time>2014-11-11T15:37:08Z</time>
      </trkpt>
      <trkpt lat="45.7095" lon="6.16174">
        <ele>1569.9</ele>
        <time>2014-11-11T15:37:45Z</time>
      </trkpt>
      <trkpt lat="45.7095" lon="6.16176">
        <ele>1570.7</ele>
        <time>2014-11-11T15:37:52Z</time>
      </trkpt>
      <trkpt lat="45.7095" lon="6.16176">
        <ele>1571</ele>
        <time>2014-11-11T15:38:00Z</time>
      </trkpt>
      <trkpt lat="45.7095" lon="6.16174">
        <ele>1569.8</ele>
        <time>2014-11-11T15:38:14Z</time>
      </trkpt>
      <trkpt lat="45.70951" lon="6.16172">
        <ele>1568.1</ele>
        <time>2014-11-11T15:38:19Z</time>
      </trkpt>
      <trkpt lat="45.70955" lon="6.16175">
        <ele>1568</ele>
        <time>2014-11-11T15:38:26Z</time>
      </trkpt>
      <trkpt lat="45.70957" lon="6.16179">
        <ele>1569.2</ele>
        <time>2014-11-11T15:38:30Z</time>
      </trkpt>
      <trkpt lat="45.70959" lon="6.1618">
        <ele>1569</ele>
        <time>2014-11-11T15:38:33Z</time>
      </trkpt>
      <trkpt lat="45.70964" lon="6.16184">
        <ele>1569.3</ele>
        <time>2014-11-11T15:38:38Z</time>
      </trkpt>
      <trkpt lat="45.70968" lon="6.16186">
        <ele>1568.3</ele>
        <time>2014-11-11T15:38:43Z</time>
      </trkpt>
      <trkpt lat="45.7097" lon="6.16189">
        <ele>1568.8</ele>
        <time>2014-11-11T15:38:48Z</time>
      </trkpt>
      <trkpt lat="45.70973" lon="6.16194">
        <ele>1571</ele>
        <time>2014-11-11T15:38:53Z</time>
      </trkpt>
      <trkpt lat="45.70977" lon="6.162">
        <ele>1572.2</ele>
        <time>2014-11-11T15:38:59Z</time>
      </trkpt>
      <trkpt lat="45.70979" lon="6.162">
        <ele>1571.6</ele>
        <time>2014-11-11T15:39:01Z</time>
      </trkpt>
      <trkpt lat="45.70981" lon="6.16201">
        <ele>1571.4</ele>
        <time>2014-11-11T15:39:03Z</time>
      </trkpt>
      <trkpt lat="45.70983" lon="6.16205">
        <ele>1573</ele>
        <time>2014-11-11T15:39:08Z</time>
      </trkpt>
      <trkpt lat="45.70985" lon="6.16207">
        <ele>1573.1</ele>
        <time>2014-11-11T15:39:13Z</time>
      </trkpt>
      <trkpt lat="45.70985" lon="6.16212">
        <ele>1573.6</ele>
        <time>2014-11-11T15:39:18Z</time>
      </trkpt>
      <trkpt lat="45.70987" lon="6.16214">
        <ele>1572.9</ele>
        <time>2014-11-11T15:39:21Z</time>
      </trkpt>
      <trkpt lat="45.70989" lon="6.16216">
        <ele>1571.9</ele>
        <time>2014-11-11T15:39:25Z</time>
      </trkpt>
      <trkpt lat="45.7099" lon="6.16218">
        <ele>1571.3</ele>
        <time>2014-11-11T15:39:31Z</time>
      </trkpt>
      <trkpt lat="45.70993" lon="6.16218">
        <ele>1570.3</ele>
        <time>2014-11-11T15:39:35Z</time>
      </trkpt>
      <trkpt lat="45.70995" lon="6.16219">
        <ele>1569.6</ele>
        <time>2014-11-11T15:39:40Z</time>
      </trkpt>
      <trkpt lat="45.70997" lon="6.16222">
        <ele>1568.9</ele>
        <time>2014-11-11T15:39:44Z</time>
      </trkpt>
      <trkpt lat="45.71" lon="6.16228">
        <ele>1567.7</ele>
        <time>2014-11-11T15:39:51Z</time>
      </trkpt>
      <trkpt lat="45.71004" lon="6.16232">
        <ele>1566.6</ele>
        <time>2014-11-11T15:39:56Z</time>
      </trkpt>
      <trkpt lat="45.71006" lon="6.16233">
        <ele>1566.1</ele>
        <time>2014-11-11T15:40:00Z</time>
      </trkpt>
      <trkpt lat="45.7101" lon="6.16235">
        <ele>1564.8</ele>
        <time>2014-11-11T15:40:05Z</time>
      </trkpt>
      <trkpt lat="45.71012" lon="6.16238">
        <ele>1564.3</ele>
        <time>2014-11-11T15:40:10Z</time>
      </trkpt>
      <trkpt lat="45.71017" lon="6.16241">
        <ele>1563.4</ele>
        <time>2014-11-11T15:40:16Z</time>
      </trkpt>
      <trkpt lat="45.7102" lon="6.16244">
        <ele>1562.9</ele>
        <time>2014-11-11T15:40:21Z</time>
      </trkpt>
      <trkpt lat="45.71024" lon="6.16249">
        <ele>1562.3</ele>
        <time>2014-11-11T15:40:26Z</time>
      </trkpt>
      <trkpt lat="45.71028" lon="6.16251">
        <ele>1561.8</ele>
        <time>2014-11-11T15:40:32Z</time>
      </trkpt>
      <trkpt lat="45.71032" lon="6.16253">
        <ele>1561</ele>
        <time>2014-11-11T15:40:39Z</time>
      </trkpt>
      <trkpt lat="45.71034" lon="6.16256">
        <ele>1561</ele>
        <time>2014-11-11T15:40:44Z</time>
      </trkpt>
      <trkpt lat="45.71037" lon="6.16258">
        <ele>1561</ele>
        <time>2014-11-11T15:40:50Z</time>
      </trkpt>
      <trkpt lat="45.71039" lon="6.16257">
        <ele>1560.1</ele>
        <time>2014-11-11T15:40:56Z</time>
      </trkpt>
      <trkpt lat="45.71044" lon="6.16257">
        <ele>1558.7</ele>
        <time>2014-11-11T15:41:04Z</time>
      </trkpt>
      <trkpt lat="45.71049" lon="6.16258">
        <ele>1556.8</ele>
        <time>2014-11-11T15:41:09Z</time>
      </trkpt>
      <trkpt lat="45.7105" lon="6.1626">
        <ele>1556.6</ele>
        <time>2014-11-11T15:41:11Z</time>
      </trkpt>
      <trkpt lat="45.7105" lon="6.1626">
        <ele>1556.6</ele>
        <time>2014-11-11T15:41:12Z</time>
      </trkpt>
      <trkpt lat="45.7105" lon="6.1626">
        <ele>1556.6</ele>
        <time>2014-11-11T15:41:13Z</time>
      </trkpt>
      <trkpt lat="45.71051" lon="6.1626">
        <ele>1556.5</ele>
        <time>2014-11-11T15:41:14Z</time>
      </trkpt>
      <trkpt lat="45.71054" lon="6.16263">
        <ele>1555.8</ele>
        <time>2014-11-11T15:41:16Z</time>
      </trkpt>
      <trkpt lat="45.71058" lon="6.16263">
        <ele>1554.3</ele>
        <time>2014-11-11T15:41:20Z</time>
      </trkpt>
      <trkpt lat="45.71063" lon="6.16261">
        <ele>1551.6</ele>
        <time>2014-11-11T15:41:27Z</time>
      </trkpt>
      <trkpt lat="45.71067" lon="6.16262">
        <ele>1550.4</ele>
        <time>2014-11-11T15:41:32Z</time>
      </trkpt>
      <trkpt lat="45.7107" lon="6.16266">
        <ele>1550.4</ele>
        <time>2014-11-11T15:41:38Z</time>
      </trkpt>
      <trkpt lat="45.71074" lon="6.16269">
        <ele>1549.3</ele>
        <time>2014-11-11T15:41:47Z</time>
      </trkpt>
      <trkpt lat="45.71079" lon="6.16271">
        <ele>1548.4</ele>
        <time>2014-11-11T15:41:52Z</time>
      </trkpt>
      <trkpt lat="45.71083" lon="6.16274">
        <ele>1548.1</ele>
        <time>2014-11-11T15:41:57Z</time>
      </trkpt>
      <trkpt lat="45.71084" lon="6.1628">
        <ele>1549.6</ele>
        <time>2014-11-11T15:42:02Z</time>
      </trkpt>
      <trkpt lat="45.71088" lon="6.16277">
        <ele>1547</ele>
        <time>2014-11-11T15:42:07Z</time>
      </trkpt>
      <trkpt lat="45.71091" lon="6.16277">
        <ele>1545.9</ele>
        <time>2014-11-11T15:42:11Z</time>
      </trkpt>
      <trkpt lat="45.71092" lon="6.16282">
        <ele>1547.4</ele>
        <time>2014-11-11T15:42:15Z</time>
      </trkpt>
      <trkpt lat="45.71096" lon="6.16288">
        <ele>1548.3</ele>
        <time>2014-11-11T15:42:21Z</time>
      </trkpt>
      <trkpt lat="45.71099" lon="6.16289">
        <ele>1547.7</ele>
        <time>2014-11-11T15:42:26Z</time>
      </trkpt>
      <trkpt lat="45.71103" lon="6.16293">
        <ele>1547.1</ele>
        <time>2014-11-11T15:42:30Z</time>
      </trkpt>
      <trkpt lat="45.71107" lon="6.16296">
        <ele>1545.2</ele>
        <time>2014-11-11T15:42:35Z</time>
      </trkpt>
      <trkpt lat="45.7111" lon="6.16299">
        <ele>1543.7</ele>
        <time>2014-11-11T15:42:40Z</time>
      </trkpt>
      <trkpt lat="45.71112" lon="6.16302">
        <ele>1542.5</ele>
        <time>2014-11-11T15:42:45Z</time>
      </trkpt>
      <trkpt lat="45.71117" lon="6.16305">
        <ele>1540.6</ele>
        <time>2014-11-11T15:42:50Z</time>
      </trkpt>
      <trkpt lat="45.71119" lon="6.16307">
        <ele>1539.6</ele>
        <time>2014-11-11T15:42:52Z</time>
      </trkpt>
      <trkpt lat="45.71125" lon="6.1631">
        <ele>1537.9</ele>
        <time>2014-11-11T15:42:57Z</time>
      </trkpt>
      <trkpt lat="45.71126" lon="6.16311">
        <ele>1537.4</ele>
        <time>2014-11-11T15:42:58Z</time>
      </trkpt>
      <trkpt lat="45.71128" lon="6.16314">
        <ele>1536.1</ele>
        <time>2014-11-11T15:43:00Z</time>
      </trkpt>
      <trkpt lat="45.71132" lon="6.1632">
        <ele>1534.1</ele>
        <time>2014-11-11T15:43:08Z</time>
      </trkpt>
      <trkpt lat="45.71135" lon="6.1632">
        <ele>1533</ele>
        <time>2014-11-11T15:43:14Z</time>
      </trkpt>
      <trkpt lat="45.71139" lon="6.16321">
        <ele>1531.7</ele>
        <time>2014-11-11T15:43:20Z</time>
      </trkpt>
      <trkpt lat="45.71142" lon="6.16322">
        <ele>1530.5</ele>
        <time>2014-11-11T15:43:25Z</time>
      </trkpt>
      <trkpt lat="45.71147" lon="6.16322">
        <ele>1529</ele>
        <time>2014-11-11T15:43:31Z</time>
      </trkpt>
      <trkpt lat="45.71151" lon="6.16325">
        <ele>1527.7</ele>
        <time>2014-11-11T15:43:39Z</time>
      </trkpt>
      <trkpt lat="45.71156" lon="6.1633">
        <ele>1526.9</ele>
        <time>2014-11-11T15:43:46Z</time>
      </trkpt>
      <trkpt lat="45.71157" lon="6.16334">
        <ele>1526.9</ele>
        <time>2014-11-11T15:43:48Z</time>
      </trkpt>
      <trkpt lat="45.7116" lon="6.16341">
        <ele>1527.4</ele>
        <time>2014-11-11T15:43:53Z</time>
      </trkpt>
      <trkpt lat="45.71163" lon="6.16346">
        <ele>1527.6</ele>
        <time>2014-11-11T15:43:58Z</time>
      </trkpt>
      <trkpt lat="45.71165" lon="6.1635">
        <ele>1527.9</ele>
        <time>2014-11-11T15:44:02Z</time>
      </trkpt>
      <trkpt lat="45.7117" lon="6.16353">
        <ele>1527.9</ele>
        <time>2014-11-11T15:44:08Z</time>
      </trkpt>
      <trkpt lat="45.71172" lon="6.16354">
        <ele>1527.9</ele>
        <time>2014-11-11T15:44:10Z</time>
      </trkpt>
      <trkpt lat="45.71176" lon="6.16358">
        <ele>1528.6</ele>
        <time>2014-11-11T15:44:16Z</time>
      </trkpt>
      <trkpt lat="45.71181" lon="6.16363">
        <ele>1529.7</ele>
        <time>2014-11-11T15:44:22Z</time>
      </trkpt>
      <trkpt lat="45.71184" lon="6.16367">
        <ele>1531.1</ele>
        <time>2014-11-11T15:44:26Z</time>
      </trkpt>
      <trkpt lat="45.71187" lon="6.16374">
        <ele>1533.4</ele>
        <time>2014-11-11T15:44:31Z</time>
      </trkpt>
      <trkpt lat="45.71187" lon="6.16378">
        <ele>1533.1</ele>
        <time>2014-11-11T15:44:34Z</time>
      </trkpt>
      <trkpt lat="45.7119" lon="6.16386">
        <ele>1531.3</ele>
        <time>2014-11-11T15:44:40Z</time>
      </trkpt>
      <trkpt lat="45.7119" lon="6.1639">
        <ele>1530.4</ele>
        <time>2014-11-11T15:44:44Z</time>
      </trkpt>
      <trkpt lat="45.71195" lon="6.16396">
        <ele>1529.9</ele>
        <time>2014-11-11T15:44:50Z</time>
      </trkpt>
      <trkpt lat="45.71201" lon="6.16402">
        <ele>1529.8</ele>
        <time>2014-11-11T15:44:55Z</time>
      </trkpt>
      <trkpt lat="45.71204" lon="6.16403">
        <ele>1530</ele>
        <time>2014-11-11T15:44:58Z</time>
      </trkpt>
      <trkpt lat="45.71209" lon="6.16408">
        <ele>1530.1</ele>
        <time>2014-11-11T15:45:05Z</time>
      </trkpt>
      <trkpt lat="45.71211" lon="6.16411">
        <ele>1529.2</ele>
        <time>2014-11-11T15:45:09Z</time>
      </trkpt>
      <trkpt lat="45.71214" lon="6.16413">
        <ele>1528.2</ele>
        <time>2014-11-11T15:45:12Z</time>
      </trkpt>
      <trkpt lat="45.71218" lon="6.16415">
        <ele>1526.9</ele>
        <time>2014-11-11T15:45:17Z</time>
      </trkpt>
      <trkpt lat="45.71222" lon="6.16416">
        <ele>1525.8</ele>
        <time>2014-11-11T15:45:21Z</time>
      </trkpt>
      <trkpt lat="45.71227" lon="6.16418">
        <ele>1524.6</ele>
        <time>2014-11-11T15:45:28Z</time>
      </trkpt>
      <trkpt lat="45.71229" lon="6.16422">
        <ele>1524.1</ele>
        <time>2014-11-11T15:45:33Z</time>
      </trkpt>
      <trkpt lat="45.71233" lon="6.16427">
        <ele>1523.4</ele>
        <time>2014-11-11T15:45:39Z</time>
      </trkpt>
      <trkpt lat="45.71234" lon="6.16429">
        <ele>1523.3</ele>
        <time>2014-11-11T15:45:40Z</time>
      </trkpt>
      <trkpt lat="45.71238" lon="6.16434">
        <ele>1522.9</ele>
        <time>2014-11-11T15:45:46Z</time>
      </trkpt>
      <trkpt lat="45.71242" lon="6.16437">
        <ele>1522.6</ele>
        <time>2014-11-11T15:45:51Z</time>
      </trkpt>
      <trkpt lat="45.71244" lon="6.16441">
        <ele>1522.8</ele>
        <time>2014-11-11T15:45:56Z</time>
      </trkpt>
      <trkpt lat="45.71246" lon="6.16443">
        <ele>1522.8</ele>
        <time>2014-11-11T15:46:02Z</time>
      </trkpt>
      <trkpt lat="45.71249" lon="6.16446">
        <ele>1523</ele>
        <time>2014-11-11T15:46:09Z</time>
      </trkpt>
      <trkpt lat="45.71253" lon="6.16447">
        <ele>1523</ele>
        <time>2014-11-11T15:46:15Z</time>
      </trkpt>
      <trkpt lat="45.71256" lon="6.16448">
        <ele>1523.1</ele>
        <time>2014-11-11T15:46:20Z</time>
      </trkpt>
      <trkpt lat="45.71259" lon="6.16449">
        <ele>1523.1</ele>
        <time>2014-11-11T15:46:25Z</time>
      </trkpt>
      <trkpt lat="45.71263" lon="6.16449">
        <ele>1523.1</ele>
        <time>2014-11-11T15:46:31Z</time>
      </trkpt>
      <trkpt lat="45.71267" lon="6.16451">
        <ele>1523.4</ele>
        <time>2014-11-11T15:46:37Z</time>
      </trkpt>
      <trkpt lat="45.71273" lon="6.16455">
        <ele>1524.3</ele>
        <time>2014-11-11T15:46:43Z</time>
      </trkpt>
      <trkpt lat="45.71275" lon="6.16456">
        <ele>1524.6</ele>
        <time>2014-11-11T15:46:44Z</time>
      </trkpt>
      <trkpt lat="45.71279" lon="6.16462">
        <ele>1524.4</ele>
        <time>2014-11-11T15:46:49Z</time>
      </trkpt>
      <trkpt lat="45.71281" lon="6.16463">
        <ele>1523.9</ele>
        <time>2014-11-11T15:46:51Z</time>
      </trkpt>
      <trkpt lat="45.71287" lon="6.16469">
        <ele>1522.3</ele>
        <time>2014-11-11T15:46:59Z</time>
      </trkpt>
      <trkpt lat="45.71288" lon="6.16469">
        <ele>1522.5</ele>
        <time>2014-11-11T15:47:00Z</time>
      </trkpt>
      <trkpt lat="45.71292" lon="6.1647">
        <ele>1522</ele>
        <time>2014-11-11T15:47:03Z</time>
      </trkpt>
      <trkpt lat="45.71296" lon="6.16473">
        <ele>1519.5</ele>
        <time>2014-11-11T15:47:07Z</time>
      </trkpt>
      <trkpt lat="45.71298" lon="6.16474">
        <ele>1518.4</ele>
        <time>2014-11-11T15:47:09Z</time>
      </trkpt>
      <trkpt lat="45.71304" lon="6.16475">
        <ele>1515.4</ele>
        <time>2014-11-11T15:47:15Z</time>
      </trkpt>
      <trkpt lat="45.71305" lon="6.16476">
        <ele>1514.4</ele>
        <time>2014-11-11T15:47:17Z</time>
      </trkpt>
      <trkpt lat="45.7131" lon="6.16477">
        <ele>1511.9</ele>
        <time>2014-11-11T15:47:21Z</time>
      </trkpt>
      <trkpt lat="45.71315" lon="6.1648">
        <ele>1509.6</ele>
        <time>2014-11-11T15:47:25Z</time>
      </trkpt>
      <trkpt lat="45.71316" lon="6.16485">
        <ele>1507.9</ele>
        <time>2014-11-11T15:47:30Z</time>
      </trkpt>
      <trkpt lat="45.71321" lon="6.16489">
        <ele>1505.6</ele>
        <time>2014-11-11T15:47:37Z</time>
      </trkpt>
      <trkpt lat="45.71326" lon="6.16493">
        <ele>1503.6</ele>
        <time>2014-11-11T15:47:41Z</time>
      </trkpt>
      <trkpt lat="45.71333" lon="6.16501">
        <ele>1501</ele>
        <time>2014-11-11T15:47:47Z</time>
      </trkpt>
      <trkpt lat="45.71337" lon="6.16504">
        <ele>1499.5</ele>
        <time>2014-11-11T15:47:52Z</time>
      </trkpt>
      <trkpt lat="45.7134" lon="6.16508">
        <ele>1498.9</ele>
        <time>2014-11-11T15:47:56Z</time>
      </trkpt>
      <trkpt lat="45.71344" lon="6.16511">
        <ele>1498</ele>
        <time>2014-11-11T15:47:59Z</time>
      </trkpt>
      <trkpt lat="45.71352" lon="6.16516">
        <ele>1496.6</ele>
        <time>2014-11-11T15:48:05Z</time>
      </trkpt>
      <trkpt lat="45.71357" lon="6.16524">
        <ele>1496.4</ele>
        <time>2014-11-11T15:48:11Z</time>
      </trkpt>
      <trkpt lat="45.71364" lon="6.16529">
        <ele>1496.3</ele>
        <time>2014-11-11T15:48:17Z</time>
      </trkpt>
      <trkpt lat="45.71368" lon="6.16534">
        <ele>1496.8</ele>
        <time>2014-11-11T15:48:21Z</time>
      </trkpt>
      <trkpt lat="45.71382" lon="6.16546">
        <ele>1495</ele>
        <time>2014-11-11T15:48:28Z</time>
      </trkpt>
      <trkpt lat="45.71389" lon="6.16551">
        <ele>1492.3</ele>
        <time>2014-11-11T15:48:33Z</time>
      </trkpt>
      <trkpt lat="45.71395" lon="6.16554">
        <ele>1490.5</ele>
        <time>2014-11-11T15:48:39Z</time>
      </trkpt>
      <trkpt lat="45.71401" lon="6.1656">
        <ele>1488.3</ele>
        <time>2014-11-11T15:48:46Z</time>
      </trkpt>
      <trkpt lat="45.71407" lon="6.1656">
        <ele>1487.6</ele>
        <time>2014-11-11T15:48:52Z</time>
      </trkpt>
      <trkpt lat="45.71411" lon="6.16561">
        <ele>1487</ele>
        <time>2014-11-11T15:48:57Z</time>
      </trkpt>
      <trkpt lat="45.71416" lon="6.16562">
        <ele>1486.4</ele>
        <time>2014-11-11T15:49:00Z</time>
      </trkpt>
      <trkpt lat="45.71423" lon="6.16566">
        <ele>1485.3</ele>
        <time>2014-11-11T15:49:05Z</time>
      </trkpt>
      <trkpt lat="45.71425" lon="6.16567">
        <ele>1485.1</ele>
        <time>2014-11-11T15:49:07Z</time>
      </trkpt>
      <trkpt lat="45.7144" lon="6.16571">
        <ele>1484.2</ele>
        <time>2014-11-11T15:49:15Z</time>
      </trkpt>
      <trkpt lat="45.71442" lon="6.16571">
        <ele>1484.1</ele>
        <time>2014-11-11T15:49:16Z</time>
      </trkpt>
      <trkpt lat="45.71453" lon="6.16571">
        <ele>1483.7</ele>
        <time>2014-11-11T15:49:22Z</time>
      </trkpt>
      <trkpt lat="45.7146" lon="6.16574">
        <ele>1483.7</ele>
        <time>2014-11-11T15:49:28Z</time>
      </trkpt>
      <trkpt lat="45.71467" lon="6.16582">
        <ele>1483.3</ele>
        <time>2014-11-11T15:49:35Z</time>
      </trkpt>
      <trkpt lat="45.71471" lon="6.16588">
        <ele>1483.6</ele>
        <time>2014-11-11T15:49:39Z</time>
      </trkpt>
      <trkpt lat="45.71474" lon="6.16591">
        <ele>1483.8</ele>
        <time>2014-11-11T15:49:42Z</time>
      </trkpt>
      <trkpt lat="45.71481" lon="6.16598">
        <ele>1484.2</ele>
        <time>2014-11-11T15:49:49Z</time>
      </trkpt>
      <trkpt lat="45.71482" lon="6.16599">
        <ele>1484.3</ele>
        <time>2014-11-11T15:49:50Z</time>
      </trkpt>
      <trkpt lat="45.71484" lon="6.16601">
        <ele>1484.4</ele>
        <time>2014-11-11T15:49:53Z</time>
      </trkpt>
      <trkpt lat="45.71488" lon="6.16605">
        <ele>1484.9</ele>
        <time>2014-11-11T15:49:57Z</time>
      </trkpt>
      <trkpt lat="45.71492" lon="6.16609">
        <ele>1485.4</ele>
        <time>2014-11-11T15:50:01Z</time>
      </trkpt>
      <trkpt lat="45.71498" lon="6.16613">
        <ele>1486</ele>
        <time>2014-11-11T15:50:07Z</time>
      </trkpt>
      <trkpt lat="45.71507" lon="6.1662">
        <ele>1487.5</ele>
        <time>2014-11-11T15:50:14Z</time>
      </trkpt>
      <trkpt lat="45.71509" lon="6.16623">
        <ele>1488.1</ele>
        <time>2014-11-11T15:50:16Z</time>
      </trkpt>
      <trkpt lat="45.71513" lon="6.16629">
        <ele>1488.2</ele>
        <time>2014-11-11T15:50:21Z</time>
      </trkpt>
      <trkpt lat="45.71515" lon="6.1663">
        <ele>1488.1</ele>
        <time>2014-11-11T15:50:23Z</time>
      </trkpt>
      <trkpt lat="45.71525" lon="6.16636">
        <ele>1487.9</ele>
        <time>2014-11-11T15:50:31Z</time>
      </trkpt>
      <trkpt lat="45.71526" lon="6.16636">
        <ele>1487.9</ele>
        <time>2014-11-11T15:50:32Z</time>
      </trkpt>
      <trkpt lat="45.7153" lon="6.16638">
        <ele>1488</ele>
        <time>2014-11-11T15:50:35Z</time>
      </trkpt>
      <trkpt lat="45.71534" lon="6.16641">
        <ele>1488.2</ele>
        <time>2014-11-11T15:50:38Z</time>
      </trkpt>
      <trkpt lat="45.71537" lon="6.16648">
        <ele>1488.6</ele>
        <time>2014-11-11T15:50:43Z</time>
      </trkpt>
      <trkpt lat="45.7154" lon="6.16659">
        <ele>1489.3</ele>
        <time>2014-11-11T15:50:50Z</time>
      </trkpt>
      <trkpt lat="45.7154" lon="6.16669">
        <ele>1489.7</ele>
        <time>2014-11-11T15:50:57Z</time>
      </trkpt>
      <trkpt lat="45.71541" lon="6.16672">
        <ele>1490</ele>
        <time>2014-11-11T15:50:59Z</time>
      </trkpt>
      <trkpt lat="45.71544" lon="6.16678">
        <ele>1490.7</ele>
        <time>2014-11-11T15:51:04Z</time>
      </trkpt>
      <trkpt lat="45.7155" lon="6.16686">
        <ele>1491.6</ele>
        <time>2014-11-11T15:51:12Z</time>
      </trkpt>
      <trkpt lat="45.71554" lon="6.16692">
        <ele>1492.5</ele>
        <time>2014-11-11T15:51:20Z</time>
      </trkpt>
      <trkpt lat="45.71557" lon="6.16695">
        <ele>1493.3</ele>
        <time>2014-11-11T15:51:26Z</time>
      </trkpt>
      <trkpt lat="45.71564" lon="6.16702">
        <ele>1495.1</ele>
        <time>2014-11-11T15:51:34Z</time>
      </trkpt>
      <trkpt lat="45.7157" lon="6.1671">
        <ele>1496.9</ele>
        <time>2014-11-11T15:51:40Z</time>
      </trkpt>
      <trkpt lat="45.71576" lon="6.16717">
        <ele>1497.1</ele>
        <time>2014-11-11T15:51:46Z</time>
      </trkpt>
      <trkpt lat="45.71578" lon="6.16719">
        <ele>1497.3</ele>
        <time>2014-11-11T15:51:48Z</time>
      </trkpt>
      <trkpt lat="45.71579" lon="6.16721">
        <ele>1497.4</ele>
        <time>2014-11-11T15:51:51Z</time>
      </trkpt>
      <trkpt lat="45.71585" lon="6.16726">
        <ele>1498.3</ele>
        <time>2014-11-11T15:51:57Z</time>
      </trkpt>
      <trkpt lat="45.71593" lon="6.1673">
        <ele>1500.2</ele>
        <time>2014-11-11T15:52:04Z</time>
      </trkpt>
      <trkpt lat="45.71598" lon="6.16732">
        <ele>1501.4</ele>
        <time>2014-11-11T15:52:07Z</time>
      </trkpt>
      <trkpt lat="45.71604" lon="6.16737">
        <ele>1503.1</ele>
        <time>2014-11-11T15:52:13Z</time>
      </trkpt>
      <trkpt lat="45.71604" lon="6.16738">
        <ele>1503.3</ele>
        <time>2014-11-11T15:52:14Z</time>
      </trkpt>
      <trkpt lat="45.71608" lon="6.16738">
        <ele>1504.5</ele>
        <time>2014-11-11T15:52:18Z</time>
      </trkpt>
      <trkpt lat="45.71612" lon="6.16737">
        <ele>1505.4</ele>
        <time>2014-11-11T15:52:21Z</time>
      </trkpt>
      <trkpt lat="45.71619" lon="6.1674">
        <ele>1507.9</ele>
        <time>2014-11-11T15:52:25Z</time>
      </trkpt>
      <trkpt lat="45.71631" lon="6.1675">
        <ele>1509.9</ele>
        <time>2014-11-11T15:52:31Z</time>
      </trkpt>
      <trkpt lat="45.71632" lon="6.1675">
        <ele>1509.8</ele>
        <time>2014-11-11T15:52:32Z</time>
      </trkpt>
      <trkpt lat="45.71635" lon="6.16753">
        <ele>1509.9</ele>
        <time>2014-11-11T15:52:35Z</time>
      </trkpt>
      <trkpt lat="45.71643" lon="6.16757">
        <ele>1509.8</ele>
        <time>2014-11-11T15:52:42Z</time>
      </trkpt>
      <trkpt lat="45.71648" lon="6.16759">
        <ele>1509.8</ele>
        <time>2014-11-11T15:52:47Z</time>
      </trkpt>
      <trkpt lat="45.71654" lon="6.16761">
        <ele>1509.8</ele>
        <time>2014-11-11T15:52:51Z</time>
      </trkpt>
      <trkpt lat="45.71667" lon="6.16766">
        <ele>1510.3</ele>
        <time>2014-11-11T15:53:00Z</time>
      </trkpt>
      <trkpt lat="45.71675" lon="6.16771">
        <ele>1511.5</ele>
        <time>2014-11-11T15:53:06Z</time>
      </trkpt>
      <trkpt lat="45.7168" lon="6.16776">
        <ele>1512.9</ele>
        <time>2014-11-11T15:53:10Z</time>
      </trkpt>
      <trkpt lat="45.71684" lon="6.16777">
        <ele>1513.1</ele>
        <time>2014-11-11T15:53:13Z</time>
      </trkpt>
      <trkpt lat="45.71691" lon="6.16784">
        <ele>1515.5</ele>
        <time>2014-11-11T15:53:19Z</time>
      </trkpt>
      <trkpt lat="45.71701" lon="6.1679">
        <ele>1517.9</ele>
        <time>2014-11-11T15:53:25Z</time>
      </trkpt>
      <trkpt lat="45.71714" lon="6.16796">
        <ele>1517.1</ele>
        <time>2014-11-11T15:53:31Z</time>
      </trkpt>
      <trkpt lat="45.71722" lon="6.16801">
        <ele>1514.8</ele>
        <time>2014-11-11T15:53:37Z</time>
      </trkpt>
      <trkpt lat="45.71727" lon="6.16805">
        <ele>1513.5</ele>
        <time>2014-11-11T15:53:41Z</time>
      </trkpt>
      <trkpt lat="45.71732" lon="6.16807">
        <ele>1512.4</ele>
        <time>2014-11-11T15:53:45Z</time>
      </trkpt>
      <trkpt lat="45.71745" lon="6.16815">
        <ele>1510</ele>
        <time>2014-11-11T15:53:53Z</time>
      </trkpt>
      <trkpt lat="45.7175" lon="6.16817">
        <ele>1509.3</ele>
        <time>2014-11-11T15:53:57Z</time>
      </trkpt>
      <trkpt lat="45.71751" lon="6.16819">
        <ele>1509.2</ele>
        <time>2014-11-11T15:53:59Z</time>
      </trkpt>
      <trkpt lat="45.71758" lon="6.16822">
        <ele>1508.5</ele>
        <time>2014-11-11T15:54:04Z</time>
      </trkpt>
      <trkpt lat="45.71768" lon="6.1683">
        <ele>1508</ele>
        <time>2014-11-11T15:54:11Z</time>
      </trkpt>
      <trkpt lat="45.71775" lon="6.16837">
        <ele>1508.2</ele>
        <time>2014-11-11T15:54:17Z</time>
      </trkpt>
      <trkpt lat="45.71779" lon="6.16842">
        <ele>1508.7</ele>
        <time>2014-11-11T15:54:20Z</time>
      </trkpt>
      <trkpt lat="45.71787" lon="6.1685">
        <ele>1509.8</ele>
        <time>2014-11-11T15:54:26Z</time>
      </trkpt>
      <trkpt lat="45.71789" lon="6.16853">
        <ele>1510.2</ele>
        <time>2014-11-11T15:54:28Z</time>
      </trkpt>
      <trkpt lat="45.71797" lon="6.16864">
        <ele>1511.7</ele>
        <time>2014-11-11T15:54:35Z</time>
      </trkpt>
      <trkpt lat="45.718" lon="6.16867">
        <ele>1512</ele>
        <time>2014-11-11T15:54:38Z</time>
      </trkpt>
      <trkpt lat="45.71803" lon="6.16871">
        <ele>1512.7</ele>
        <time>2014-11-11T15:54:45Z</time>
      </trkpt>
      <trkpt lat="45.71804" lon="6.16874">
        <ele>1513.1</ele>
        <time>2014-11-11T15:55:18Z</time>
      </trkpt>
      <trkpt lat="45.71809" lon="6.1688">
        <ele>1512.3</ele>
        <time>2014-11-11T15:55:25Z</time>
      </trkpt>
      <trkpt lat="45.71813" lon="6.16887">
        <ele>1510.9</ele>
        <time>2014-11-11T15:55:32Z</time>
      </trkpt>
      <trkpt lat="45.71818" lon="6.16893">
        <ele>1510</ele>
        <time>2014-11-11T15:55:36Z</time>
      </trkpt>
      <trkpt lat="45.71824" lon="6.16903">
        <ele>1509</ele>
        <time>2014-11-11T15:55:43Z</time>
      </trkpt>
      <trkpt lat="45.71833" lon="6.16915">
        <ele>1508.5</ele>
        <time>2014-11-11T15:55:48Z</time>
      </trkpt>
      <trkpt lat="45.71839" lon="6.16923">
        <ele>1508.9</ele>
        <time>2014-11-11T15:55:51Z</time>
      </trkpt>
      <trkpt lat="45.71841" lon="6.16924">
        <ele>1509.1</ele>
        <time>2014-11-11T15:55:52Z</time>
      </trkpt>
      <trkpt lat="45.71843" lon="6.16926">
        <ele>1509.4</ele>
        <time>2014-11-11T15:55:53Z</time>
      </trkpt>
      <trkpt lat="45.71845" lon="6.16928">
        <ele>1509.7</ele>
        <time>2014-11-11T15:55:54Z</time>
      </trkpt>
      <trkpt lat="45.71847" lon="6.16929">
        <ele>1510</ele>
        <time>2014-11-11T15:55:55Z</time>
      </trkpt>
      <trkpt lat="45.71859" lon="6.16937">
        <ele>1512.5</ele>
        <time>2014-11-11T15:56:01Z</time>
      </trkpt>
      <trkpt lat="45.71868" lon="6.1694">
        <ele>1514.6</ele>
        <time>2014-11-11T15:56:05Z</time>
      </trkpt>
      <trkpt lat="45.7188" lon="6.16945">
        <ele>1516.2</ele>
        <time>2014-11-11T15:56:10Z</time>
      </trkpt>
      <trkpt lat="45.71885" lon="6.16947">
        <ele>1515.9</ele>
        <time>2014-11-11T15:56:12Z</time>
      </trkpt>
      <trkpt lat="45.71886" lon="6.16952">
        <ele>1516.5</ele>
        <time>2014-11-11T15:56:16Z</time>
      </trkpt>
      <trkpt lat="45.71881" lon="6.16953">
        <ele>1516.9</ele>
        <time>2014-11-11T15:56:20Z</time>
      </trkpt>
      <trkpt lat="45.71877" lon="6.16956">
        <ele>1517.6</ele>
        <time>2014-11-11T15:56:25Z</time>
      </trkpt>
      <trkpt lat="45.71868" lon="6.16956">
        <ele>1515.6</ele>
        <time>2014-11-11T15:56:30Z</time>
      </trkpt>
      <trkpt lat="45.71859" lon="6.1696">
        <ele>1512.5</ele>
        <time>2014-11-11T15:56:34Z</time>
      </trkpt>
      <trkpt lat="45.71855" lon="6.16962">
        <ele>1511.1</ele>
        <time>2014-11-11T15:56:36Z</time>
      </trkpt>
      <trkpt lat="45.71844" lon="6.16963">
        <ele>1507.2</ele>
        <time>2014-11-11T15:56:42Z</time>
      </trkpt>
      <trkpt lat="45.71841" lon="6.16966">
        <ele>1505.3</ele>
        <time>2014-11-11T15:56:44Z</time>
      </trkpt>
      <trkpt lat="45.71833" lon="6.16966">
        <ele>1502.8</ele>
        <time>2014-11-11T15:56:48Z</time>
      </trkpt>
      <trkpt lat="45.7183" lon="6.16965">
        <ele>1501.9</ele>
        <time>2014-11-11T15:56:50Z</time>
      </trkpt>
      <trkpt lat="45.71823" lon="6.16967">
        <ele>1499.6</ele>
        <time>2014-11-11T15:56:53Z</time>
      </trkpt>
      <trkpt lat="45.71819" lon="6.16977">
        <ele>1495.1</ele>
        <time>2014-11-11T15:56:58Z</time>
      </trkpt>
      <trkpt lat="45.71818" lon="6.16981">
        <ele>1493.5</ele>
        <time>2014-11-11T15:57:01Z</time>
      </trkpt>
      <trkpt lat="45.71817" lon="6.16984">
        <ele>1492.4</ele>
        <time>2014-11-11T15:57:15Z</time>
      </trkpt>
      <trkpt lat="45.71819" lon="6.16984">
        <ele>1493.1</ele>
        <time>2014-11-11T15:57:35Z</time>
      </trkpt>
      <trkpt lat="45.71822" lon="6.16992">
        <ele>1491.7</ele>
        <time>2014-11-11T15:57:42Z</time>
      </trkpt>
      <trkpt lat="45.71823" lon="6.16999">
        <ele>1490.5</ele>
        <time>2014-11-11T15:57:46Z</time>
      </trkpt>
      <trkpt lat="45.71829" lon="6.1701">
        <ele>1489.6</ele>
        <time>2014-11-11T15:57:53Z</time>
      </trkpt>
      <trkpt lat="45.71836" lon="6.17022">
        <ele>1489.2</ele>
        <time>2014-11-11T15:57:58Z</time>
      </trkpt>
      <trkpt lat="45.7184" lon="6.17031">
        <ele>1488.8</ele>
        <time>2014-11-11T15:58:02Z</time>
      </trkpt>
      <trkpt lat="45.71847" lon="6.17044">
        <ele>1488.7</ele>
        <time>2014-11-11T15:58:07Z</time>
      </trkpt>
      <trkpt lat="45.71848" lon="6.17046">
        <ele>1488.3</ele>
        <time>2014-11-11T15:58:08Z</time>
      </trkpt>
      <trkpt lat="45.71856" lon="6.1705">
        <ele>1490.5</ele>
        <time>2014-11-11T15:58:12Z</time>
      </trkpt>
      <trkpt lat="45.71867" lon="6.17058">
        <ele>1493.2</ele>
        <time>2014-11-11T15:58:17Z</time>
      </trkpt>
      <trkpt lat="45.71873" lon="6.17063">
        <ele>1494</ele>
        <time>2014-11-11T15:58:20Z</time>
      </trkpt>
      <trkpt lat="45.71877" lon="6.1707">
        <ele>1492.7</ele>
        <time>2014-11-11T15:58:25Z</time>
      </trkpt>
      <trkpt lat="45.71881" lon="6.17071">
        <ele>1492.8</ele>
        <time>2014-11-11T15:58:27Z</time>
      </trkpt>
      <trkpt lat="45.71889" lon="6.17077">
        <ele>1491.4</ele>
        <time>2014-11-11T15:58:31Z</time>
      </trkpt>
      <trkpt lat="45.71891" lon="6.17082">
        <ele>1490</ele>
        <time>2014-11-11T15:58:33Z</time>
      </trkpt>
      <trkpt lat="45.71898" lon="6.17089">
        <ele>1488.4</ele>
        <time>2014-11-11T15:58:38Z</time>
      </trkpt>
      <trkpt lat="45.719" lon="6.17093">
        <ele>1487.2</ele>
        <time>2014-11-11T15:58:40Z</time>
      </trkpt>
      <trkpt lat="45.71903" lon="6.17098">
        <ele>1485.9</ele>
        <time>2014-11-11T15:58:42Z</time>
      </trkpt>
      <trkpt lat="45.7191" lon="6.17112">
        <ele>1481.3</ele>
        <time>2014-11-11T15:58:47Z</time>
      </trkpt>
      <trkpt lat="45.7191" lon="6.17116">
        <ele>1480.2</ele>
        <time>2014-11-11T15:58:48Z</time>
      </trkpt>
      <trkpt lat="45.71916" lon="6.17132">
        <ele>1475.5</ele>
        <time>2014-11-11T15:58:54Z</time>
      </trkpt>
      <trkpt lat="45.71915" lon="6.17142">
        <ele>1472.5</ele>
        <time>2014-11-11T15:58:57Z</time>
      </trkpt>
      <trkpt lat="45.71909" lon="6.17157">
        <ele>1467.3</ele>
        <time>2014-11-11T15:59:02Z</time>
      </trkpt>
      <trkpt lat="45.719" lon="6.1716">
        <ele>1465.7</ele>
        <time>2014-11-11T15:59:06Z</time>
      </trkpt>
      <trkpt lat="45.71892" lon="6.17164">
        <ele>1464</ele>
        <time>2014-11-11T15:59:10Z</time>
      </trkpt>
      <trkpt lat="45.71881" lon="6.17165">
        <ele>1462.4</ele>
        <time>2014-11-11T15:59:15Z</time>
      </trkpt>
      <trkpt lat="45.7187" lon="6.1717">
        <ele>1458.7</ele>
        <time>2014-11-11T15:59:20Z</time>
      </trkpt>
      <trkpt lat="45.7186" lon="6.17174">
        <ele>1453.6</ele>
        <time>2014-11-11T15:59:25Z</time>
      </trkpt>
      <trkpt lat="45.71851" lon="6.17184">
        <ele>1447.2</ele>
        <time>2014-11-11T15:59:30Z</time>
      </trkpt>
      <trkpt lat="45.71841" lon="6.17195">
        <ele>1440.5</ele>
        <time>2014-11-11T15:59:34Z</time>
      </trkpt>
      <trkpt lat="45.71827" lon="6.17207">
        <ele>1432.3</ele>
        <time>2014-11-11T15:59:39Z</time>
      </trkpt>
      <trkpt lat="45.71817" lon="6.17213">
        <ele>1426.9</ele>
        <time>2014-11-11T15:59:44Z</time>
      </trkpt>
      <trkpt lat="45.71805" lon="6.17215">
        <ele>1422.5</ele>
        <time>2014-11-11T15:59:49Z</time>
      </trkpt>
      <trkpt lat="45.718" lon="6.17217">
        <ele>1420.4</ele>
        <time>2014-11-11T15:59:51Z</time>
      </trkpt>
      <trkpt lat="45.71785" lon="6.1722">
        <ele>1413.8</ele>
        <time>2014-11-11T15:59:57Z</time>
      </trkpt>
      <trkpt lat="45.71782" lon="6.17221">
        <ele>1412.2</ele>
        <time>2014-11-11T15:59:58Z</time>
      </trkpt>
      <trkpt lat="45.71778" lon="6.17232">
        <ele>1408.6</ele>
        <time>2014-11-11T16:00:02Z</time>
      </trkpt>
      <trkpt lat="45.71781" lon="6.17246">
        <ele>1407</ele>
        <time>2014-11-11T16:00:07Z</time>
      </trkpt>
      <trkpt lat="45.71782" lon="6.17249">
        <ele>1406.9</ele>
        <time>2014-11-11T16:00:08Z</time>
      </trkpt>
      <trkpt lat="45.71788" lon="6.17261">
        <ele>1407.2</ele>
        <time>2014-11-11T16:00:13Z</time>
      </trkpt>
      <trkpt lat="45.71793" lon="6.17264">
        <ele>1408.5</ele>
        <time>2014-11-11T16:00:15Z</time>
      </trkpt>
      <trkpt lat="45.71809" lon="6.17277">
        <ele>1410.7</ele>
        <time>2014-11-11T16:00:22Z</time>
      </trkpt>
      <trkpt lat="45.71816" lon="6.17288">
        <ele>1410.7</ele>
        <time>2014-11-11T16:00:27Z</time>
      </trkpt>
      <trkpt lat="45.71817" lon="6.17295">
        <ele>1409.3</ele>
        <time>2014-11-11T16:00:30Z</time>
      </trkpt>
      <trkpt lat="45.7181" lon="6.17303">
        <ele>1405.7</ele>
        <time>2014-11-11T16:00:35Z</time>
      </trkpt>
      <trkpt lat="45.71799" lon="6.17316">
        <ele>1400.5</ele>
        <time>2014-11-11T16:00:39Z</time>
      </trkpt>
      <trkpt lat="45.71788" lon="6.17327">
        <ele>1395.5</ele>
        <time>2014-11-11T16:00:44Z</time>
      </trkpt>
      <trkpt lat="45.71777" lon="6.17336">
        <ele>1389.1</ele>
        <time>2014-11-11T16:00:49Z</time>
      </trkpt>
      <trkpt lat="45.71769" lon="6.17346">
        <ele>1384.4</ele>
        <time>2014-11-11T16:00:54Z</time>
      </trkpt>
      <trkpt lat="45.71767" lon="6.17345">
        <ele>1383.7</ele>
        <time>2014-11-11T16:00:57Z</time>
      </trkpt>
      <trkpt lat="45.71767" lon="6.17345">
        <ele>1383.6</ele>
        <time>2014-11-11T16:00:59Z</time>
      </trkpt>
      <trkpt lat="45.71756" lon="6.17352">
        <ele>1377.9</ele>
        <time>2014-11-11T16:01:05Z</time>
      </trkpt>
      <trkpt lat="45.71753" lon="6.17354">
        <ele>1376.7</ele>
        <time>2014-11-11T16:01:06Z</time>
      </trkpt>
      <trkpt lat="45.71746" lon="6.17358">
        <ele>1372.9</ele>
        <time>2014-11-11T16:01:09Z</time>
      </trkpt>
      <trkpt lat="45.71736" lon="6.17374">
        <ele>1367.1</ele>
        <time>2014-11-11T16:01:15Z</time>
      </trkpt>
      <trkpt lat="45.71733" lon="6.17384">
        <ele>1364.7</ele>
        <time>2014-11-11T16:01:18Z</time>
      </trkpt>
      <trkpt lat="45.71733" lon="6.1739">
        <ele>1364.1</ele>
        <time>2014-11-11T16:01:20Z</time>
      </trkpt>
      <trkpt lat="45.71727" lon="6.17409">
        <ele>1360.4</ele>
        <time>2014-11-11T16:01:26Z</time>
      </trkpt>
      <trkpt lat="45.71726" lon="6.17416">
        <ele>1359.2</ele>
        <time>2014-11-11T16:01:28Z</time>
      </trkpt>
      <trkpt lat="45.71729" lon="6.17441">
        <ele>1357.9</ele>
        <time>2014-11-11T16:01:34Z</time>
      </trkpt>
      <trkpt lat="45.71731" lon="6.17443">
        <ele>1358.2</ele>
        <time>2014-11-11T16:01:35Z</time>
      </trkpt>
      <trkpt lat="45.71737" lon="6.17458">
        <ele>1358.2</ele>
        <time>2014-11-11T16:01:40Z</time>
      </trkpt>
      <trkpt lat="45.71737" lon="6.17461">
        <ele>1358</ele>
        <time>2014-11-11T16:01:41Z</time>
      </trkpt>
      <trkpt lat="45.71738" lon="6.17481">
        <ele>1356.1</ele>
        <time>2014-11-11T16:01:47Z</time>
      </trkpt>
      <trkpt lat="45.71739" lon="6.17501">
        <ele>1354.2</ele>
        <time>2014-11-11T16:01:53Z</time>
      </trkpt>
      <trkpt lat="45.71738" lon="6.17515">
        <ele>1352.5</ele>
        <time>2014-11-11T16:01:57Z</time>
      </trkpt>
      <trkpt lat="45.7175" lon="6.17534">
        <ele>1352.3</ele>
        <time>2014-11-11T16:02:02Z</time>
      </trkpt>
      <trkpt lat="45.71751" lon="6.17547">
        <ele>1351.1</ele>
        <time>2014-11-11T16:02:05Z</time>
      </trkpt>
      <trkpt lat="45.71752" lon="6.17561">
        <ele>1349.4</ele>
        <time>2014-11-11T16:02:09Z</time>
      </trkpt>
      <trkpt lat="45.71749" lon="6.17579">
        <ele>1346.6</ele>
        <time>2014-11-11T16:02:15Z</time>
      </trkpt>
      <trkpt lat="45.71749" lon="6.17585">
        <ele>1345.8</ele>
        <time>2014-11-11T16:02:17Z</time>
      </trkpt>
      <trkpt lat="45.71746" lon="6.17609">
        <ele>1342.6</ele>
        <time>2014-11-11T16:02:23Z</time>
      </trkpt>
      <trkpt lat="45.71745" lon="6.17614">
        <ele>1341.7</ele>
        <time>2014-11-11T16:02:25Z</time>
      </trkpt>
      <trkpt lat="45.71742" lon="6.17625">
        <ele>1340</ele>
        <time>2014-11-11T16:02:32Z</time>
      </trkpt>
      <trkpt lat="45.71741" lon="6.17629">
        <ele>1339.7</ele>
        <time>2014-11-11T16:02:46Z</time>
      </trkpt>
      <trkpt lat="45.71735" lon="6.17639">
        <ele>1338.6</ele>
        <time>2014-11-11T16:02:53Z</time>
      </trkpt>
      <trkpt lat="45.71734" lon="6.17642">
        <ele>1338.3</ele>
        <time>2014-11-11T16:02:56Z</time>
      </trkpt>
      <trkpt lat="45.71733" lon="6.17653">
        <ele>1337.7</ele>
        <time>2014-11-11T16:03:02Z</time>
      </trkpt>
      <trkpt lat="45.71734" lon="6.17665">
        <ele>1337.2</ele>
        <time>2014-11-11T16:03:09Z</time>
      </trkpt>
      <trkpt lat="45.71735" lon="6.17669">
        <ele>1337.1</ele>
        <time>2014-11-11T16:03:15Z</time>
      </trkpt>
      <trkpt lat="45.71735" lon="6.17674">
        <ele>1336.9</ele>
        <time>2014-11-11T16:03:21Z</time>
      </trkpt>
      <trkpt lat="45.71736" lon="6.17685">
        <ele>1336.4</ele>
        <time>2014-11-11T16:03:28Z</time>
      </trkpt>
      <trkpt lat="45.71737" lon="6.177">
        <ele>1335.8</ele>
        <time>2014-11-11T16:03:36Z</time>
      </trkpt>
      <trkpt lat="45.71738" lon="6.1771">
        <ele>1335.2</ele>
        <time>2014-11-11T16:03:40Z</time>
      </trkpt>
      <trkpt lat="45.71738" lon="6.17713">
        <ele>1335</ele>
        <time>2014-11-11T16:03:46Z</time>
      </trkpt>
      <trkpt lat="45.71739" lon="6.17712">
        <ele>1335</ele>
        <time>2014-11-11T16:03:58Z</time>
      </trkpt>
      <trkpt lat="45.71739" lon="6.17714">
        <ele>1334.9</ele>
        <time>2014-11-11T16:04:01Z</time>
      </trkpt>
      <trkpt lat="45.71741" lon="6.17732">
        <ele>1333.4</ele>
        <time>2014-11-11T16:04:07Z</time>
      </trkpt>
      <trkpt lat="45.71746" lon="6.1774">
        <ele>1332.9</ele>
        <time>2014-11-11T16:04:12Z</time>
      </trkpt>
      <trkpt lat="45.71755" lon="6.1774">
        <ele>1333.2</ele>
        <time>2014-11-11T16:04:20Z</time>
      </trkpt>
      <trkpt lat="45.71763" lon="6.17741">
        <ele>1333.3</ele>
        <time>2014-11-11T16:04:27Z</time>
      </trkpt>
      <trkpt lat="45.71772" lon="6.17739">
        <ele>1333.6</ele>
        <time>2014-11-11T16:04:34Z</time>
      </trkpt>
      <trkpt lat="45.71778" lon="6.17741">
        <ele>1333.7</ele>
        <time>2014-11-11T16:04:39Z</time>
      </trkpt>
      <trkpt lat="45.7178" lon="6.17741">
        <ele>1333.7</ele>
        <time>2014-11-11T16:04:40Z</time>
      </trkpt>
      <trkpt lat="45.71787" lon="6.17739">
        <ele>1334.1</ele>
        <time>2014-11-11T16:04:46Z</time>
      </trkpt>
      <trkpt lat="45.7179" lon="6.17738">
        <ele>1334.2</ele>
        <time>2014-11-11T16:04:48Z</time>
      </trkpt>
      <trkpt lat="45.71798" lon="6.17739">
        <ele>1333.4</ele>
        <time>2014-11-11T16:04:54Z</time>
      </trkpt>
      <trkpt lat="45.71804" lon="6.17737">
        <ele>1332.6</ele>
        <time>2014-11-11T16:04:59Z</time>
      </trkpt>
      <trkpt lat="45.71807" lon="6.17735">
        <ele>1332.3</ele>
        <time>2014-11-11T16:05:01Z</time>
      </trkpt>
      <trkpt lat="45.71815" lon="6.1773">
        <ele>1331.5</ele>
        <time>2014-11-11T16:05:07Z</time>
      </trkpt>
      <trkpt lat="45.71819" lon="6.1773">
        <ele>1330.9</ele>
        <time>2014-11-11T16:05:10Z</time>
      </trkpt>
      <trkpt lat="45.71824" lon="6.17732">
        <ele>1330.2</ele>
        <time>2014-11-11T16:05:14Z</time>
      </trkpt>
      <trkpt lat="45.71833" lon="6.17735">
        <ele>1328.9</ele>
        <time>2014-11-11T16:05:21Z</time>
      </trkpt>
      <trkpt lat="45.71843" lon="6.17734">
        <ele>1327.7</ele>
        <time>2014-11-11T16:05:27Z</time>
      </trkpt>
      <trkpt lat="45.71851" lon="6.17737">
        <ele>1326.5</ele>
        <time>2014-11-11T16:05:31Z</time>
      </trkpt>
      <trkpt lat="45.71861" lon="6.17733">
        <ele>1325.1</ele>
        <time>2014-11-11T16:05:36Z</time>
      </trkpt>
      <trkpt lat="45.71874" lon="6.17727">
        <ele>1323.4</ele>
        <time>2014-11-11T16:05:41Z</time>
      </trkpt>
      <trkpt lat="45.71883" lon="6.17725">
        <ele>1321.9</ele>
        <time>2014-11-11T16:05:45Z</time>
      </trkpt>
      <trkpt lat="45.71891" lon="6.17722">
        <ele>1320.5</ele>
        <time>2014-11-11T16:05:50Z</time>
      </trkpt>
      <trkpt lat="45.71901" lon="6.17725">
        <ele>1319</ele>
        <time>2014-11-11T16:05:56Z</time>
      </trkpt>
      <trkpt lat="45.71902" lon="6.17725">
        <ele>1318.8</ele>
        <time>2014-11-11T16:05:57Z</time>
      </trkpt>
      <trkpt lat="45.71906" lon="6.17726">
        <ele>1318.2</ele>
        <time>2014-11-11T16:05:59Z</time>
      </trkpt>
      <trkpt lat="45.7191" lon="6.1773">
        <ele>1317.7</ele>
        <time>2014-11-11T16:06:03Z</time>
      </trkpt>
      <trkpt lat="45.71914" lon="6.17734">
        <ele>1317.1</ele>
        <time>2014-11-11T16:06:09Z</time>
      </trkpt>
      <trkpt lat="45.71915" lon="6.17735">
        <ele>1317</ele>
        <time>2014-11-11T16:06:10Z</time>
      </trkpt>
      <trkpt lat="45.71918" lon="6.17735">
        <ele>1316.5</ele>
        <time>2014-11-11T16:06:13Z</time>
      </trkpt>
      <trkpt lat="45.71928" lon="6.17733">
        <ele>1314.8</ele>
        <time>2014-11-11T16:06:18Z</time>
      </trkpt>
      <trkpt lat="45.71936" lon="6.1773">
        <ele>1313.4</ele>
        <time>2014-11-11T16:06:22Z</time>
      </trkpt>
      <trkpt lat="45.71945" lon="6.17726">
        <ele>1311.8</ele>
        <time>2014-11-11T16:06:26Z</time>
      </trkpt>
      <trkpt lat="45.71958" lon="6.17723">
        <ele>1309.5</ele>
        <time>2014-11-11T16:06:30Z</time>
      </trkpt>
      <trkpt lat="45.71961" lon="6.17722">
        <ele>1309.2</ele>
        <time>2014-11-11T16:06:31Z</time>
      </trkpt>
      <trkpt lat="45.71975" lon="6.17721">
        <ele>1307.1</ele>
        <time>2014-11-11T16:06:37Z</time>
      </trkpt>
      <trkpt lat="45.7198" lon="6.1772">
        <ele>1306.5</ele>
        <time>2014-11-11T16:06:39Z</time>
      </trkpt>
      <trkpt lat="45.71993" lon="6.1772">
        <ele>1304.7</ele>
        <time>2014-11-11T16:06:44Z</time>
      </trkpt>
      <trkpt lat="45.7201" lon="6.17721">
        <ele>1302.3</ele>
        <time>2014-11-11T16:06:51Z</time>
      </trkpt>
      <trkpt lat="45.72026" lon="6.17724">
        <ele>1300.1</ele>
        <time>2014-11-11T16:06:57Z</time>
      </trkpt>
      <trkpt lat="45.72038" lon="6.17728">
        <ele>1298.3</ele>
        <time>2014-11-11T16:07:02Z</time>
      </trkpt>
      <trkpt lat="45.72049" lon="6.17732">
        <ele>1297</ele>
        <time>2014-11-11T16:07:06Z</time>
      </trkpt>
      <trkpt lat="45.72057" lon="6.17727">
        <ele>1296.3</ele>
        <time>2014-11-11T16:07:10Z</time>
      </trkpt>
      <trkpt lat="45.72057" lon="6.17712">
        <ele>1296.5</ele>
        <time>2014-11-11T16:07:15Z</time>
      </trkpt>
      <trkpt lat="45.72052" lon="6.17693">
        <ele>1299.9</ele>
        <time>2014-11-11T16:07:21Z</time>
      </trkpt>
      <trkpt lat="45.7205" lon="6.17684">
        <ele>1301.8</ele>
        <time>2014-11-11T16:07:24Z</time>
      </trkpt>
      <trkpt lat="45.72048" lon="6.17675">
        <ele>1303.6</ele>
        <time>2014-11-11T16:07:29Z</time>
      </trkpt>
      <trkpt lat="45.72054" lon="6.17673">
        <ele>1303.4</ele>
        <time>2014-11-11T16:07:36Z</time>
      </trkpt>
      <trkpt lat="45.72058" lon="6.17671">
        <ele>1303.3</ele>
        <time>2014-11-11T16:07:40Z</time>
      </trkpt>
      <trkpt lat="45.72069" lon="6.17658">
        <ele>1304.6</ele>
        <time>2014-11-11T16:07:49Z</time>
      </trkpt>
      <trkpt lat="45.72076" lon="6.17651">
        <ele>1304.9</ele>
        <time>2014-11-11T16:07:55Z</time>
      </trkpt>
      <trkpt lat="45.72077" lon="6.17649">
        <ele>1305.1</ele>
        <time>2014-11-11T16:07:56Z</time>
      </trkpt>
      <trkpt lat="45.72079" lon="6.17647">
        <ele>1305.3</ele>
        <time>2014-11-11T16:07:58Z</time>
      </trkpt>
      <trkpt lat="45.72089" lon="6.1764">
        <ele>1305.1</ele>
        <time>2014-11-11T16:08:05Z</time>
      </trkpt>
      <trkpt lat="45.72097" lon="6.17635">
        <ele>1305.1</ele>
        <time>2014-11-11T16:08:10Z</time>
      </trkpt>
      <trkpt lat="45.72102" lon="6.17632">
        <ele>1304.8</ele>
        <time>2014-11-11T16:08:13Z</time>
      </trkpt>
      <trkpt lat="45.72107" lon="6.17631">
        <ele>1304.3</ele>
        <time>2014-11-11T16:08:16Z</time>
      </trkpt>
      <trkpt lat="45.72117" lon="6.17631">
        <ele>1303</ele>
        <time>2014-11-11T16:08:22Z</time>
      </trkpt>
      <trkpt lat="45.72119" lon="6.17631">
        <ele>1302.8</ele>
        <time>2014-11-11T16:08:23Z</time>
      </trkpt>
      <trkpt lat="45.72128" lon="6.17632">
        <ele>1301.3</ele>
        <time>2014-11-11T16:08:29Z</time>
      </trkpt>
      <trkpt lat="45.72136" lon="6.17632">
        <ele>1300.1</ele>
        <time>2014-11-11T16:08:34Z</time>
      </trkpt>
      <trkpt lat="45.72142" lon="6.17632">
        <ele>1299</ele>
        <time>2014-11-11T16:08:38Z</time>
      </trkpt>
      <trkpt lat="45.72146" lon="6.17632">
        <ele>1298.3</ele>
        <time>2014-11-11T16:08:42Z</time>
      </trkpt>
      <trkpt lat="45.72153" lon="6.17637">
        <ele>1296.5</ele>
        <time>2014-11-11T16:08:46Z</time>
      </trkpt>
      <trkpt lat="45.72155" lon="6.17639">
        <ele>1296</ele>
        <time>2014-11-11T16:08:47Z</time>
      </trkpt>
      <trkpt lat="45.72164" lon="6.17642">
        <ele>1294.1</ele>
        <time>2014-11-11T16:08:53Z</time>
      </trkpt>
      <trkpt lat="45.72172" lon="6.17644">
        <ele>1292.7</ele>
        <time>2014-11-11T16:08:58Z</time>
      </trkpt>
      <trkpt lat="45.72184" lon="6.17649">
        <ele>1290.3</ele>
        <time>2014-11-11T16:09:04Z</time>
      </trkpt>
      <trkpt lat="45.72195" lon="6.17651">
        <ele>1288.4</ele>
        <time>2014-11-11T16:09:09Z</time>
      </trkpt>
      <trkpt lat="45.72201" lon="6.17652">
        <ele>1287.5</ele>
        <time>2014-11-11T16:09:11Z</time>
      </trkpt>
      <trkpt lat="45.72213" lon="6.17651">
        <ele>1285.5</ele>
        <time>2014-11-11T16:09:16Z</time>
      </trkpt>
      <trkpt lat="45.72225" lon="6.1765">
        <ele>1283.1</ele>
        <time>2014-11-11T16:09:21Z</time>
      </trkpt>
      <trkpt lat="45.72242" lon="6.17653">
        <ele>1279.6</ele>
        <time>2014-11-11T16:09:25Z</time>
      </trkpt>
      <trkpt lat="45.72256" lon="6.17666">
        <ele>1276.2</ele>
        <time>2014-11-11T16:09:29Z</time>
      </trkpt>
      <trkpt lat="45.72262" lon="6.17673">
        <ele>1274.6</ele>
        <time>2014-11-11T16:09:31Z</time>
      </trkpt>
      <trkpt lat="45.72278" lon="6.17678">
        <ele>1271.4</ele>
        <time>2014-11-11T16:09:36Z</time>
      </trkpt>
      <trkpt lat="45.72299" lon="6.17691">
        <ele>1266.8</ele>
        <time>2014-11-11T16:09:43Z</time>
      </trkpt>
      <trkpt lat="45.72317" lon="6.17685">
        <ele>1262.9</ele>
        <time>2014-11-11T16:09:47Z</time>
      </trkpt>
      <trkpt lat="45.72321" lon="6.17682">
        <ele>1262.1</ele>
        <time>2014-11-11T16:09:48Z</time>
      </trkpt>
      <trkpt lat="45.72336" lon="6.17679">
        <ele>1258.9</ele>
        <time>2014-11-11T16:09:54Z</time>
      </trkpt>
      <trkpt lat="45.72346" lon="6.17677">
        <ele>1256.9</ele>
        <time>2014-11-11T16:09:58Z</time>
      </trkpt>
      <trkpt lat="45.72354" lon="6.17675">
        <ele>1255</ele>
        <time>2014-11-11T16:10:01Z</time>
      </trkpt>
      <trkpt lat="45.72358" lon="6.17672">
        <ele>1254.3</ele>
        <time>2014-11-11T16:10:03Z</time>
      </trkpt>
      <trkpt lat="45.72377" lon="6.17668">
        <ele>1250.3</ele>
        <time>2014-11-11T16:10:10Z</time>
      </trkpt>
      <trkpt lat="45.72379" lon="6.17667">
        <ele>1250.1</ele>
        <time>2014-11-11T16:10:11Z</time>
      </trkpt>
      <trkpt lat="45.72392" lon="6.17663">
        <ele>1248.8</ele>
        <time>2014-11-11T16:10:16Z</time>
      </trkpt>
      <trkpt lat="45.72404" lon="6.17658">
        <ele>1247.6</ele>
        <time>2014-11-11T16:10:20Z</time>
      </trkpt>
      <trkpt lat="45.72415" lon="6.17654">
        <ele>1246.4</ele>
        <time>2014-11-11T16:10:24Z</time>
      </trkpt>
      <trkpt lat="45.72424" lon="6.17647">
        <ele>1245.3</ele>
        <time>2014-11-11T16:10:28Z</time>
      </trkpt>
      <trkpt lat="45.72432" lon="6.17643">
        <ele>1244.4</ele>
        <time>2014-11-11T16:10:32Z</time>
      </trkpt>
      <trkpt lat="45.72443" lon="6.17641">
        <ele>1243.1</ele>
        <time>2014-11-11T16:10:36Z</time>
      </trkpt>
      <trkpt lat="45.72457" lon="6.17635">
        <ele>1241.4</ele>
        <time>2014-11-11T16:10:41Z</time>
      </trkpt>
      <trkpt lat="45.72474" lon="6.17626">
        <ele>1238.8</ele>
        <time>2014-11-11T16:10:48Z</time>
      </trkpt>
      <trkpt lat="45.72483" lon="6.17621">
        <ele>1237.5</ele>
        <time>2014-11-11T16:10:51Z</time>
      </trkpt>
      <trkpt lat="45.72496" lon="6.17615">
        <ele>1235.8</ele>
        <time>2014-11-11T16:10:56Z</time>
      </trkpt>
      <trkpt lat="45.7251" lon="6.17613">
        <ele>1233.7</ele>
        <time>2014-11-11T16:11:02Z</time>
      </trkpt>
      <trkpt lat="45.72518" lon="6.17608">
        <ele>1232.5</ele>
        <time>2014-11-11T16:11:06Z</time>
      </trkpt>
      <trkpt lat="45.7252" lon="6.17607">
        <ele>1232.2</ele>
        <time>2014-11-11T16:11:07Z</time>
      </trkpt>
      <trkpt lat="45.72531" lon="6.17602">
        <ele>1230.4</ele>
        <time>2014-11-11T16:11:12Z</time>
      </trkpt>
      <trkpt lat="45.7254" lon="6.17601">
        <ele>1229</ele>
        <time>2014-11-11T16:11:16Z</time>
      </trkpt>
      <trkpt lat="45.72547" lon="6.17597">
        <ele>1227.5</ele>
        <time>2014-11-11T16:11:21Z</time>
      </trkpt>
      <trkpt lat="45.72551" lon="6.17596">
        <ele>1226.8</ele>
        <time>2014-11-11T16:11:23Z</time>
      </trkpt>
      <trkpt lat="45.72562" lon="6.1759">
        <ele>1224.6</ele>
        <time>2014-11-11T16:11:30Z</time>
      </trkpt>
      <trkpt lat="45.72571" lon="6.17585">
        <ele>1222.7</ele>
        <time>2014-11-11T16:11:35Z</time>
      </trkpt>
      <trkpt lat="45.72586" lon="6.17578">
        <ele>1219.6</ele>
        <time>2014-11-11T16:11:42Z</time>
      </trkpt>
      <trkpt lat="45.72599" lon="6.17569">
        <ele>1217</ele>
        <time>2014-11-11T16:11:47Z</time>
      </trkpt>
      <trkpt lat="45.72602" lon="6.17568">
        <ele>1216.5</ele>
        <time>2014-11-11T16:11:48Z</time>
      </trkpt>
      <trkpt lat="45.72611" lon="6.1756">
        <ele>1214.8</ele>
        <time>2014-11-11T16:11:52Z</time>
      </trkpt>
      <trkpt lat="45.72631" lon="6.17549">
        <ele>1211</ele>
        <time>2014-11-11T16:11:58Z</time>
      </trkpt>
      <trkpt lat="45.72641" lon="6.17544">
        <ele>1209.2</ele>
        <time>2014-11-11T16:12:01Z</time>
      </trkpt>
      <trkpt lat="45.72655" lon="6.17539">
        <ele>1206.8</ele>
        <time>2014-11-11T16:12:05Z</time>
      </trkpt>
      <trkpt lat="45.72668" lon="6.17534">
        <ele>1205.1</ele>
        <time>2014-11-11T16:12:09Z</time>
      </trkpt>
      <trkpt lat="45.72676" lon="6.17529">
        <ele>1203.9</ele>
        <time>2014-11-11T16:12:13Z</time>
      </trkpt>
      <trkpt lat="45.72686" lon="6.17517">
        <ele>1203</ele>
        <time>2014-11-11T16:12:18Z</time>
      </trkpt>
      <trkpt lat="45.72697" lon="6.17502">
        <ele>1202.1</ele>
        <time>2014-11-11T16:12:22Z</time>
      </trkpt>
      <trkpt lat="45.72702" lon="6.17494">
        <ele>1201.6</ele>
        <time>2014-11-11T16:12:24Z</time>
      </trkpt>
      <trkpt lat="45.72706" lon="6.17487">
        <ele>1201.5</ele>
        <time>2014-11-11T16:12:29Z</time>
      </trkpt>
      <trkpt lat="45.72708" lon="6.17477">
        <ele>1201.7</ele>
        <time>2014-11-11T16:12:34Z</time>
      </trkpt>
      <trkpt lat="45.7271" lon="6.17473">
        <ele>1201.6</ele>
        <time>2014-11-11T16:12:38Z</time>
      </trkpt>
      <trkpt lat="45.72712" lon="6.1747">
        <ele>1201.4</ele>
        <time>2014-11-11T16:12:40Z</time>
      </trkpt>
      <trkpt lat="45.72717" lon="6.1746">
        <ele>1200.9</ele>
        <time>2014-11-11T16:12:46Z</time>
      </trkpt>
      <trkpt lat="45.72718" lon="6.17456">
        <ele>1201.1</ele>
        <time>2014-11-11T16:12:48Z</time>
      </trkpt>
      <trkpt lat="45.7272" lon="6.17448">
        <ele>1202.1</ele>
        <time>2014-11-11T16:12:53Z</time>
      </trkpt>
      <trkpt lat="45.72724" lon="6.17444">
        <ele>1201.9</ele>
        <time>2014-11-11T16:12:59Z</time>
      </trkpt>
      <trkpt lat="45.72726" lon="6.17445">
        <ele>1201.2</ele>
        <time>2014-11-11T16:13:01Z</time>
      </trkpt>
      <trkpt lat="45.72728" lon="6.17455">
        <ele>1199</ele>
        <time>2014-11-11T16:13:06Z</time>
      </trkpt>
      <trkpt lat="45.72733" lon="6.17461">
        <ele>1197.1</ele>
        <time>2014-11-11T16:13:12Z</time>
      </trkpt>
      <trkpt lat="45.72734" lon="6.17464">
        <ele>1196.8</ele>
        <time>2014-11-11T16:13:22Z</time>
      </trkpt>
      <trkpt lat="45.72736" lon="6.1746">
        <ele>1196.3</ele>
        <time>2014-11-11T16:13:27Z</time>
      </trkpt>
      <trkpt lat="45.72736" lon="6.17458">
        <ele>1196.4</ele>
        <time>2014-11-11T16:13:31Z</time>
      </trkpt>
      <trkpt lat="45.72737" lon="6.17457">
        <ele>1196.3</ele>
        <time>2014-11-11T16:13:35Z</time>
      </trkpt>
      <trkpt lat="45.7274" lon="6.17465">
        <ele>1195.2</ele>
        <time>2014-11-11T16:13:44Z</time>
      </trkpt>
      <trkpt lat="45.72744" lon="6.17461">
        <ele>1194.3</ele>
        <time>2014-11-11T16:13:54Z</time>
      </trkpt>
      <trkpt lat="45.72749" lon="6.17461">
        <ele>1193.1</ele>
        <time>2014-11-11T16:13:58Z</time>
      </trkpt>
      <trkpt lat="45.72756" lon="6.17468">
        <ele>1191.5</ele>
        <time>2014-11-11T16:14:05Z</time>
      </trkpt>
      <trkpt lat="45.72757" lon="6.17471">
        <ele>1191.2</ele>
        <time>2014-11-11T16:14:07Z</time>
      </trkpt>
      <trkpt lat="45.7276" lon="6.17475">
        <ele>1190.6</ele>
        <time>2014-11-11T16:14:11Z</time>
      </trkpt>
      <trkpt lat="45.72764" lon="6.17484">
        <ele>1189.7</ele>
        <time>2014-11-11T16:14:16Z</time>
      </trkpt>
      <trkpt lat="45.72764" lon="6.17485">
        <ele>1189.7</ele>
        <time>2014-11-11T16:14:17Z</time>
      </trkpt>
      <trkpt lat="45.72764" lon="6.17485">
        <ele>1189.7</ele>
        <time>2014-11-11T16:14:18Z</time>
      </trkpt>
    </trkseg>
  </trk>
</gpx>